GFSNGP_con_mucape_000.txt.gz
CAPE
0 0 0 0 0 0 0 0 0 0 0 0 0 0 0 0 28 32 31 83 99 211 297 399 510 610 718 999 1207 1272 1249 1201 1335 1338 1288 972 268 62 61 50 46 31 1 0
0 0 0 0 0 0 0 0 0 0 0 0 0 0 0 0 32 47 77 123 156 167 180 266 327 413 538 845 981 1183 1190 1165 1142 1178 1160 553 54 268 189 379 274 133 68 8
0 0 0 0 0 0 0 0 0 0 0 0 0 0 0 0 33 114 193 177 179 193 167 124 137 261 438 751 939 1128 1189 1206 1183 1146 1095 821 216 5 281 522 290 124 100 39
0 0 0 0 0 0 0 0 0 0 0 0 0 0 1 0 1 66 159 169 187 134 89 54 97 213 349 642 915 1112 1181 1212 1226 1234 1104 496 234 8 355 105 21 48 95 102
29 0 0 15 12 10 45 33 38 20 9 6 2 0 3 0 1 7 77 77 100 175 189 141 187 263 441 633 893 1070 1158 1226 1207 1209 1131 841 232 13 162 304 80 104 186 191
71 64 5 10 39 52 41 29 32 23 12 5 0 1 0 0 8 58 97 136 151 285 273 351 461 661 753 836 893 1002 1082 1202 1418 1227 969 581 274 113 110 217 339 195 189 208
62 60 54 101 102 89 87 6 22 18 23 29 26 20 61 133 156 174 185 208 244 403 578 508 535 820 958 1123 1161 1073 1220 1620 1576 1220 1058 470 229 191 261 270 286 141 94 6
88 72 184 169 183 149 27 6 28 36 62 57 30 86 167 214 251 242 249 247 266 384 544 761 858 863 855 1042 963 1057 1387 1590 1275 1023 906 573 250 245 275 275 166 15 28 12
21 25 99 237 175 111 58 25 20 49 118 127 113 134 199 276 314 321 320 308 570 709 687 701 765 1028 1030 825 954 1264 1458 1315 988 910 732 357 171 47 90 53 39 31 59 81
29 54 125 184 180 135 125 92 78 74 116 155 169 225 324 499 428 215 229 337 568 712 816 951 995 983 1033 1247 1274 1426 974 780 707 571 518 346 211 85 32 51 1 10 54 93
6 31 42 87 90 91 76 84 46 53 54 88 86 91 93 52 556 634 600 522 610 685 787 972 1088 1159 1249 1363 1166 695 492 490 565 534 457 205 95 71 24 1 45 84 138 103
3 5 17 3 15 44 53 3 7 2 0 2 2 0 0 0 57 719 768 737 744 854 931 1110 1168 1154 1122 850 559 370 237 68 68 270 172 50 15 26 4 87 118 130 110 81
0 0 1 25 28 35 1 0 0 0 0 0 0 0 0 0 0 207 583 818 994 1022 962 1064 864 835 775 650 486 302 68 15 15 37 0 0 0 0 0 1 134 142 42 16
32 39 39 67 43 16 0 0 0 0 0 0 0 0 0 0 0 0 0 30 788 1125 1076 914 809 686 586 466 63 2 0 4 19 1 0 0 0 9 53 154 54 9 9 0
33 7 1 2 30 23 8 0 0 0 0 0 0 0 0 0 0 0 0 0 284 939 1040 846 693 296 9 0 0 0 0 7 0 29 107 202 187 146 110 117 22 13 0 0
52 27 46 37 14 4 1 0 0 0 0 0 0 0 0 0 0 0 0 0 121 562 909 656 358 47 0 0 0 9 302 246 187 143 88 118 162 138 119 77 57 31 2 0
56 0 0 0 0 0 0 0 0 0 0 0 0 0 0 0 0 0 0 0 2 217 643 648 247 0 27 69 178 113 83 69 78 88 132 91 89 84 57 44 28 14 10 0
0 0 0 0 0 0 0 0 0 0 0 0 0 0 0 0 0 0 0 0 0 267 475 72 52 146 185 156 98 53 43 42 88 151 178 123 108 89 73 51 27 38 1 0
0 0 0 0 0 0 0 0 0 0 0 0 0 0 0 0 0 0 0 0 93 216 128 100 108 88 89 63 79 127 130 81 46 19 13 29 105 111 87 50 38 9 0 13
0 0 0 0 0 0 0 0 0 0 0 0 0 0 0 0 0 18 30 94 67 61 60 78 89 68 96 118 78 40 42 23 13 5 1 35 58 70 16 1 8 3 16 38
0 0 0 0 0 0 0 0 0 0 0 0 0 0 0 0 0 0 48 60 42 50 69 65 89 45 56 35 28 21 7 0 0 0 0 0 0 2 0 1 7 23 7 10
0 0 0 0 0 0 0 0 0 0 0 0 0 0 0 0 0 0 8 1 4 28 16 23 18 6 0 0 0 0 0 0 0 0 0 0 0 0 0 0 0 0 0 2
0 0 0 0 0 0 0 0 0 0 0 0 1 0 0 0 0 0 0 0 0 0 4 12 8 0 0 0 0 0 0 0 0 0 0 0 0 0 0 0 0 0 0 0
0 0 0 0 0 0 0 4 5 15 14 13 22 13 0 0 0 0 12 16 15 26 19 28 44 39 13 1 0 0 0 0 0 0 0 0 0 0 0 0 0 0 0 0
11 3 3 0 0 3 0 0 0 4 12 10 7 12 4 1 0 0 0 8 35 54 48 38 38 55 51 39 28 10 1 0 0 0 0 0 0 0 0 0 0 0 0 0
13 9 3 1 0 0 2 0 0 0 0 0 5 5 7 10 15 11 10 4 10 44 66 61 41 23 34 60 62 42 17 7 3 0 0 0 0 0 0 0 0 0 0 0
7 7 4 0 0 0 0 0 0 0 0 0 0 0 0 1 3 5 12 6 12 16 11 7 10 29 33 35 37 30 17 8 3 0 0 0 0 0 0 0 0 0 0 0

GFSNGP_con_mucape_003.txt.gz
CAPE
0 0 0 0 0 0 0 0 0 0 0 0 57 218 230 226 318 109 166 438 881 1005 1800 2009 2095 1870 1895 1751 2075 2215 2320 2133 1877 1403 952 1068 1308 749 12 2 11 0 34 338
0 0 0 0 0 0 0 0 0 0 0 0 0 66 148 134 297 207 220 335 700 913 1016 1255 1499 1464 1456 1678 1947 2114 2133 1970 1600 1204 1149 1039 1115 731 305 177 0 101 77 186
2 0 0 0 0 0 0 0 0 0 0 0 0 9 123 210 331 503 493 415 520 742 902 924 982 1131 1154 1387 1563 1785 1883 1732 1366 1013 1023 1034 1035 896 515 308 63 12 198 165
71 44 15 0 0 0 0 0 0 0 0 0 19 57 19 13 161 386 531 523 407 255 406 556 520 671 935 1284 1654 1791 1815 1632 1266 878 932 968 1012 940 512 334 52 329 381 535
18 61 25 0 0 0 0 0 0 0 0 0 0 22 53 1 0 77 157 404 480 344 350 474 392 639 974 1257 1582 1779 1792 1719 1118 913 1026 1024 1069 848 613 373 204 294 173 370
84 46 33 70 56 19 33 0 0 0 28 36 17 73 200 1 5 66 278 570 591 590 583 820 764 851 1213 1390 1573 1737 1748 1681 1154 1363 1252 1067 1062 821 748 294 111 105 229 456
322 181 50 86 81 84 120 73 0 4 14 30 120 160 73 161 454 490 430 707 919 964 1004 1125 1349 1392 1602 1658 1770 1785 1688 1316 1491 1397 1104 961 894 646 337 300 211 478 552 693
456 366 165 62 189 283 179 31 44 65 99 82 93 131 238 317 453 653 788 945 1230 1482 1585 1358 1514 1839 1881 1877 1670 1394 1421 1434 1394 1228 1060 938 826 587 375 450 597 541 600 613
270 264 24 66 250 140 163 147 125 207 163 179 232 328 395 546 635 814 1200 1401 1372 1379 1500 1381 1465 1596 1506 1116 843 1018 1055 1402 1238 967 836 834 773 656 328 395 386 431 313 255
75 92 4 109 120 167 156 130 167 257 259 343 237 446 922 1013 892 759 1018 1388 1627 1778 1660 1282 969 798 932 844 1090 1008 1137 1200 963 1077 833 705 618 331 181 183 74 39 122 246
348 35 41 33 70 73 91 93 93 50 101 114 139 93 450 1346 1384 1274 1359 1338 1550 1818 1833 1457 1079 1052 995 1074 1051 1099 1023 1059 967 962 642 520 283 62 40 71 31 180 189 406
123 50 63 43 30 75 61 50 54 62 60 66 82 64 83 339 1104 1415 1487 1606 1702 1692 1261 941 1023 1016 1065 1060 1121 1161 1052 918 720 397 175 159 103 13 1 3 11 61 146 166
30 17 5 38 80 33 28 0 0 0 0 0 0 8 4 39 36 235 528 958 1736 1575 1308 1059 949 894 889 783 725 762 615 538 309 193 344 241 90 3 0 0 0 9 34 29
14 49 31 54 43 7 2 0 0 0 0 0 0 0 0 0 0 0 38 276 1000 1336 1211 1013 859 846 607 484 475 353 233 7 43 38 64 36 1 40 32 37 32 49 42 30
0 3 9 54 57 28 6 4 0 0 0 0 0 0 0 0 0 0 0 27 591 1206 1228 1064 773 704 475 382 179 106 47 23 69 111 125 75 106 79 35 96 107 50 25 7
27 5 11 18 5 10 0 20 6 9 2 0 0 0 0 0 0 0 0 0 216 505 1125 984 842 511 309 24 112 201 377 202 163 137 66 120 101 90 92 81 72 20 2 0
0 0 23 20 27 3 3 14 7 0 0 0 0 0 0 0 0 0 0 6 21 223 610 831 824 379 386 408 448 441 430 132 137 223 222 200 177 179 181 47 9 0 5 0
3 4 0 0 0 0 0 0 0 0 0 0 0 0 0 0 0 6 51 54 192 179 221 645 696 429 282 228 193 116 138 206 344 376 294 254 242 165 160 147 117 63 31 8
0 0 0 0 0 0 0 0 0 0 0 0 0 0 0 0 0 15 71 212 235 324 243 371 119 17 62 100 98 75 126 135 154 157 197 87 162 316 367 328 184 74 57 18
0 0 0 0 0 0 0 0 0 0 0 0 0 0 0 0 0 12 100 78 12 14 45 39 58 106 142 46 72 72 46 42 48 53 72 100 159 147 111 48 87 60 36 9
0 0 0 0 0 0 0 0 0 0 0 0 0 0 0 1 0 44 71 79 80 47 89 40 87 42 25 0 0 0 7 4 3 13 15 24 9 17 22 5 8 16 12 2
0 0 0 0 0 0 0 0 0 0 0 1 0 0 2 3 13 52 55 57 44 37 84 79 4 0 0 0 0 0 0 0 0 0 0 0 0 0 0 0 0 0 0 0
0 0 3 9 2 0 0 2 6 6 5 11 13 2 0 0 0 51 48 21 64 26 83 89 1 0 0 0 0 0 0 0 0 0 0 0 0 0 0 0 0 0 0 0
3 18 32 19 2 12 30 19 10 12 21 38 32 28 13 0 0 0 1 3 0 5 66 48 4 0 0 0 0 0 0 0 0 0 0 0 0 0 0 0 0 0 0 0
28 29 44 66 58 31 34 27 20 36 36 56 55 39 35 4 0 0 0 13 19 43 42 29 44 53 40 55 29 13 3 0 0 0 0 0 0 0 0 0 0 0 0 0
26 22 23 23 9 3 8 19 25 15 13 56 83 51 38 32 31 18 18 4 34 47 110 138 102 76 104 107 84 65 33 13 0 0 0 0 0 0 0 0 0 0 0 0
19 11 10 10 0 0 0 0 2 0 0 2 21 20 18 11 11 8 3 27 48 46 59 76 87 56 100 104 86 75 49 25 0 0 0 0 0 0 0 0 0 0 0 0

GFSNGP_con_mucape_006.txt.gz
CAPE
0 0 0 0 0 0 0 0 4 0 13 17 6 0 0 0 3 213 851 946 1328 1502 2240 2758 2630 2686 2566 2382 2373 2379 2567 2653 3001 3146 3073 2775 2415 1479 1260 446 382 0 93 72
43 8 7 3 0 0 0 0 0 0 0 1 2 0 0 0 0 244 960 1052 1418 1698 1936 2359 2377 2566 2647 2642 2501 2637 2798 2872 2983 3274 3069 2810 2241 1201 1208 838 537 337 179 107
158 91 65 57 11 8 0 0 0 0 0 0 0 0 0 7 128 276 914 1117 1314 1679 1863 2291 2389 2668 2647 2643 2609 2701 2921 2963 3095 3183 2849 2361 1728 1361 1266 1127 871 556 387 261
359 252 191 2 2 1 0 0 0 0 0 0 0 0 18 125 69 296 949 1146 1283 1410 1773 1965 1907 2039 2160 2339 2546 2684 2899 2915 2959 2817 2548 2163 1985 1343 1038 1115 1122 888 503 337
274 342 185 64 123 21 4 0 0 0 0 0 0 5 347 231 220 544 1037 1363 1377 1339 1576 1802 1538 1781 1916 2062 2289 2463 2655 2714 2644 2413 2201 1694 1541 1475 1393 1102 1013 853 749 643
333 234 182 494 385 275 318 62 0 0 0 0 0 64 0 385 146 295 814 1029 1181 1094 1365 1348 1319 1474 1778 1914 2244 2473 2615 2652 2549 2247 2207 1897 1691 1709 1467 1184 866 677 755 734
331 365 295 526 276 459 395 44 11 0 21 19 112 357 553 395 446 631 996 1176 1267 1210 1127 1351 1325 1546 1714 1903 2145 2341 2554 2650 2370 2147 2211 2352 1967 1726 1517 1079 987 1020 838 863
450 507 424 217 491 617 688 542 486 369 395 436 549 783 901 894 1099 1214 1131 976 910 1408 1750 1743 1782 2053 2280 2385 2544 2670 2714 2558 2084 2028 1777 1869 1799 1326 1048 1137 1202 990 1464 1482
431 348 376 229 265 443 624 686 630 663 626 685 679 759 862 905 839 913 875 864 1007 1544 1943 2141 2347 2390 2625 3092 2726 2676 2128 2074 1874 1913 1444 1222 1281 1139 906 1178 1041 1078 1299 1180
686 404 182 165 177 350 544 628 567 553 507 530 499 534 593 705 899 1199 1337 1213 1245 1447 1878 2344 2389 2450 2750 2147 2234 2377 2121 2087 1644 1388 1497 1260 1115 1131 1199 1155 1033 1687 1391 801
413 290 134 95 98 54 119 328 449 459 468 579 945 1014 1328 1397 1330 1340 1435 1347 1280 1470 2065 2282 2262 2258 2062 1973 1846 1834 1726 1733 1617 1591 1144 1314 1158 976 965 628 386 547 457 273
231 255 157 0 7 2 4 34 67 137 160 181 322 470 837 1273 1653 1687 1863 1889 1978 2016 2291 2359 2322 2236 2175 1815 1985 1854 1616 1384 1333 1402 1430 1328 740 480 235 130 16 6 40 226
271 67 103 25 14 16 11 8 0 16 78 96 83 54 20 105 142 229 934 1363 2183 1949 2067 2069 2156 2130 2056 1995 1768 1597 1448 1375 1172 768 823 894 823 474 152 0 14 0 0 42
2 10 20 25 34 1 12 0 0 0 0 0 0 33 19 24 23 16 56 414 884 2004 1878 1879 1788 1845 1754 1510 1632 1513 1150 450 759 747 752 578 547 564 539 399 154 0 26 31
33 9 24 29 2 0 0 0 2 0 0 0 0 0 0 0 0 0 0 0 152 521 1540 1823 1684 1561 1325 1157 1033 709 260 312 464 311 181 87 196 236 358 360 245 144 33 35
29 16 0 17 2 5 24 3 9 0 0 0 0 0 0 0 0 0 0 0 0 142 728 1400 1702 1354 1109 550 206 142 139 0 36 181 358 431 564 490 455 393 377 320 100 38
0 17 5 0 0 12 27 0 0 0 0 0 0 0 0 0 0 0 0 3 243 388 654 1313 1364 1198 718 361 271 244 232 312 147 465 445 404 302 230 236 291 328 246 245 106
12 0 0 0 2 1 0 6 8 8 1 0 0 0 0 0 0 14 96 265 540 750 965 1225 1225 1002 756 646 400 364 343 219 147 99 169 186 199 253 308 292 237 239 195 10
0 0 1 0 0 0 0 0 0 0 0 0 0 0 3 3 11 99 108 86 364 456 443 735 596 615 818 416 330 161 145 110 234 311 308 164 268 334 365 353 362 237 299 194
0 2 0 0 0 0 0 1 0 0 8 14 11 12 15 15 38 69 259 240 296 355 330 155 368 244 204 35 15 89 177 200 176 149 109 114 131 254 330 147 294 325 235 154
0 0 0 1 0 3 12 5 11 15 29 29 35 35 36 40 45 51 64 85 171 89 177 61 267 320 159 45 58 100 99 98 95 91 74 79 163 125 101 73 61 76 49 29
11 15 10 8 8 7 29 51 42 49 72 76 70 68 43 27 75 114 96 61 130 25 154 171 118 7 9 0 16 1 1 0 0 0 0 1 1 6 9 11 11 17 26 33
27 30 14 12 30 30 27 29 53 95 111 101 101 56 23 23 18 53 102 77 151 45 142 101 0 0 0 0 0 0 0 0 0 0 0 0 0 0 2 4 6 3 4 6
116 74 100 43 24 31 32 29 20 35 61 67 52 64 3 1 31 25 56 13 0 13 71 21 0 0 0 8 1 4 4 1 0 0 0 0 0 0 0 3 8 9 8 1
140 72 59 53 17 13 16 24 17 8 15 65 45 29 20 21 13 19 40 47 9 35 159 31 9 1 3 35 49 30 40 35 29 18 14 11 6 1 0 1 12 17 16 9
4 16 20 17 16 17 16 25 32 32 11 30 35 43 35 32 36 20 33 10 16 23 17 104 171 84 98 83 68 70 58 50 34 25 4 10 12 5 1 0 0 0 2 1
0 0 0 0 0 0 0 3 4 16 7 3 6 30 14 12 10 1 0 22 42 50 59 66 69 61 66 59 58 65 57 51 22 24 27 22 17 11 3 0 0 0 0 1

GFSNGP_con_mucape_009.txt.gz
CAPE
0 1 9 2 0 0 0 0 0 0 46 51 168 105 43 21 3 0 13 626 923 1210 2428 2792 2693 2774 2574 2070 2250 1988 2876 2907 3585 4381 4294 4316 4285 4631 4406 4157 3669 2501 2123 1427
1 0 0 2 4 1 0 0 0 0 0 28 44 102 64 2 6 0 0 49 1021 1389 1749 2932 3147 3510 3239 3038 3053 2867 3675 3580 4106 4720 4588 4581 4622 4695 4222 3631 3065 2265 1224 721
85 40 67 77 0 0 2 2 0 0 0 0 23 89 124 23 4 8 26 87 857 1352 1818 2549 2382 3453 3589 3770 3369 3641 4179 4500 4617 4993 4914 4916 4580 4139 3554 2716 2492 1810 986 615
91 320 193 0 18 35 28 21 17 10 1 0 16 55 32 22 2 117 286 211 435 1160 1896 2826 2354 2437 3151 3215 4225 4449 4621 4545 4804 4955 4924 4791 4212 3573 2786 2433 2257 1519 1049 925
357 414 243 138 329 416 370 62 12 35 6 0 0 0 10 3 0 0 106 175 624 1402 1910 3405 2974 3589 3800 3319 3849 3811 3845 4229 4402 4258 4152 3910 3305 3020 2480 2170 1978 1059 1167 973
495 298 382 287 454 502 363 149 7 26 33 2 5 29 11 15 40 420 494 156 1158 1656 2153 2699 3267 2756 3159 2927 3190 3384 3607 3637 4029 4083 3732 3242 3071 2962 2519 2472 1851 1196 1000 1076
183 348 266 803 431 570 329 357 1104 837 552 223 21 64 225 182 132 531 615 1345 1880 2111 2970 3269 3167 2584 3278 3055 2813 2740 2939 3027 3381 3270 3388 3170 2751 2881 2527 2297 1782 1440 1053 1435
232 217 254 674 648 611 1205 1033 1090 1057 880 927 90 92 693 725 822 935 1218 1637 1759 2364 2710 2618 2911 3088 3299 3451 3609 3832 3647 3344 3322 3088 2798 2659 2586 2516 2258 1997 1630 1561 1840 1832
242 529 1269 917 791 908 905 1046 1033 1055 993 843 610 932 1103 1363 1703 1789 1750 1830 1731 1727 2590 2431 3105 3286 3675 4382 4112 3879 3706 3494 3119 2731 2481 2416 2725 2134 1464 1389 1184 1427 1098 1689
1086 925 794 910 831 926 1068 1047 1003 1098 1134 1137 1166 1266 1415 1558 1409 1256 1223 1696 1531 1751 2361 2769 3159 2903 3590 3411 3365 3356 2908 2548 2397 2642 2096 1676 1639 1271 1069 1246 1206 1523 1493 1509
1159 868 831 677 699 769 1002 1049 1048 1358 1564 1308 1482 1481 1516 1617 1526 1336 1362 1832 1960 1903 2183 2420 2677 2909 2583 2885 3062 2758 2934 2574 2465 1940 1608 1218 1050 1125 1137 1100 888 986 1202 1304
600 798 703 184 118 343 399 483 586 808 932 1188 1385 1403 1648 1561 1436 1393 1396 1541 2079 1920 2268 2558 2644 2649 2616 2567 2692 2441 2324 2078 1756 1523 1276 1142 1010 955 724 580 438 335 70 106
323 314 48 0 32 99 61 16 2 25 73 104 94 266 282 447 668 850 1522 1514 1664 1885 2234 2516 2576 2651 2352 2501 2518 2442 1893 1851 1399 1275 1411 1560 1057 975 568 221 0 0 0 0
99 2 0 0 10 9 3 0 0 0 0 6 15 16 29 50 51 198 740 1255 1966 1872 2221 2122 2154 2490 2432 2213 2651 2130 1739 1017 1258 1018 865 909 893 695 449 245 57 2 0 0
21 77 33 22 29 21 10 3 5 0 0 2 16 22 41 45 60 51 23 72 493 1577 1747 1706 2018 1852 1846 2055 2045 1932 1505 950 992 893 779 457 392 381 418 406 333 18 0 4
33 44 48 50 29 30 0 0 0 0 0 0 0 2 1 0 1 0 1 0 6 279 958 1549 1884 1696 1588 1657 1575 970 434 352 524 528 285 189 230 195 247 284 216 69 22 4
53 20 2 0 6 7 0 0 0 0 0 0 0 0 0 0 0 21 19 10 11 17 202 810 1814 1565 1489 969 683 372 151 152 34 319 281 268 335 304 244 223 203 206 195 37
1 0 0 0 0 0 0 0 0 0 0 0 0 0 2 10 17 110 4 15 65 269 304 1393 1502 1734 1212 778 627 313 248 299 142 296 192 229 192 158 152 147 150 233 65 46
4 0 0 0 90 64 35 39 17 12 0 0 5 21 28 31 38 41 60 56 102 210 640 974 845 843 954 745 353 270 122 97 88 89 212 100 151 262 199 325 228 273 51 51
0 5 12 23 48 65 50 36 20 42 50 52 47 61 48 47 60 76 156 340 579 540 791 479 567 690 710 250 29 210 302 118 185 247 416 209 178 277 155 76 185 223 158 140
28 12 10 19 20 53 42 49 32 79 40 54 39 50 46 54 54 169 183 112 223 181 257 157 292 174 169 41 62 111 114 100 136 126 119 123 113 90 98 134 80 66 121 111
20 11 10 22 32 34 49 31 66 101 89 96 59 49 111 47 209 86 123 157 125 50 115 167 83 44 53 21 112 85 66 45 41 42 27 17 20 29 40 60 66 59 88 170
22 27 26 30 45 48 35 29 13 46 84 65 41 18 18 46 65 147 192 116 145 63 59 29 14 0 0 11 44 34 27 2 1 1 0 0 0 0 2 3 8 13 14 9
66 65 88 51 34 39 24 6 27 6 18 80 1 2 0 20 41 46 63 10 2 0 25 9 0 0 0 20 19 22 22 12 7 2 3 0 0 0 0 0 0 7 7 0
76 152 163 101 54 43 56 46 83 41 83 173 121 93 63 42 23 17 16 39 0 0 63 9 0 0 0 1 42 30 21 36 39 37 23 13 7 6 3 0 0 5 11 13
49 51 44 33 46 43 32 44 49 48 33 47 50 61 53 48 48 38 131 37 38 31 12 174 99 46 39 33 47 61 64 61 53 43 25 17 7 12 14 6 3 1 2 2
7 0 12 7 2 1 0 0 5 8 24 13 2 12 48 61 58 27 20 48 56 56 47 55 74 116 60 84 77 61 47 67 37 39 30 36 36 37 30 26 13 4 0 1

GFSNGP_con_mucape_012.txt.gz
CAPE
0 0 0 0 0 0 0 0 0 0 0 27 199 379 111 282 272 155 604 1038 1178 1478 1963 1615 1734 1696 1632 1766 1843 2013 2768 3137 3447 3815 3728 3800 3767 4122 4015 3951 3870 3494 2930 2296
0 0 0 0 10 0 0 0 0 0 0 0 8 111 242 209 88 276 259 366 1322 1700 3064 3160 2180 1945 1717 1679 1706 1895 2238 2663 3077 3585 3951 3777 3976 3921 4231 4165 4220 3741 3141 2232
0 0 1 42 0 3 3 0 0 0 0 0 14 96 415 649 472 408 339 297 1413 1927 2156 2871 2881 2422 1949 1805 1977 1916 2565 2726 2918 3542 3947 4053 3976 4032 4279 4297 4194 3698 3328 2319
0 68 90 0 1 0 0 0 0 0 0 0 0 4 16 15 212 242 308 219 336 852 2102 2631 2877 2626 2659 2363 2573 2495 3667 3264 3485 4112 4296 4220 4221 4249 4432 4360 3985 3478 2717 2576
106 32 5 23 39 154 63 5 12 0 22 6 3 0 5 0 3 21 40 780 464 86 1889 2696 2942 2917 3407 3012 2748 3794 3365 4630 4128 5033 4793 4762 4742 4681 4495 3799 3069 3033 2637 2170
124 73 113 223 191 455 242 211 496 584 263 103 125 60 0 16 14 4 9 122 549 331 2303 3358 3354 3200 3366 3692 3440 3233 4295 4442 5008 5021 4950 4888 4790 4364 3421 3431 3192 2731 1723 2080
95 40 0 388 388 134 147 287 1039 907 856 714 551 806 966 527 1617 649 132 382 1574 3051 2911 3519 3615 3516 3660 3819 3989 4020 4533 4546 4828 4917 4957 4833 4538 3296 3039 3335 2622 1701 1985 1573
369 336 202 454 205 155 1077 865 774 683 652 743 1105 922 905 1172 1328 1640 843 918 3037 3569 4082 4067 3948 4029 4174 4245 4439 4556 4489 4465 4626 4686 3833 3788 3384 2730 2749 2373 1953 1661 1647 1148
40 34 715 1114 1253 1018 925 883 934 828 723 702 666 826 787 1434 1023 1234 1143 2930 2691 3753 4123 4124 4552 4039 4149 4397 4092 4013 4029 4257 4217 3890 3473 3131 2771 2701 2439 2267 1829 1520 1664 1611
146 489 1068 821 624 819 876 1126 1212 1906 2036 1322 808 922 1324 1702 2099 2674 2767 3062 3123 3084 3414 3680 3859 4085 4327 4345 4222 4134 4104 3715 3270 2641 2544 2577 2375 2213 1847 1687 1499 1624 1814 2157
242 1460 1142 1038 1101 1077 1159 1617 1771 1513 1461 1784 1884 1973 2005 2647 2846 2755 2736 2821 3006 3139 3594 3959 4403 4034 4060 4243 4026 3253 2891 2647 2313 1882 2150 2111 2017 1482 1404 1078 1062 1901 1964 1693
1066 769 1275 612 697 689 648 754 860 1061 1195 1158 1138 1074 1196 1900 2191 2464 2607 2497 2641 3122 3432 3445 3496 3587 3788 3882 3263 3053 2608 2247 1834 1952 2124 1700 1356 947 930 993 856 638 670 796
63 48 128 91 76 111 228 288 283 523 527 273 455 532 566 642 1171 1455 1672 2167 2831 3196 3323 3221 3208 3042 3310 3654 3418 2843 2372 2310 1941 1636 1622 1170 810 675 544 464 414 412 348 2
10 13 0 0 6 0 16 105 138 174 123 55 27 120 12 177 712 955 1976 2143 2715 3000 3085 3107 2692 2627 2749 2877 3125 3319 2734 1977 1845 1699 1765 1694 1543 1121 899 447 304 0 0 0
2 0 39 20 42 2 0 0 0 0 0 0 0 0 0 0 34 182 389 1803 2179 2307 2457 2847 2781 2826 2788 2742 3000 2405 2170 1550 1226 1707 1712 1437 1285 1201 636 290 144 0 0 0
60 47 29 44 57 3 1 2 0 0 0 0 0 0 0 1 7 23 111 464 1396 2018 2524 2179 2226 2386 2221 2219 2421 2260 2043 933 1027 1279 681 883 707 624 606 659 86 41 26 0
49 48 69 35 30 19 14 24 25 5 10 4 0 0 1 23 50 265 390 296 790 1151 1648 1896 2231 2365 2168 1987 2198 1258 611 883 563 912 482 476 364 319 305 297 242 114 52 13
106 116 58 23 35 2 8 2 3 0 0 0 0 55 42 22 69 192 721 511 458 1446 1469 1828 1740 2087 1411 1193 1102 967 231 373 262 286 432 528 645 479 294 163 195 259 192 54
19 22 1 3 0 0 0 0 0 21 46 54 0 0 107 107 54 429 121 265 513 703 1115 1526 769 941 1327 706 491 707 296 101 100 119 101 72 78 178 277 336 35 38 69 27
3 0 30 11 17 37 22 14 46 43 64 104 175 151 230 123 236 407 681 671 835 443 625 768 1065 858 897 947 275 114 169 111 130 182 206 140 132 238 103 70 94 60 52 29
29 27 68 100 15 45 78 80 135 116 167 184 172 128 214 191 211 237 323 404 331 287 373 135 720 306 219 109 57 76 69 132 63 127 139 46 66 125 105 138 107 161 109 87
65 55 55 45 15 61 60 48 87 191 161 215 148 143 216 224 261 146 249 194 147 25 1 39 34 46 30 44 96 82 62 65 27 5 45 50 1 40 98 60 58 105 127 172
102 146 122 143 96 99 53 89 89 150 204 191 161 155 84 78 89 87 304 3 21 0 9 19 15 13 11 39 63 38 14 12 1 1 0 0 0 0 0 0 2 65 100 80
173 173 119 170 94 156 223 91 43 110 87 64 59 50 145 19 84 66 37 0 0 21 3 9 44 5 0 1 25 22 25 11 1 0 2 0 0 0 0 0 0 1 14 5
75 241 114 124 38 14 113 120 38 35 122 167 68 109 110 55 110 26 27 27 0 47 65 16 1 0 0 2 2 25 35 24 26 35 43 31 1 2 12 3 2 6 8 12
80 42 57 102 14 0 0 0 1 23 13 35 28 12 33 92 62 60 128 59 54 22 24 122 57 12 19 16 11 33 74 39 52 46 35 43 21 5 2 23 4 0 5 0
17 0 7 0 0 0 0 0 0 0 0 0 0 0 5 35 44 13 11 37 21 23 30 126 103 58 51 35 61 41 50 72 46 11 20 36 39 63 40 46 59 38 6 0

GFSNGP_con_mucape_015.txt.gz
CAPE
0 0 0 0 0 0 0 0 0 0 0 0 0 82 63 63 58 14 9 65 303 670 561 988 1342 1399 1460 1761 2007 2965 3191 3285 3087 3075 3084 3147 3072 3158 2641 2671 3075 2678 2309 1908
0 0 0 0 0 0 0 0 0 0 0 0 0 33 272 171 97 13 3 530 723 790 686 746 1035 1286 1502 1664 1974 2327 2939 3061 2990 2960 3067 3125 3226 3186 3366 3046 2947 2996 2653 2287
0 0 0 0 0 0 0 0 0 0 0 0 0 0 0 124 209 37 14 416 557 739 817 738 852 1050 1337 1664 1773 2084 2498 2853 2881 2803 3023 3066 3174 3145 3371 3483 3325 3399 3222 2934
0 0 0 0 0 0 0 0 0 0 0 0 0 0 0 2 1 66 7 90 559 805 2051 1140 1140 1043 1311 1486 1802 1925 2051 2598 2705 2821 2811 3153 3178 3297 3218 3589 3499 3549 3400 3257
0 0 0 0 0 0 0 0 0 60 2 0 0 0 0 0 0 0 0 41 0 762 1082 2380 1558 1296 1228 1312 1616 1734 1773 1967 2427 2580 2925 3109 3347 3298 3394 3526 3664 3500 3312 3009
0 0 0 0 0 343 212 52 769 550 486 373 135 1 0 257 225 0 0 0 0 0 652 1561 2334 1880 1510 1337 1474 1461 1466 1995 2215 2387 2894 3346 3423 3429 3670 3698 3570 3367 3418 3232
0 0 0 0 103 221 130 379 766 570 490 494 446 465 401 456 455 963 691 24 0 211 1332 1661 2226 2327 2098 1759 1512 1996 1467 3575 2811 3391 3826 3703 3890 3920 3815 3238 3314 3206 3150 2802
83 5 0 443 368 187 521 894 488 365 330 391 456 333 494 391 403 732 700 1853 302 1488 1616 2296 2433 2709 2760 2329 2466 2825 3769 4114 4422 4456 4349 4281 4149 3614 3139 3142 2746 2789 2115 1455
23 174 757 627 645 385 94 645 902 1584 2073 1271 1110 1314 742 1261 796 757 2787 3312 3467 3269 3436 3553 3100 3127 3477 3877 3773 3769 3939 4100 4245 4350 4325 4241 3785 2807 2818 2628 1835 1677 1521 1327
179 53 124 180 195 499 1400 1079 1362 1519 1461 1357 1438 1870 2289 2154 2181 2586 2840 2994 3112 3350 3569 3583 3653 3690 3742 3677 3680 3681 3712 3748 3726 3668 3622 3181 2869 2662 2243 1715 1529 1336 1321 979
153 169 721 732 842 903 917 673 591 1326 1411 1563 1517 1678 1917 2329 2434 2435 2632 2719 2793 3118 3326 3380 3439 3407 3363 3429 3458 3475 3401 3321 3298 3172 2991 2375 1833 1758 1695 1446 1163 1073 1162 1127
160 52 416 453 330 263 558 656 697 999 1268 1336 1389 1465 1713 1720 1587 1135 1317 2489 3198 3275 3353 3372 3352 3354 3335 3153 3145 2929 2767 2707 2702 2483 2112 1816 1795 1646 1390 1242 913 1024 1271 796
50 112 279 223 64 38 121 222 363 623 747 965 881 829 777 839 856 593 43 490 2742 3010 3063 3171 3065 3032 2761 2630 2647 2689 2602 2404 2030 1781 1572 1468 1414 1607 1024 916 817 853 830 714
58 112 76 58 38 20 20 0 0 0 87 208 306 322 408 280 193 84 23 268 1695 2110 2320 2348 2444 2664 2829 2296 2138 2131 1891 1760 1642 1570 1510 1484 1241 1031 885 882 826 503 406 313
63 45 42 30 16 3 18 6 2 0 0 0 0 34 83 162 70 47 191 510 1713 2231 2321 2142 2062 2189 2524 2482 2617 2036 1847 1736 1515 1313 1030 966 887 753 532 493 369 75 13 0
2 1 13 2 0 1 0 0 0 0 0 0 0 0 0 0 20 29 357 816 1016 1709 2234 2288 2211 2189 2258 2167 2139 1983 1907 1719 1606 1600 1496 1270 1031 861 653 251 261 72 2 0
2 4 31 44 31 34 47 49 9 1 0 0 0 0 0 0 0 92 139 675 897 1220 1195 1563 1956 1599 1633 1585 1549 1267 1223 1026 911 714 1384 1156 1046 673 614 395 120 70 58 0
0 21 35 18 8 24 35 22 7 2 4 0 0 2 0 0 2 0 26 283 651 430 664 797 702 723 1083 1090 1033 787 355 419 672 564 485 492 204 26 24 155 212 164 50 27
23 8 17 3 0 0 0 4 16 14 13 8 0 0 8 15 36 10 9 125 14 148 526 290 504 510 573 530 609 334 253 296 363 367 230 193 104 63 39 49 50 41 53 73
0 0 33 40 42 27 35 21 18 20 9 10 0 0 0 28 65 59 68 38 46 154 345 144 341 486 527 415 151 98 70 80 99 101 137 109 68 62 48 54 27 34 58 59
65 0 21 34 19 2 30 42 48 31 80 62 33 52 84 109 84 88 110 76 82 82 44 76 138 155 156 151 88 121 100 29 33 89 105 80 59 45 39 32 25 48 21 24
29 20 17 55 60 25 39 49 99 71 102 81 72 77 65 96 80 56 54 19 29 54 102 101 113 111 76 91 99 73 53 65 43 35 43 34 10 4 24 59 57 104 78 46
61 182 157 105 100 80 97 61 40 87 36 62 15 24 111 92 87 39 10 3 3 2 33 102 42 79 7 46 59 51 53 8 0 6 0 12 4 1 0 3 6 16 47 40
41 32 155 14 79 135 27 24 22 151 137 111 74 70 40 64 109 32 14 0 0 35 2 6 43 46 13 34 41 20 5 25 11 0 0 0 0 0 0 0 2 17 12 12
154 11 14 14 3 0 5 5 2 1 9 5 20 18 23 21 28 14 35 25 10 68 79 35 5 0 0 13 73 58 18 9 4 9 9 7 1 3 0 0 0 0 0 0
2 0 0 0 0 0 0 0 0 0 0 0 2 10 2 0 3 17 18 17 22 21 58 122 46 23 6 0 1 4 9 11 17 5 13 22 24 9 3 4 1 0 0 0
0 0 0 0 0 0 0 0 0 0 0 0 0 0 0 6 0 4 7 14 3 24 10 7 3 3 27 39 19 48 24 26 9 36 25 33 35 36 14 1 0 1 10 3

GFSNGP_con_mucape_018.txt.gz
CAPE
0 0 0 0 0 0 0 0 0 0 0 0 0 0 0 0 11 152 114 45 46 15 203 427 812 882 1177 1567 1963 2309 2442 2596 2449 2553 2640 2590 2523 2271 2019 2012 1990 2038 1646 1591
0 0 0 0 0 0 0 0 0 0 0 0 0 0 0 0 0 15 103 86 4 77 277 345 822 1001 1095 1437 2207 2380 2614 2666 2770 2709 2648 2656 2783 2720 2453 2177 2426 2359 2158 1921
0 0 0 0 0 0 0 0 0 0 0 0 0 0 0 0 0 0 60 7 2 217 299 491 845 1044 1105 1507 2044 2606 2683 2879 2919 2879 2809 2744 2725 2813 2910 2772 2539 2668 2884 3031
0 0 0 0 0 0 0 0 0 0 0 0 0 0 0 0 0 0 21 9 164 354 461 680 873 1108 1199 1404 1820 2533 2698 2852 3045 2925 2864 2822 2857 2903 2893 3008 2965 2823 2640 2797
0 0 0 0 0 0 0 0 0 0 0 0 0 0 0 0 0 0 0 0 6 602 506 604 857 1139 1242 1376 1765 1975 2500 2686 2896 2872 2764 2844 2822 2927 2958 3053 3136 3143 3200 3163
0 0 0 0 0 1 0 0 189 0 0 0 0 0 0 0 2 0 0 0 37 256 1085 800 829 861 1114 1326 1596 1861 2062 2461 2717 2749 2702 2767 2875 2892 2959 3038 3118 3228 3346 3391
0 0 0 0 0 40 8 0 231 73 5 0 0 0 56 203 28 400 0 0 0 0 581 1517 978 794 871 1072 1346 1652 1942 2042 2426 2654 2668 2674 2902 2956 3075 3070 3197 3232 3330 3397
35 18 13 25 42 0 31 655 194 62 23 0 0 0 0 76 101 576 487 374 0 0 0 238 1482 1234 1037 977 1098 1432 1630 1787 1898 2391 2474 2680 2998 3087 3127 3177 3225 3115 2721 2740
42 4 381 61 1059 715 1260 1272 1162 910 743 918 1347 1858 1984 2293 1990 722 1646 1947 2052 239 0 37 961 1465 1257 1209 1163 1313 1432 1687 1857 2087 2588 2987 3037 3118 3184 3209 2905 2476 2282 2315
3 39 810 259 1146 874 1041 1013 969 861 894 1049 1487 1993 2112 2219 2394 2530 2687 2896 2986 2814 2461 2418 1908 1850 1549 1514 1931 1995 2236 3191 3216 2965 2918 3013 3035 2992 3098 2980 2647 2415 2147 1299
118 6 378 618 524 614 628 631 618 1036 1094 1278 1704 2066 2073 2046 2059 2131 2392 2754 3107 3301 3204 3040 3118 3076 3001 2524 3235 3165 2996 2832 2959 2928 3067 3110 3143 3109 2467 2281 2068 1745 1180 937
81 70 115 340 439 387 285 104 212 383 900 1281 1543 1730 1917 1771 1588 1465 1444 1583 1916 1994 2461 2352 2838 3110 3245 2963 2725 2954 3157 2857 2695 3255 3158 3074 2359 1370 1272 1173 1268 970 848 876
113 114 125 75 17 95 137 328 100 129 60 523 969 1135 1242 1182 1091 1088 1059 871 613 876 673 475 965 952 3342 3135 2979 3063 2853 2885 2722 2242 1417 1238 1284 1211 1043 821 711 948 989 991
179 48 40 29 51 15 34 34 39 51 182 184 249 572 719 527 442 443 415 573 577 330 6 1 12 0 2530 2944 2530 2470 1975 1033 2020 1549 1063 1033 1173 1072 838 711 610 848 819 601
76 92 47 31 43 22 23 26 55 43 20 22 6 19 70 134 281 340 418 465 574 605 197 218 751 978 1358 1767 1729 1602 1541 1513 1528 1396 1228 1287 1221 1085 726 416 550 527 593 263
59 67 54 38 9 22 5 7 47 43 10 1 0 0 0 60 156 563 607 749 707 798 667 663 716 911 1057 1235 1318 1336 1343 1364 1359 1245 1214 1182 971 721 642 604 581 394 270 131
5 23 12 32 4 0 0 0 0 0 0 0 0 0 16 27 10 288 380 536 546 804 821 767 928 930 840 1136 1366 1312 1314 1244 1101 977 924 825 643 472 286 304 205 118 16 7
0 8 7 3 0 9 18 0 3 12 19 10 3 0 6 0 0 0 177 111 50 125 117 117 87 272 359 355 455 681 791 936 704 1424 1244 804 740 587 523 259 140 73 5 0
0 0 0 0 3 6 2 7 43 17 12 17 24 4 0 0 0 0 0 0 0 0 65 106 151 130 76 16 113 118 204 328 364 625 915 855 666 593 505 473 308 104 76 44
0 0 65 34 56 29 29 28 11 41 2 11 21 5 0 1 0 3 2 0 0 7 0 1 2 11 0 45 94 72 166 124 177 277 249 162 163 48 54 175 212 147 88 51
73 27 39 67 46 46 33 38 55 44 39 61 82 52 36 27 33 12 15 10 1 3 27 7 2 0 0 1 7 4 17 17 29 69 64 66 49 65 44 94 103 102 66 49
54 72 53 11 22 23 34 11 25 21 11 19 39 63 70 43 17 11 18 37 42 54 91 97 94 54 20 1 0 31 54 28 56 71 56 56 56 42 37 26 17 53 35 28
5 2 2 4 4 7 16 22 22 12 15 15 1 31 68 56 9 4 2 0 0 0 19 32 13 13 23 38 24 38 24 27 38 47 57 64 30 23 26 39 46 46 53 67
2 0 0 0 2 2 0 2 18 10 19 22 16 31 36 1 32 13 0 1 17 13 1 12 27 15 27 20 34 22 26 30 2 3 0 1 0 0 0 0 0 3 10 22
11 8 6 3 0 0 1 8 0 10 17 10 23 28 19 14 16 3 0 0 2 4 19 4 0 0 9 21 37 20 10 19 9 11 7 0 0 0 0 0 0 0 0 3
0 0 0 0 0 0 0 0 0 0 0 0 12 22 7 11 16 31 23 14 7 0 4 32 20 5 0 0 15 40 33 32 6 2 1 2 15 7 3 1 5 0 0 0
0 0 0 0 0 0 0 0 0 0 0 0 0 0 0 1 6 13 18 21 19 17 6 2 22 11 0 0 6 13 22 56 38 16 18 19 18 19 28 23 0 4 3 0

GFSNGP_con_mucape_021.txt.gz
CAPE
0 0 0 0 0 0 0 0 0 0 0 0 0 0 0 0 0 0 0 48 77 67 245 215 203 302 515 884 1231 1281 1385 1581 1605 1654 1662 1606 1482 1362 1349 1423 1526 1542 1692 1697
0 0 0 0 0 0 0 0 0 0 0 0 0 0 0 0 0 0 0 2 96 154 227 141 69 282 500 937 1262 1539 1575 1710 1751 1874 1912 1916 1887 1767 1627 1523 1531 1556 1535 1605
0 0 0 0 0 0 0 0 0 0 0 0 0 0 0 0 0 0 0 0 30 184 322 317 144 318 533 929 1187 1798 1834 1857 1889 1879 2069 2136 2092 2067 1975 1866 1755 1726 1732 1696
0 0 0 0 0 0 0 0 0 0 0 0 0 0 0 0 0 0 0 0 0 43 62 90 149 434 637 919 1273 1709 1972 2029 2149 2104 2072 2198 2263 2279 2217 2087 2017 1944 1921 1879
0 0 0 0 0 0 0 0 0 0 0 0 0 0 0 0 0 0 0 0 0 0 87 65 261 581 869 987 1220 1809 2029 2163 2287 2441 2347 2268 2304 2344 2400 2311 2227 2221 2109 2158
0 0 0 0 0 0 0 0 0 0 0 0 0 0 0 0 0 0 0 0 0 0 7 154 392 690 995 1072 1322 1825 2165 2278 2453 2550 2538 2467 2408 2381 2385 2475 2424 2393 2463 2465
0 0 0 0 0 1 0 0 0 0 0 0 0 0 0 0 0 0 0 0 0 0 220 344 535 923 1132 1162 1239 1550 2097 2366 2428 2641 2629 2551 2488 2457 2551 2568 2689 2690 2605 2644
0 0 0 15 75 132 46 15 0 0 0 0 0 162 184 434 162 938 1783 2098 2032 116 0 574 587 880 1096 1203 1275 1405 1651 2005 2314 2463 2678 2538 2549 2582 2690 2714 2941 2920 3271 3045
0 0 86 107 288 817 620 599 418 242 389 886 1265 1368 1392 1289 1057 1347 1876 2194 2297 2401 2161 549 42 844 840 1133 1285 1385 1464 1671 1886 2334 2527 2546 2560 2600 2666 2734 2940 3102 3165 3014
113 95 146 192 716 723 762 590 591 668 924 1129 1370 1312 1470 1748 1856 1833 1867 1928 2433 2486 1945 1958 2325 1583 1066 1117 1009 1195 1456 1527 1661 2061 2380 2495 2556 2662 2724 2807 2886 2829 2783 2915
125 93 252 240 262 522 613 884 975 1185 1450 1402 1484 1339 1171 1194 1327 1655 1951 1906 1810 1720 2318 2621 2509 2505 2384 1986 1470 1100 1175 1363 1492 1791 2235 2556 2665 2704 2674 2583 2328 2284 2145 1842
145 19 45 88 185 270 486 491 799 1113 1406 1602 1675 1604 1524 1353 1240 1152 1050 1060 1125 1192 1339 1182 1555 2077 1916 2695 2444 1651 1421 1769 1983 2069 2317 2504 2520 2646 2212 1872 1696 1164 1139 537
80 24 0 6 36 67 223 180 351 252 472 789 767 808 981 1193 912 574 546 582 546 543 550 540 508 926 1083 1041 2358 2621 2367 2211 2147 1953 2320 2377 2374 1966 1112 737 665 2 238 487
152 2 0 24 32 87 232 105 163 171 206 137 83 207 238 186 153 213 358 365 341 130 0 344 178 421 412 208 773 2526 2405 1983 1926 1990 1884 1975 954 446 48 2 50 486 372 409
289 109 41 64 68 140 225 24 16 5 8 31 62 251 556 453 411 485 404 359 314 333 312 217 260 184 73 17 88 635 1397 1655 1264 1222 280 301 221 235 113 1 88 360 286 235
130 63 67 66 95 58 52 149 45 0 0 5 2 2 59 515 498 424 362 335 236 338 382 332 301 451 305 160 0 13 89 206 304 65 0 29 100 37 168 288 356 415 391 328
181 102 15 32 34 2 2 0 0 0 0 0 0 0 0 43 280 222 133 258 101 45 132 105 204 324 325 183 114 4 62 479 469 410 293 575 599 591 396 425 496 430 254 155
29 0 0 3 24 0 0 0 0 0 0 0 0 0 0 0 0 69 65 7 10 16 0 0 49 146 103 500 679 593 690 895 863 833 747 716 510 365 241 245 318 327 157 22
16 24 33 30 18 11 5 3 3 3 0 0 0 0 0 0 0 0 0 0 0 1 0 6 1 20 43 31 240 416 412 743 694 692 560 386 303 322 289 257 230 57 26 28
0 0 0 2 1 0 3 1 10 3 3 5 5 0 3 2 5 11 1 0 0 0 0 0 0 4 27 14 24 124 180 271 424 700 606 508 360 360 271 178 120 85 64 32
23 23 15 34 38 33 24 15 12 14 43 43 23 14 6 23 14 14 11 0 0 1 1 3 0 0 0 3 15 0 63 2 1 54 241 317 293 112 61 109 102 89 57 51
43 29 5 26 13 6 2 15 14 1 28 26 15 4 8 11 2 0 0 0 8 1 0 0 0 0 0 0 0 1 10 26 45 42 38 50 63 63 63 75 66 58 55 57
12 4 5 19 2 11 11 27 30 20 21 63 17 0 9 3 0 0 0 0 0 0 1 0 1 1 0 17 12 0 25 48 65 36 58 55 45 19 26 34 32 60 64 54
10 7 4 7 5 8 3 3 4 18 14 41 27 13 24 8 2 6 17 30 8 0 0 0 10 14 9 14 13 10 21 37 24 16 6 5 4 1 24 47 40 56 68 49
0 0 0 0 0 0 0 7 7 23 21 17 13 19 19 14 19 5 1 0 2 8 10 1 0 2 21 39 27 37 16 14 25 13 0 0 0 0 0 0 0 0 0 4
0 0 0 0 0 0 0 0 0 0 0 0 0 0 4 10 18 14 20 14 11 12 14 3 0 0 0 0 12 22 19 19 2 0 3 2 3 1 1 0 0 0 0 0
0 0 0 0 0 0 0 0 0 0 0 0 0 0 0 0 0 0 0 0 0 0 2 0 2 0 1 3 2 0 4 24 21 3 7 0 0 3 1 3 4 14 9 5

GFSNGP_con_mucape_024.txt.gz
CAPE
0 0 0 0 0 0 0 0 0 0 0 0 0 0 0 0 0 0 0 0 0 0 1 18 0 62 145 214 395 658 722 761 994 1055 1089 1138 1216 1174 1107 1043 1084 1151 1006 1162
0 0 0 0 0 0 0 0 0 0 0 0 0 0 0 0 0 0 0 0 0 0 14 131 101 181 272 348 611 778 922 940 1066 1204 1183 1151 1135 1281 1309 1306 1275 1245 1262 1098
0 0 0 0 0 0 0 0 0 0 0 0 0 0 0 0 0 0 0 0 0 0 25 141 249 310 414 476 735 933 1089 1177 1296 1399 1442 1418 1366 1244 1225 1238 1345 1397 1410 1335
0 0 0 0 0 0 0 0 0 0 0 0 0 0 0 0 0 0 0 0 0 0 0 56 325 401 447 442 843 1140 1217 1270 1475 1603 1666 1663 1675 1573 1458 1363 1296 1339 1405 1478
0 0 0 0 0 0 0 0 0 0 0 0 0 0 0 0 0 0 0 0 0 0 0 0 98 416 485 467 856 1194 1436 1420 1548 1739 1808 1838 1881 1877 1839 1723 1546 1516 1495 1569
0 0 0 0 0 0 0 0 0 0 0 0 0 0 0 0 0 0 0 0 0 0 0 0 0 17 297 542 862 1087 1584 1702 1759 1847 1829 1926 2035 2090 2060 2004 1841 1730 1656 1723
0 0 0 0 4 18 0 0 0 0 0 0 0 0 0 0 0 34 28 0 0 0 0 0 0 42 344 478 783 1118 1409 1793 1968 2067 2052 1964 2090 2276 2324 2350 2164 1870 1825 1813
0 0 0 28 42 86 0 0 0 19 0 0 0 71 218 439 940 1365 1688 1891 939 0 0 0 170 128 436 637 814 1030 1435 1775 1982 2202 2320 2323 2207 2286 2285 2439 2415 2140 1937 2372
0 0 0 140 140 74 51 51 188 36 188 174 415 377 194 400 843 1333 1752 1949 1686 1507 1625 1538 570 378 636 850 864 922 1202 1773 2148 2258 2445 2433 2469 2405 2407 2425 2434 2301 2259 3117
0 4 0 226 174 157 209 392 370 454 827 498 602 541 593 749 833 897 883 812 771 845 1384 1578 1708 2107 1853 1715 1519 892 1024 1398 1839 2339 2479 2614 2471 2483 2479 2477 2306 2452 2229 2702
0 0 148 152 105 238 294 545 858 965 832 889 975 999 941 977 841 726 700 655 628 597 585 499 417 405 395 844 1827 2469 1644 1030 1472 2023 2380 2574 2500 2379 2356 2470 2555 2551 2421 2368
5 0 115 85 99 287 334 576 769 903 847 862 796 716 634 517 439 432 337 328 385 395 236 58 16 20 38 89 228 2015 2566 2005 1520 1762 2168 2388 2394 2290 2490 2620 2601 2539 2306 1736
0 9 126 111 181 255 294 259 593 707 710 1001 1059 1065 804 661 479 392 359 56 0 0 25 0 15 15 3 5 0 1016 2349 2255 1658 1506 1759 2154 2164 1980 2189 2640 2575 2336 1775 1060
0 153 129 92 160 224 289 231 180 169 212 299 254 182 238 126 284 277 483 520 414 144 88 184 210 145 55 103 150 304 1871 1891 1536 1182 1264 1633 1626 1785 1656 1739 2034 1888 1183 482
119 97 168 114 55 34 95 81 137 159 392 435 401 409 429 392 351 303 286 282 272 195 118 151 200 250 271 167 119 285 429 884 1182 1237 1034 1052 1362 1750 1948 1833 1388 670 232 101
74 98 200 255 44 43 53 0 50 40 73 84 268 396 400 393 320 140 109 170 138 53 54 55 130 380 188 60 4 54 287 226 403 325 397 660 1099 1432 1573 975 180 27 0 148
91 24 155 61 25 0 0 0 2 22 0 0 0 61 256 407 196 206 175 86 21 26 2 0 0 308 197 78 11 0 0 91 13 0 43 60 169 120 32 0 4 0 0 327
55 13 80 14 18 0 23 19 12 0 0 0 0 0 0 0 47 36 33 2 0 0 0 0 0 8 101 171 59 4 10 8 1 1 2 20 14 0 0 0 0 69 200 326
31 40 12 18 0 0 1 13 2 0 0 0 0 0 0 0 0 0 0 0 0 0 0 0 0 0 0 0 20 76 56 38 79 101 178 221 233 158 42 67 66 219 286 144
17 21 6 19 18 10 10 0 3 24 10 5 5 2 2 3 1 0 0 0 0 0 0 0 1 8 4 14 16 25 80 172 180 136 163 220 196 199 247 346 276 213 214 255
17 12 2 1 5 40 46 16 10 0 0 0 1 1 1 8 0 1 3 2 0 0 0 0 0 0 0 0 3 11 31 77 112 127 145 111 112 128 110 57 46 56 99 93
8 9 0 0 18 31 32 63 17 12 19 24 1 0 30 5 4 5 1 1 1 9 10 1 0 5 9 2 3 3 17 46 51 34 37 68 50 25 33 47 52 73 87 57
3 13 8 36 20 21 14 7 23 52 28 27 41 10 7 11 13 7 0 0 0 0 7 4 1 0 24 26 13 39 56 58 53 44 42 54 64 41 38 35 33 34 45 35
0 0 0 4 29 20 6 6 4 0 4 19 21 26 29 29 13 4 5 8 0 0 0 0 0 0 5 9 11 36 55 42 48 42 34 30 23 36 57 60 54 42 42 43
0 0 0 0 0 0 0 0 0 2 0 2 0 0 4 14 16 6 2 2 1 0 0 0 0 0 0 17 7 29 24 26 18 18 16 3 0 6 3 1 2 16 28 37
0 0 0 0 0 0 0 0 0 0 0 0 0 0 0 0 0 0 0 1 5 2 0 0 0 0 0 0 1 0 10 19 9 6 4 0 1 3 5 4 0 0 0 0
0 0 0 0 0 0 0 0 0 0 0 0 0 0 0 0 0 0 0 0 0 0 0 0 0 0 0 0 0 0 0 2 10 7 1 0 0 0 9 1 0 0 2 0

GFSNGP_con_mucape_027.txt.gz
CAPE
0 0 0 0 0 0 0 0 0 0 0 0 0 0 0 0 0 0 0 0 1 134 726 991 1021 1132 1063 1137 1405 1441 1713 1769 2090 2239 2292 2302 2222 2225 2262 2374 2269 2396 2489 2587
0 0 0 0 0 0 0 0 0 0 0 0 0 0 0 0 0 0 0 0 0 353 424 633 1040 1128 1108 1207 1331 1613 1786 1720 1991 2390 2452 2398 2374 2354 2386 2385 2354 2488 2532 2589
0 0 0 0 0 0 0 0 0 0 0 0 0 0 0 0 0 0 0 0 0 196 461 658 652 1105 1047 1203 1204 1619 1861 1931 2051 2299 2461 2474 2435 2483 2427 2474 2417 2484 2466 2545
0 0 0 0 0 0 0 0 0 0 0 0 0 0 0 0 0 0 0 0 0 0 15 861 381 319 984 1226 1558 1723 1931 2138 2110 2112 2367 2458 2548 2539 2594 2571 2560 2567 2531 2539
0 0 0 0 0 0 0 0 0 0 0 0 0 0 0 0 0 0 0 0 0 0 0 606 738 883 1181 1389 1701 1909 2010 2208 2260 2182 2413 2536 2513 2543 2551 2623 2711 2733 2683 2713
0 0 0 0 0 0 0 0 0 0 0 0 0 0 0 0 0 0 0 0 0 0 0 1 496 389 991 1216 1632 2025 2154 2263 2308 2554 2591 2656 2715 2746 2690 2633 2676 2645 2802 2802
0 0 0 0 0 61 0 0 0 0 0 32 10 0 0 0 0 0 1 0 0 0 0 29 46 315 1289 1452 1793 2012 1858 2055 2617 2852 2908 2785 2529 2857 3106 2989 2901 2893 2855 2831
0 0 0 0 0 0 12 22 8 0 0 2 73 179 0 111 1190 2092 2130 1398 0 0 38 555 680 750 1564 2182 1998 2107 2249 2682 3203 3207 2873 2661 3042 2753 3285 2884 3136 3300 3133 2612
0 0 0 0 0 36 155 104 46 16 0 0 54 338 73 1098 1584 1881 2142 1809 1205 967 1232 1185 1337 1528 1788 1786 1796 2120 2588 3149 3340 3403 3381 3384 3446 3417 2740 2419 2513 2796 2429 2584
0 0 0 0 0 0 83 106 85 60 79 105 371 440 310 352 1110 1421 1374 1373 1128 1198 1408 1569 1506 1797 2035 2386 2404 2247 2781 3019 3282 3555 3636 3720 3382 3267 3028 2507 2344 2094 2338 2443
0 0 0 0 0 0 1 97 122 127 533 555 216 2 7 220 413 527 476 438 369 376 425 360 464 388 229 355 2150 3073 2368 2333 2714 2910 2988 3598 3652 3461 3060 2779 2748 2752 2975 2425
0 0 23 3 0 2 43 104 92 157 596 738 338 187 277 330 343 301 258 269 242 223 255 226 295 329 267 266 197 1056 1793 2111 2014 2155 2563 3125 3325 2747 2711 2606 2481 2322 2528 2470
0 0 1 24 14 123 145 102 150 252 627 715 714 583 504 333 335 63 58 65 181 552 740 849 753 688 675 629 407 488 724 1230 1692 1363 1966 3041 2529 2404 2344 2495 2500 2177 2137 2248
3 57 19 16 63 103 79 178 156 301 422 462 478 593 352 330 353 279 236 159 246 202 218 386 637 519 84 0 151 203 654 243 825 1407 2018 1763 1527 1640 1914 2063 2405 2146 2165 2073
5 0 114 177 219 96 56 151 193 137 206 264 271 247 188 162 140 154 162 98 41 21 65 293 506 210 2 20 321 426 362 68 154 269 546 707 892 888 1152 1515 1671 1486 1894 2174
0 0 10 141 61 129 180 223 416 451 428 398 260 111 64 45 88 134 108 55 9 7 43 185 230 164 173 23 26 101 129 0 8 4 140 397 666 767 734 719 667 797 1027 970
37 8 76 1 0 185 143 84 132 141 170 124 195 182 141 98 33 13 1 3 13 0 0 16 43 74 358 122 17 5 2 148 0 70 11 40 99 40 1 1 3 3 1 377
59 49 28 55 0 20 7 21 44 21 45 57 82 25 19 21 2 22 51 0 15 8 0 0 0 13 61 344 328 250 165 166 59 4 9 9 15 10 11 0 9 15 14 14
0 0 0 5 0 0 4 0 2 1 1 2 0 3 14 8 4 0 0 0 0 0 0 0 0 0 5 0 147 274 83 75 17 3 25 2 0 0 11 12 30 3 7 68
0 0 0 0 48 28 0 28 39 31 17 28 23 20 9 5 1 0 0 0 0 0 0 0 0 0 9 1 0 222 323 299 49 13 42 42 24 51 39 18 67 117 183 185
0 2 0 0 0 0 0 0 0 2 52 0 1 2 3 3 8 4 0 0 0 0 0 0 0 0 1 8 39 1 0 27 40 202 216 112 60 13 12 1 7 112 127 113
0 0 0 0 3 16 25 28 27 42 62 39 20 5 0 0 0 0 0 3 3 3 2 0 0 0 14 20 12 10 7 32 59 44 7 3 21 29 10 21 23 33 25 43
0 0 0 12 12 15 27 4 10 23 4 8 7 14 6 0 0 0 0 0 0 0 3 0 0 0 19 37 43 36 30 19 25 31 35 15 20 19 5 2 13 18 14 27
0 0 0 0 0 0 0 0 0 0 0 0 1 0 5 0 0 0 0 0 0 0 0 0 0 0 0 43 34 30 41 34 22 18 26 25 32 23 15 16 37 32 20 16
0 0 0 0 0 0 0 0 0 0 0 0 0 0 0 0 0 0 0 0 3 4 0 0 0 0 0 0 1 4 19 27 16 13 13 3 0 2 24 42 41 52 73 69
0 0 0 0 0 0 0 0 0 0 0 0 0 0 0 0 0 0 0 0 0 0 0 0 0 0 0 0 0 0 0 9 16 10 18 25 8 0 0 0 0 0 3 13
0 0 0 0 0 0 0 0 0 0 0 0 0 0 0 0 0 0 0 0 0 0 0 0 0 0 0 0 0 0 0 0 0 0 4 1 3 2 1 1 3 10 5 0

GFSNGP_con_mucape_030.txt.gz
CAPE
0 0 0 0 0 0 0 0 0 0 0 0 0 0 0 0 0 0 0 0 0 362 530 1037 1337 2004 2512 1820 2011 1880 2602 2324 3051 3466 3647 3655 3701 3699 3705 3909 3798 3987 3954 4050
0 0 0 0 0 0 0 0 0 0 0 0 0 0 0 0 0 0 0 0 0 0 199 714 1254 1624 1883 2635 2182 2057 2834 2840 3120 3641 3886 3808 3817 3804 3933 3892 3910 3974 3903 4053
0 0 0 0 0 0 0 0 0 0 0 0 0 0 0 0 0 0 0 0 0 0 17 594 1028 1367 1491 2454 2020 2485 2880 3204 3382 3754 3895 3949 3989 4034 3969 3915 3973 4032 3987 4011
0 0 0 0 0 0 0 0 0 0 0 0 0 0 0 0 0 0 0 0 0 0 0 82 437 123 1124 1361 2672 2860 3123 3304 3555 3732 3928 4155 4188 4113 4086 4041 3974 4092 4037 4095
0 0 0 0 0 0 0 0 0 0 0 0 0 0 0 0 0 0 0 0 0 0 0 0 0 155 359 1326 1876 2600 3156 3389 3557 3670 3410 3551 4120 4098 4067 3845 3665 3693 3554 4120
0 0 0 0 0 0 0 0 0 0 0 0 2 0 0 0 0 0 0 0 0 0 0 0 127 224 622 1151 1554 2588 3008 3277 3476 3786 3781 3705 4092 4230 4088 3938 3556 3107 3511 3910
0 0 0 0 0 16 0 60 8 0 0 2 229 117 145 78 64 2 0 0 0 0 0 37 419 644 1056 1290 1677 2423 2349 2415 3367 3875 4040 4038 4341 4302 4240 4067 3624 4045 3715 3696
0 0 0 0 0 0 6 5 1 2 0 0 11 80 423 606 662 218 69 669 1172 332 0 16 640 630 1193 2941 2489 2985 3083 3084 3874 3994 3208 3073 4433 4496 4176 4167 4127 3978 3379 3552
0 0 0 0 0 0 0 0 0 1 3 0 12 144 467 921 909 20 435 1275 1690 13 243 1386 1904 1567 1639 2737 2643 2702 2999 3669 3715 3817 3855 4197 4487 4536 3738 4238 3371 3369 2907 3468
0 0 0 4 0 0 0 0 0 0 0 0 1 269 890 1194 781 1060 1728 2440 2084 1387 1305 1988 2517 2625 2869 2875 2719 2767 2875 3131 3239 3500 3483 3475 3295 3545 3284 3098 3598 3207 3560 3712
0 27 12 0 0 0 0 0 0 0 0 3 11 514 1086 894 936 1382 1525 1290 1451 1791 1899 1864 1976 2011 2185 2719 3430 2926 3120 3231 3353 3301 3469 3626 3853 3376 3266 3635 3205 3428 3503 3170
0 32 46 27 32 0 0 0 0 0 0 0 94 411 414 903 1075 989 1125 1002 976 963 1041 1162 1093 1147 1228 1225 1326 1848 2398 2539 2400 2498 2802 3219 3300 3737 2780 2939 2953 2857 2805 2427
0 36 45 50 36 1 46 4 0 9 11 107 53 469 285 418 335 577 791 1040 1307 1367 1424 1437 1358 1203 614 814 1496 1653 1541 1516 1458 1389 1585 1816 2400 2906 3042 2999 2881 2774 2670 2594
0 0 0 37 10 15 6 18 20 70 113 123 316 385 315 224 182 287 420 694 849 1010 1214 1192 785 371 501 973 1383 1491 805 144 1138 1247 1479 1880 2430 2664 2879 3266 2779 2687 2378 2588
0 0 0 0 41 59 124 55 129 143 129 205 328 451 577 441 321 242 105 226 536 854 1040 1021 776 728 909 1079 647 347 231 567 423 263 210 215 576 783 998 1050 1019 1058 1319 1485
0 0 0 0 13 21 171 201 99 90 93 115 242 346 393 290 178 74 3 0 0 1 11 269 858 969 526 570 524 463 246 0 27 177 0 19 17 6 282 476 622 695 691 709
18 29 18 6 32 110 56 46 47 67 144 143 176 79 40 26 10 1 0 0 0 0 0 0 82 446 1046 1023 770 580 400 484 1 132 133 15 5 1 11 14 16 0 0 3
111 112 67 9 79 67 46 76 11 0 112 83 84 27 39 1 0 0 0 0 0 0 0 0 0 100 162 352 852 707 665 384 240 129 93 6 21 14 16 7 17 7 0 0
0 0 0 0 15 0 0 0 0 0 0 67 10 5 3 4 0 0 0 2 0 4 1 0 0 0 16 77 495 728 532 429 216 238 194 1 3 4 14 16 4 0 0 0
0 0 0 0 10 16 19 43 51 0 1 3 3 15 30 0 0 0 0 0 0 0 0 0 0 0 0 0 12 311 699 704 439 137 129 83 12 0 0 0 0 0 5 32
0 0 0 0 0 0 0 0 0 0 0 1 0 3 0 0 5 0 0 0 0 0 0 0 0 0 0 0 0 1 2 35 138 266 410 177 23 5 7 6 14 6 5 27
0 0 5 19 17 0 0 2 7 0 0 0 0 0 0 0 1 1 0 0 0 0 0 0 0 0 0 2 0 3 5 5 1 0 40 21 48 17 0 2 4 2 22 28
0 0 0 0 0 0 5 1 6 14 28 18 5 0 0 0 0 0 0 0 0 0 0 0 0 0 17 20 14 16 6 5 13 29 12 12 17 10 4 3 0 5 7 2
0 0 0 0 0 0 0 0 0 0 0 0 0 10 0 0 0 0 0 0 0 0 0 0 0 0 0 1 12 18 14 14 5 1 0 0 0 0 4 23 0 2 4 3
0 0 0 0 0 0 0 0 0 0 0 0 0 0 0 0 0 0 0 0 0 0 0 0 0 0 0 0 0 0 6 6 8 2 0 0 0 5 42 46 50 55 57 47
0 0 0 0 0 0 0 0 0 0 0 0 0 0 0 0 0 0 0 0 0 0 0 0 0 0 0 0 0 0 0 0 0 4 2 10 13 5 0 0 0 0 4 20
0 0 0 0 0 0 0 0 0 0 0 0 0 0 0 0 0 0 0 0 0 0 0 0 0 0 0 0 0 0 0 0 0 0 0 2 7 10 0 3 2 0 0 0

GFSNGP_con_mucape_033.txt.gz
CAPE
0 4 0 0 0 0 0 0 0 0 0 0 0 0 0 0 0 0 0 0 1 89 432 933 2052 2882 3096 2400 2841 2548 3151 3153 3456 3998 4198 4253 4212 4289 4333 4384 4357 4407 4369 4378
0 0 0 0 0 0 0 0 0 0 0 0 0 0 0 0 0 0 0 0 0 0 89 552 1404 2615 2828 3201 2798 2824 3479 3342 3729 4127 4351 4424 4436 4380 4538 4434 4476 4467 4464 4380
0 0 0 0 0 0 0 0 0 0 0 0 0 0 0 0 0 0 0 0 0 0 0 259 633 1582 2022 3294 3226 2934 3378 3782 3815 4188 4393 4522 4572 4605 4527 4524 4534 4520 4471 4529
0 0 0 0 0 0 0 0 0 0 0 0 0 0 0 0 0 0 0 0 0 0 0 34 19 291 1415 1558 3813 3697 3634 3690 3998 4125 4356 4573 4683 4633 4650 4632 4592 4594 4599 4656
0 0 0 0 0 0 0 0 0 0 0 0 0 0 0 0 0 0 0 0 0 0 0 134 0 42 473 1643 2824 3744 3908 3861 3820 4196 4345 4526 4574 4610 4644 4610 4605 4555 4610 4724
0 0 0 1 1 0 0 0 0 0 0 0 0 0 0 129 50 32 0 0 0 0 0 0 62 0 0 256 1698 3625 3658 4076 4156 4444 4475 4533 4624 4762 4739 4690 4567 4299 4481 4632
0 0 0 2 20 11 0 186 46 5 0 4 22 164 360 211 244 527 648 514 249 157 74 165 113 67 1358 1224 1405 2704 3329 3999 4390 4465 4647 4572 4655 4783 4828 4759 4430 4637 4525 4569
0 0 0 0 0 3 37 23 16 13 21 47 67 60 115 119 393 626 983 787 400 397 1021 1174 431 783 2740 2973 3085 3777 3761 3970 4324 4548 4132 4067 4692 4833 4969 4842 4750 4747 4703 4633
0 0 0 0 0 0 0 0 1 0 0 2 0 3 31 162 629 1090 1141 805 37 310 1619 533 772 1067 2719 3751 4441 4389 4491 4638 4619 4694 4696 4536 4840 4910 4502 4794 4311 4404 4248 4507
0 0 0 0 0 0 0 0 0 0 0 0 0 0 0 280 997 1197 1167 1444 1962 2000 1703 1040 2063 2545 2454 3448 3665 4170 4740 4844 4808 4894 4783 4610 3660 4007 3845 3696 4024 3973 3905 4110
18 1 9 2 0 0 0 0 0 0 0 0 0 0 0 508 1564 1177 1660 2257 2041 2451 2558 2752 3134 3421 3449 3497 3231 3255 3426 3393 3615 3433 3852 4495 4385 3289 3606 3966 3276 3589 3737 3600
0 57 34 31 24 6 0 0 0 0 0 0 0 0 76 275 1326 1948 1681 1703 1839 1902 2007 1914 1867 1891 1991 2011 3338 3800 3592 3550 3338 3171 3324 3525 3581 4000 3149 2901 2954 2836 2767 2720
55 57 57 30 51 37 25 0 0 0 0 0 0 0 199 173 1181 1153 1846 1955 1715 1947 1925 1908 1809 1161 1172 1770 1988 2155 2434 2467 2138 1748 1897 2033 2872 3033 2906 2671 2856 2560 2571 2662
0 0 23 14 21 52 39 29 10 0 0 0 0 12 77 82 635 998 1159 1463 1405 1593 1387 1198 1168 1463 1698 1998 2211 1714 1165 794 1453 1533 1649 1847 2152 2360 2432 2464 2656 2692 2707 2418
0 0 0 0 7 26 34 36 26 13 1 2 9 57 33 382 904 812 1318 1375 1144 1178 1232 1121 1125 1211 1351 762 679 865 1048 981 766 785 697 598 735 676 736 635 562 618 671 672
0 0 0 0 0 14 24 2 41 88 8 58 105 125 146 381 439 655 690 325 340 607 622 697 1030 956 837 988 845 711 332 59 375 464 235 223 235 343 282 62 9 7 3 1
0 0 0 0 0 0 23 22 10 73 138 68 97 103 139 99 209 215 140 226 261 251 124 443 561 756 1067 1040 757 672 635 596 65 310 170 217 191 134 16 30 6 6 2 0
40 37 43 43 54 25 57 36 69 137 104 74 74 47 12 25 147 205 36 1 1 9 4 1 76 335 521 623 685 517 528 479 406 450 179 63 151 21 59 13 3 2 9 1
2 1 0 16 56 40 13 36 20 90 80 3 6 28 13 23 41 14 0 0 0 0 3 1 0 0 123 230 566 303 295 389 533 531 403 32 116 51 8 3 5 0 0 13
0 0 0 0 15 29 1 1 0 0 0 1 0 3 12 3 9 8 0 1 0 0 0 0 0 0 0 0 3 83 329 355 327 219 143 147 79 33 7 0 2 2 4 12
4 0 0 0 0 0 0 0 0 0 0 0 0 0 0 0 0 0 1 0 1 0 0 0 0 0 0 0 0 1 2 22 44 8 107 17 19 16 18 0 1 0 0 2
15 0 1 0 5 13 12 12 0 0 0 0 0 0 0 0 0 0 0 0 0 0 3 0 0 0 0 0 0 0 0 0 7 12 11 8 0 0 0 0 2 4 1 2
41 50 21 20 22 0 0 3 13 18 17 11 1 1 2 0 0 0 0 0 0 0 0 0 0 0 0 0 1 0 0 0 1 5 5 9 5 3 0 0 0 0 3 5
27 16 24 26 1 4 12 3 0 0 0 0 16 0 0 0 0 0 0 0 0 0 0 0 0 0 0 1 4 21 7 23 23 10 7 4 0 0 0 1 12 5 1 4
0 13 5 1 9 10 11 9 0 0 0 0 0 0 0 0 0 0 0 0 0 0 0 0 0 0 0 0 0 0 2 2 2 6 0 0 0 0 0 4 3 4 17 14
0 0 6 8 5 3 9 10 0 0 0 0 0 0 0 0 0 0 0 0 0 0 0 0 0 0 0 0 0 0 0 0 0 1 0 2 0 0 0 0 0 0 0 0
3 0 3 2 2 4 2 1 0 0 0 0 0 0 0 0 0 0 0 0 0 0 0 0 0 0 0 0 0 0 0 0 0 0 0 0 1 2 4 7 8 3 2 0

GFSNGP_con_mucape_036.txt.gz
CAPE
0 2 20 0 0 0 0 0 0 0 0 0 0 0 0 0 152 312 641 708 1207 1324 1836 1941 2282 2506 2597 2530 2566 2528 2680 3203 3359 3372 3509 3516 3619 3684 3838 3592 3421 3551 3630 3611
0 8 1 0 0 0 0 0 0 0 7 0 0 23 4 41 57 200 158 103 188 537 695 1520 2498 2951 2569 2672 2821 2764 2758 2929 3185 3459 3485 3835 3680 3775 3856 3946 3837 3782 3820 3703
0 1 0 3 0 1 0 0 0 0 29 15 14 11 9 0 0 0 0 0 6 100 327 1008 1472 3277 3287 3024 3098 3270 2998 3261 3311 3404 3565 3737 3989 3889 3846 4036 4051 4029 4011 3966
1 56 16 0 2 0 3 0 0 0 64 148 241 63 0 0 0 0 0 0 128 0 56 1038 393 475 2111 3412 3495 3310 3880 3601 3805 3862 3686 3922 4064 4098 4124 4050 4163 4119 4174 4101
0 34 7 1 0 0 0 1 14 31 36 5 0 0 0 0 0 0 0 29 59 0 2 1426 842 974 1605 2066 3730 3726 3464 3920 3696 4044 4027 4027 4135 4153 4213 4279 4213 4311 4243 4271
0 18 2 0 0 0 1 0 30 0 0 0 0 0 458 520 228 351 560 988 1357 913 936 220 2046 406 2494 2214 2862 3636 3597 3435 3858 3783 3952 4068 4190 4341 4359 4363 4351 4304 4316 4274
0 0 0 0 0 0 0 188 122 31 74 81 174 656 452 179 172 390 871 1161 1385 1338 1268 2281 2246 1988 2875 2217 2348 3089 3601 3745 3984 4023 3890 4093 4250 4448 4497 4487 4446 4425 4358 4341
0 0 2 0 0 0 69 86 0 0 0 0 0 3 31 66 356 651 1213 1463 1188 1486 1656 1681 2692 2540 2944 3880 3984 4151 4223 4064 4173 4513 3956 3938 4406 4510 4536 4527 4507 4445 4402 4376
0 0 0 2 0 0 0 14 46 1 0 0 0 0 0 1 559 1069 1743 1962 1574 1265 1618 1906 1987 3187 3042 4783 5096 4868 5087 4912 4472 4704 4525 4143 4588 4486 4512 4599 4527 4504 4405 4385
0 0 0 0 0 0 0 0 1 12 0 0 0 0 0 0 60 1010 1992 2249 3052 3147 3420 3637 2642 3000 4366 4350 4436 5079 5233 5322 4947 4843 4661 4528 4171 4448 4330 4357 4512 4555 4458 4334
0 0 13 0 0 0 0 0 0 0 0 0 0 0 0 0 223 830 1272 2659 2816 3385 4009 4061 4454 4187 4045 4478 4801 4646 4830 4986 5113 4685 4587 4739 4590 3995 4478 4403 4237 4382 4386 4083
1 7 23 14 0 0 0 0 0 0 0 0 0 0 0 0 306 386 1411 2396 2882 2941 2690 2405 2288 2362 2870 3146 3849 4822 4644 4244 4059 3859 4121 4327 4563 4501 3552 3318 3483 3273 3084 3175
0 0 0 0 0 0 0 0 0 0 0 0 0 0 0 0 308 320 1003 2196 2369 2761 2276 2464 2430 1566 1547 2568 3008 3667 3975 4549 4082 3386 3944 4194 3976 4525 4424 3366 2786 2828 2853 2881
0 0 0 0 0 0 0 0 0 0 0 0 0 0 0 0 197 372 755 1539 1848 1997 1703 1626 1516 1722 2097 2480 2293 3111 2911 2623 2434 2442 2334 2547 2600 2547 2479 2551 2952 2738 2582 2497
19 0 0 0 0 0 0 0 1 0 0 0 0 0 0 1 159 636 860 1349 1131 1282 1168 1708 1662 1650 1143 1163 1519 2066 2348 1587 1500 1086 1150 1352 1362 1550 1578 1626 1626 1506 1576 1382
0 0 13 0 0 0 6 10 0 0 0 0 0 0 0 115 228 604 820 1119 1069 964 945 1167 1324 1415 1247 1665 1393 826 677 642 685 934 698 810 728 717 744 569 405 281 13 0
47 0 6 0 0 0 5 8 7 7 0 1 46 3 137 184 64 304 715 632 516 306 786 796 845 1549 1553 1138 1658 1263 491 672 271 440 473 530 534 499 355 348 124 34 1 0
9 34 22 0 0 0 0 20 29 51 33 9 101 125 180 148 106 81 87 184 168 459 422 266 480 1044 639 573 852 874 879 743 664 280 201 247 334 174 106 9 0 0 4 0
0 2 27 20 19 28 30 10 1 20 55 41 63 37 40 59 32 69 41 55 30 80 13 13 13 120 244 207 537 440 217 370 432 347 109 33 1 2 2 4 4 8 19 19
0 0 0 0 1 1 0 5 32 37 48 64 46 36 37 30 22 4 3 8 4 14 0 14 92 96 98 143 110 46 24 15 18 5 5 0 0 0 0 0 0 0 0 1
0 0 0 0 0 0 0 0 10 18 4 29 44 22 4 0 0 34 22 37 26 18 0 2 71 108 92 34 8 1 46 48 120 0 1 0 0 0 0 4 2 3 5 2
49 47 27 0 0 0 0 0 2 0 0 0 0 0 0 0 0 0 0 0 3 2 0 0 1 1 2 0 0 0 0 5 1 0 17 0 0 0 0 0 0 0 3 6
61 26 66 35 4 0 0 0 0 0 0 0 0 0 0 0 0 0 0 0 1 0 1 3 1 0 19 35 24 17 11 1 0 0 0 0 0 0 0 0 0 0 0 0
8 26 33 49 87 16 0 0 0 0 0 0 4 4 3 0 0 0 1 6 0 0 0 0 0 0 0 0 1 15 34 13 16 14 5 0 0 0 0 0 0 0 0 1
13 47 12 23 49 52 52 52 34 26 0 0 0 0 0 0 0 0 0 0 0 0 0 0 0 0 0 0 0 0 2 2 3 0 0 0 0 0 0 0 0 0 0 0
0 17 18 37 8 7 7 5 0 0 0 0 0 0 0 0 0 0 0 0 0 0 0 0 0 0 0 0 0 0 0 0 0 0 0 3 1 0 0 0 0 0 0 0
6 0 18 18 16 0 0 0 0 0 0 0 0 0 0 0 0 0 0 0 0 0 0 0 0 0 0 0 0 0 0 0 0 0 0 2 0 0 0 0 0 0 2 3

GFSNGP_con_mucape_039.txt.gz
CAPE
0 0 0 7 0 0 0 0 0 0 0 0 1 25 14 0 5 64 227 517 1162 1256 1363 1597 1479 1271 1215 1147 1296 1602 2322 2556 2604 2639 2480 2442 2458 2508 2315 1780 2535 2405 2744 2707
0 0 8 4 0 0 0 0 0 0 0 0 0 14 3 0 0 29 67 320 672 1223 1321 1572 1755 1629 1494 1492 1469 1512 2103 2436 2707 2658 2640 2435 2499 2442 2736 2711 2146 2445 2696 2476
0 21 1 0 0 1 0 0 0 0 0 0 1 6 3 0 0 6 32 84 529 842 1150 1645 1767 1832 1830 1880 1717 1768 1761 2278 2571 2764 2646 2673 2555 2738 2705 2910 2962 2643 2441 2795
1 21 3 0 3 3 0 0 0 0 18 0 52 198 79 0 0 0 18 64 193 459 681 905 1247 2106 1981 1969 2197 2022 1992 2012 2261 2649 2833 2741 2824 2714 2940 2966 3080 3194 3131 2843
1 15 4 9 5 8 19 25 10 231 230 51 284 315 159 122 271 368 459 558 613 521 417 460 207 250 2343 2218 2335 2528 2276 2305 2290 2762 2813 2984 2924 3082 3055 3066 3165 3207 3411 3375
0 11 30 66 0 0 0 33 24 175 429 46 355 268 201 98 160 366 561 662 768 635 437 432 806 620 2343 2698 2530 2694 2823 2961 2805 2816 2971 2931 3048 3064 3216 3328 3265 3322 3310 3550
11 13 35 26 0 0 6 4 24 262 215 271 64 11 0 49 176 773 1157 1025 1050 795 745 879 623 554 1188 1727 2881 2687 2525 2806 3386 3503 3336 3296 3202 3299 3409 3540 3584 3567 3624 3594
16 20 68 5 1 10 0 0 25 35 428 185 40 0 9 51 478 917 1241 1661 2093 1756 1111 615 417 1274 852 892 1977 2524 2901 3033 2975 3241 3250 3494 3622 3653 3790 3814 3847 3808 3837 3855
7 7 0 0 0 0 0 0 27 0 19 15 26 12 71 73 174 988 1153 1697 2118 2338 2643 2992 1715 1306 1314 2972 3091 3701 2915 3096 3239 3393 3375 3065 3701 3729 4097 4085 4090 4051 3988 4010
0 0 0 0 0 0 0 0 30 0 0 0 0 0 0 8 5 1104 1209 1413 1683 2050 2683 3432 3264 3111 3192 3552 3295 2458 3343 4270 3643 3752 4161 3647 3835 3903 3980 4219 4142 4099 4128 4078
0 0 0 0 0 0 0 0 0 0 0 0 0 0 0 0 0 531 1011 952 1495 1557 2029 2576 2814 3114 3044 3173 3289 3810 2723 4592 4291 4243 4265 4139 3693 4243 4055 3922 4054 4123 4065 3932
0 0 0 0 0 0 0 0 0 0 0 0 0 0 0 0 0 80 52 41 427 1177 1566 1926 2255 2510 2433 2873 3237 3291 3818 4392 4587 4101 4035 4243 4271 3793 3689 4058 3959 3866 3919 3979
0 0 0 0 0 0 0 0 0 0 0 0 0 0 0 0 0 0 81 175 391 701 1075 1583 1594 1456 1294 1547 2125 3209 3395 3604 3378 3660 3783 4081 4106 4053 3873 3338 3272 3573 3862 3753
7 0 0 0 0 0 0 0 0 0 0 0 0 0 0 0 0 0 50 225 379 653 1352 1344 1446 1481 1669 2068 2016 2512 3202 3212 3205 3093 2977 3540 3580 3683 4018 3815 3336 2761 2815 2965
0 2 0 0 0 0 0 0 0 0 0 0 0 0 0 0 0 0 295 478 681 1017 1087 1212 1195 1290 1816 1053 1358 1607 3251 2934 2985 2993 2741 3218 3361 3299 3245 3439 3344 3201 3009 2729
0 0 0 0 0 0 0 0 0 0 0 0 0 0 0 0 0 3 59 354 803 905 1061 903 772 882 1090 1143 716 1090 1869 2195 2417 2112 2117 2033 1975 2165 2257 2346 2228 2113 2087 1545
0 0 1 5 1 0 0 0 0 0 0 0 0 0 0 0 0 34 20 425 608 691 912 508 509 680 725 1080 1252 591 594 513 233 162 544 98 110 797 461 48 0 0 0 0
2 1 14 0 0 0 0 0 2 6 3 0 0 0 0 0 16 41 42 57 184 133 424 469 429 603 708 710 670 749 253 174 117 73 45 85 61 17 0 0 0 0 0 0
0 0 5 13 13 1 2 0 7 0 0 0 0 1 7 32 48 22 14 45 33 52 60 190 115 394 799 539 492 640 413 258 101 46 34 8 0 0 0 1 1 1 1 0
0 0 0 0 2 3 0 5 6 0 0 8 47 20 29 35 46 62 51 44 30 10 79 55 86 308 387 348 487 427 570 279 357 378 49 0 0 2 0 0 3 0 2 0
4 0 0 0 0 0 0 0 0 12 17 8 4 4 31 20 60 86 70 75 62 95 58 74 58 121 119 269 107 55 42 40 28 7 10 2 0 0 2 4 5 3 2 0
36 8 0 0 0 0 0 0 0 0 0 0 2 13 16 23 65 6 29 19 21 26 21 22 18 69 78 105 80 83 37 28 50 11 3 0 0 0 0 0 0 0 0 0
8 50 7 0 0 0 0 0 0 0 0 0 0 0 5 39 48 26 12 0 4 1 3 4 4 2 4 8 7 7 4 0 1 0 0 0 0 0 0 0 0 0 0 0
1 38 47 9 0 0 0 0 0 0 0 0 0 0 0 0 0 0 0 0 0 0 0 0 0 0 0 0 1 3 0 0 0 0 0 0 0 4 2 0 0 0 0 0
44 47 18 12 30 14 7 2 0 0 0 0 0 0 0 0 0 0 0 0 0 0 0 0 0 0 0 0 0 0 0 2 0 0 0 0 1 1 0 0 0 0 0 0
24 37 57 23 0 0 0 0 0 0 0 0 0 0 0 0 0 0 0 0 0 0 0 0 0 0 0 0 0 0 0 2 0 1 3 3 3 0 0 0 0 0 0 0
0 0 0 2 4 0 0 0 0 0 0 0 0 0 0 0 0 0 0 0 0 0 0 0 0 0 0 0 0 0 0 0 0 0 0 0 0 1 1 0 0 0 0 0

GFSNGP_con_mucape_042.txt.gz
CAPE
0 0 0 0 0 0 0 0 0 0 0 0 0 0 0 0 0 0 198 686 1038 980 939 910 911 842 853 962 1355 1760 1827 1844 1793 1639 1864 2054 1892 1565 1306 1664 2192 1777 1657 1917
0 0 0 0 0 0 0 0 0 0 0 0 0 1 11 0 0 0 36 618 1163 1100 1069 1019 989 945 949 957 1170 1598 1849 1957 1970 2036 1905 1983 2200 2138 1848 1564 1463 2081 2176 2071
0 0 0 0 0 1 0 0 0 0 0 0 46 80 30 8 10 72 153 743 1201 1229 1181 1173 1162 1091 1063 1028 1038 1554 1783 1885 2128 2148 2310 2229 2218 2285 2333 2122 1860 1456 1758 2154
0 4 0 0 10 4 0 0 0 0 0 258 331 451 398 341 181 89 226 741 1150 1351 1382 1413 1363 1249 1175 1064 1090 1203 1649 2031 2121 2426 2394 2463 2353 2293 2270 2378 2445 2265 1818 1843
2 8 0 20 8 12 1 0 0 0 305 360 261 167 360 685 610 447 269 441 694 1199 1329 1588 1708 1746 1591 1465 1437 1384 1415 1574 2262 2394 2653 2559 2554 2455 2396 2428 2442 2608 2605 2421
8 14 8 1 24 23 0 0 0 62 295 172 54 84 276 802 994 1400 1342 732 613 790 1034 1185 1400 1589 1929 1959 1896 1815 1767 1750 1760 2425 2563 2705 2655 2648 2627 2597 2704 2666 2707 2846
7 24 2 8 19 2 5 4 84 192 143 24 0 0 178 815 1244 1685 1667 1719 1971 1916 1260 1071 1110 796 1675 2035 2102 2116 2085 1963 1925 1951 2425 2598 2737 2728 2751 2828 2729 2793 2877 2884
0 12 48 7 20 11 7 10 25 74 8 0 0 6 161 648 833 1340 1505 1576 2192 2797 2599 2092 796 1053 642 1409 2221 2275 2217 2377 2297 2325 2266 2545 2643 2778 2848 2826 2993 3042 2978 3034
7 2 0 0 6 0 0 9 21 40 3 0 0 6 48 671 791 1121 1443 1581 1721 2143 2634 2740 2619 2691 2830 2896 2432 2520 2529 2583 2734 2866 2868 2823 2810 2793 2881 2979 3017 3162 3246 3283
0 0 4 0 0 0 3 5 23 2 22 0 0 12 37 83 832 835 1256 1365 1514 1712 1946 2426 2501 2704 2708 2715 2787 3083 1868 3076 2819 2764 2828 3115 3222 3163 3170 3328 3385 3403 3516 3577
0 0 0 0 0 0 0 18 4 0 0 0 0 1 18 25 530 776 638 877 1177 1146 1404 1698 2018 2293 2430 2433 2615 2976 3127 3153 3165 3630 3003 3059 3027 3257 3506 3652 3703 3799 3891 3908
2 0 0 0 0 0 0 0 11 0 0 0 0 21 44 35 36 405 431 208 116 311 831 1052 1599 1268 1298 1772 1984 2057 2831 3068 3513 4032 3684 3496 3347 3251 3621 3705 3961 3989 3969 4008
0 0 5 0 0 0 0 0 0 0 0 0 0 5 4 0 0 0 1 0 150 204 575 982 1264 1234 1352 1514 1800 1842 2035 2809 3222 4009 3919 3917 3758 3586 3437 3700 4042 3970 3979 4025
0 0 0 0 0 0 0 0 0 0 0 0 0 0 21 7 0 0 0 0 75 92 796 992 1300 1018 806 1028 1279 1444 1523 2372 2813 3313 3975 3896 3879 3813 3463 3398 3285 3338 3241 3384
0 0 0 0 0 0 0 0 0 0 0 0 0 0 0 6 7 0 0 0 17 479 801 988 1161 1066 860 924 782 863 1395 1659 1780 2569 3055 3079 3619 4001 4034 3801 4008 3598 3173 2695
0 0 0 0 0 0 0 0 0 0 0 0 0 0 0 0 0 0 0 50 400 522 663 704 847 918 870 871 896 991 894 1155 1757 1639 2338 3132 3037 3478 3621 3721 3976 3701 3722 3629
0 0 0 0 0 0 0 0 0 0 0 0 0 0 0 0 0 0 0 0 4 0 106 370 760 637 652 467 778 942 697 814 959 1474 2022 2292 2888 2838 2682 3185 3178 2621 2340 2043
0 0 0 7 32 2 1 0 0 0 13 16 11 0 0 0 0 0 0 0 17 13 170 203 274 415 475 580 632 767 420 440 488 407 240 638 1307 1561 1705 1501 1520 1485 1298 905
0 0 0 6 9 7 0 2 1 0 0 0 0 0 0 0 0 0 0 0 0 13 16 39 283 422 457 631 602 838 628 453 449 310 174 127 72 20 2 0 0 0 0 0
4 0 0 0 0 2 1 0 7 0 0 0 2 3 1 1 3 4 0 0 0 5 9 0 0 13 157 435 779 991 864 377 372 316 76 15 1 0 0 0 0 0 0 0
10 4 0 0 0 0 1 0 0 0 1 0 5 7 2 8 8 8 19 24 0 14 19 17 59 86 190 367 544 670 743 351 365 205 86 13 0 0 0 0 0 0 0 0
42 17 0 0 0 0 0 0 0 0 0 0 10 3 17 4 8 6 4 3 18 17 51 44 66 58 38 50 56 301 456 305 351 206 62 85 29 2 0 0 0 0 0 0
34 47 12 3 0 0 0 0 0 0 0 0 0 0 0 0 0 13 21 18 25 21 19 34 43 37 61 32 53 63 111 88 63 25 54 20 26 0 0 0 0 0 0 0
7 31 38 35 8 4 0 0 0 0 0 0 0 0 0 0 0 0 2 1 0 1 24 10 21 5 6 17 26 7 4 10 34 7 4 0 4 4 0 0 0 0 0 0
15 0 0 4 15 0 0 0 0 0 0 0 0 0 0 0 0 0 0 0 4 5 0 0 0 0 0 0 0 0 0 0 0 0 0 1 3 0 0 4 0 0 0 0
0 0 1 1 0 0 0 0 0 0 0 0 0 0 0 0 0 0 0 0 0 0 0 0 0 0 0 0 0 0 0 0 0 0 6 14 9 5 4 6 3 0 0 0
0 0 0 0 0 0 0 0 0 0 0 0 0 0 0 0 0 0 0 0 0 0 0 0 0 0 1 0 0 0 0 6 2 1 13 13 8 7 3 2 0 0 0 0

GFSNGP_con_mucape_045.txt.gz
CAPE
0 0 0 0 0 0 0 0 0 0 0 0 0 0 0 0 0 0 0 76 278 449 527 595 601 652 554 595 818 729 747 808 923 1149 1168 1103 877 753 975 1351 1279 1395 1459 1240
0 0 0 0 6 0 0 0 0 0 0 0 3 21 21 4 0 0 49 251 419 552 603 640 645 736 616 725 1002 1058 994 1024 1065 1129 1350 1398 1335 1223 1096 1110 1470 1213 1055 1089
0 0 12 10 6 0 0 0 0 0 0 0 105 161 183 107 1 0 0 340 517 542 611 645 694 814 719 840 1042 1378 1365 1352 1374 1353 1386 1572 1662 1627 1484 1318 1197 1562 1535 1227
0 0 2 3 0 0 1 0 0 0 1 199 433 469 471 402 245 157 15 251 493 630 676 696 731 774 750 787 1006 1489 1634 1686 1707 1756 1650 1596 1785 1958 1899 1711 1576 1458 1389 1647
26 3 27 23 7 0 0 0 0 55 278 501 465 366 887 962 767 644 654 363 771 911 865 849 854 859 925 921 1045 1221 1549 1766 1873 1924 1969 2003 1906 1928 2046 2125 2051 1894 1779 1631
86 70 37 23 8 6 0 0 0 50 200 240 52 302 873 1173 1269 1416 1426 1168 1153 1248 1203 1177 1170 1136 1098 1052 1081 1192 1454 1685 1798 1978 2113 2152 2257 2189 2143 2197 2234 2305 2325 2262
94 82 34 53 10 23 18 0 2 30 166 72 117 168 815 1164 1540 1922 1967 2044 2000 1502 1525 1563 1552 1513 1463 1447 1445 1465 1430 1387 1727 2023 2192 2302 2271 2306 2313 2317 2351 2405 2400 2413
83 73 62 80 29 38 20 0 0 7 92 13 213 502 857 1053 1244 1543 1835 2077 2097 1981 1742 1293 1426 1728 1918 1945 1945 1850 1791 1789 1854 1846 2133 2284 2476 2462 2489 2529 2541 2536 2547 2565
52 66 25 61 48 34 10 0 0 11 49 0 76 552 544 813 929 1114 1625 1910 2056 2158 2287 2335 2298 2288 2441 2692 2456 2368 2131 2154 2180 2138 2123 2178 2470 2557 2573 2590 2623 2660 2658 2674
35 30 70 59 44 32 11 2 9 15 2 0 110 339 476 616 720 935 1203 1555 1885 1995 1865 1889 2056 2100 2171 2389 2669 2705 2468 2614 2546 2514 2489 2436 2412 2419 2495 2651 2691 2713 2789 2912
0 5 30 18 7 50 56 3 0 1 0 14 63 108 324 510 559 687 672 1015 1224 1476 1624 1560 1532 1646 1716 1736 1843 2235 2725 2789 2878 2698 2833 2749 2815 2829 2849 2883 2861 2838 2924 3004
34 0 5 5 0 3 8 0 0 0 3 9 31 36 65 309 413 374 418 458 552 450 565 967 1084 1082 1294 1598 1700 1637 1663 2162 2800 3009 3417 3141 2850 2885 3088 3261 3262 3318 3381 3388
0 0 0 0 0 0 2 0 0 0 0 2 12 12 56 59 80 327 169 28 7 0 142 686 1032 994 1035 1470 1319 1230 1195 1496 2166 2826 3199 3626 3422 3123 2895 2792 3373 3646 3829 3912
0 0 0 0 0 0 0 0 0 0 0 0 0 0 1 15 7 21 37 11 0 17 370 644 1025 989 761 662 496 418 782 1323 1807 2560 3029 3811 3861 3614 3317 3282 3197 3121 3595 3831
0 0 0 0 0 0 0 0 0 0 0 0 0 0 0 4 108 49 25 5 0 6 122 347 644 965 916 859 776 613 1038 1373 1554 1918 2408 3112 3760 3802 3678 3189 2905 2525 2363 2673
0 0 0 0 0 0 0 0 0 0 0 1 0 0 1 0 1 0 0 0 0 0 0 109 253 501 728 641 586 718 816 882 1039 1699 2205 2574 3137 3598 3142 3195 3254 3398 3040 2979
0 0 0 0 0 0 0 0 0 0 0 0 0 0 0 0 3 0 3 0 0 0 0 0 47 295 563 550 270 728 470 630 660 799 1683 2309 2782 3229 3403 3305 3391 3358 2639 2726
0 0 0 0 0 0 0 0 9 29 10 13 19 6 0 0 0 0 0 0 16 6 0 0 0 151 513 460 277 489 637 547 527 515 545 850 1477 2200 2497 2287 2293 2638 2211 2356
0 0 0 0 0 0 0 0 4 5 11 0 1 0 0 0 0 0 0 0 0 4 0 0 0 1 26 185 339 478 652 571 447 437 459 372 357 391 486 666 765 852 937 819
5 0 0 0 0 0 0 0 0 4 8 0 1 0 0 0 0 2 0 0 0 0 0 0 27 102 289 345 369 551 576 543 482 491 458 324 224 183 141 81 40 3 0 0
9 0 0 0 0 0 0 0 0 0 5 1 2 2 2 4 8 7 9 15 7 4 2 2 20 21 12 1 90 427 576 561 565 693 504 341 213 90 31 4 0 0 0 0
30 14 0 0 0 0 0 0 0 0 1 9 9 5 4 12 7 13 14 11 9 7 6 9 12 19 62 69 349 261 388 454 632 623 496 266 64 214 29 8 2 0 0 0
18 39 14 0 0 0 0 0 0 0 0 0 0 0 1 5 5 14 6 9 8 9 27 34 31 16 51 103 119 59 85 140 136 208 167 6 8 20 37 63 45 15 0 0
4 17 25 16 6 6 0 1 4 0 0 0 0 0 0 0 0 0 0 0 0 0 21 21 6 3 23 24 18 49 32 40 86 18 0 54 13 4 11 7 19 8 0 0
6 0 11 11 20 0 0 0 0 0 0 0 0 0 0 0 0 0 0 0 0 1 0 0 1 7 0 20 35 46 24 20 5 5 1 0 2 0 2 4 1 0 2 0
0 0 0 0 0 0 0 0 0 0 0 0 0 0 0 0 0 0 0 0 0 0 0 0 0 0 0 0 0 6 0 0 0 0 0 0 0 0 0 1 5 0 2 7
0 0 0 0 0 0 0 0 0 0 0 0 0 0 0 0 0 0 0 0 0 0 0 0 0 0 0 0 0 0 0 0 0 0 0 0 0 11 16 3 2 0 0 0

GFSNGP_con_mucape_048.txt.gz
CAPE
0 0 0 0 0 1 0 0 0 0 0 0 0 0 0 0 0 0 0 0 7 71 108 120 290 266 426 426 396 408 403 506 556 515 491 518 687 973 957 573 510 479 494 556
0 0 0 0 0 5 0 0 0 0 0 0 0 0 29 31 17 0 0 0 0 22 118 175 292 349 380 535 513 460 457 487 621 670 636 565 480 508 923 1137 934 846 815 735
2 0 0 0 0 0 0 0 0 0 0 0 37 66 35 23 34 44 78 0 0 0 107 234 318 383 398 536 645 595 539 511 605 797 932 918 850 679 612 710 1144 1144 993 923
10 0 0 0 1 0 0 0 0 0 106 133 363 455 341 245 125 66 348 100 0 52 205 276 338 390 396 513 807 783 704 779 864 949 1097 1169 1212 1185 1062 858 830 1227 1332 1126
0 0 0 0 2 1 0 0 0 0 448 582 488 535 764 677 669 583 652 731 90 195 294 346 416 449 503 658 832 1061 1050 1092 1158 1208 1205 1307 1461 1521 1490 1376 1214 1147 1213 1500
0 0 5 7 0 0 0 2 11 181 457 443 221 268 571 801 834 742 788 992 389 392 481 519 534 562 614 719 954 1334 1390 1449 1530 1555 1522 1471 1489 1630 1781 1839 1735 1615 1578 1481
0 36 49 61 2 0 0 0 5 76 287 226 158 114 890 1355 1458 1123 925 949 1063 772 736 721 684 672 688 710 930 1128 1380 1598 1707 1785 1809 1814 1788 1788 1859 1983 2098 2157 2135 2046
0 66 53 80 30 6 0 0 5 41 129 238 204 403 1266 1220 1146 1376 1360 1084 1245 1298 1245 1132 1098 1090 1035 1000 933 951 1145 1412 1684 1793 1976 2028 2093 2225 2227 2163 2204 2257 2281 2351
0 72 51 73 60 4 0 0 10 25 108 204 262 649 867 1107 1183 1359 1676 1796 1822 1746 1544 1536 1559 1637 1762 1901 1514 1322 1379 1485 1622 1779 1969 2224 2292 2265 2338 2351 2365 2385 2428 2473
16 0 142 72 55 0 2 9 0 1 47 259 403 421 470 609 987 1307 1597 1630 1699 1756 1812 1828 1842 2049 2276 2388 2143 2123 1833 1829 1918 1949 2027 2124 2342 2419 2435 2498 2545 2573 2551 2567
0 0 40 10 43 19 31 4 13 0 24 341 300 454 367 281 469 758 945 1409 1529 1406 1441 1463 1586 1705 1744 1851 2118 2435 2486 2374 2348 2398 2315 2323 2350 2405 2494 2602 2589 2610 2668 2729
1 0 0 6 12 3 6 2 24 9 20 236 337 419 353 279 257 350 548 838 1056 1278 1209 1079 1051 1043 1444 1354 1192 1260 1544 2091 2496 2680 2479 2620 2522 2518 2564 2595 2600 2655 2702 2755
0 0 0 0 0 0 37 28 24 16 20 105 232 343 343 289 176 197 280 271 396 528 555 626 850 658 601 492 349 367 581 800 1194 1989 2634 2999 2665 2738 2738 2643 2909 2972 3023 3038
0 0 0 0 0 0 4 35 25 8 1 46 117 170 350 253 222 150 151 120 95 140 59 4 350 853 720 721 648 426 658 1155 1255 1423 2127 2751 3179 3033 2854 2699 2676 2736 3163 3522
0 0 0 0 0 0 0 0 1 12 15 0 19 95 120 318 299 210 72 43 28 8 0 0 0 27 671 684 547 587 599 1315 1379 1717 1895 2613 3471 3746 3544 3244 3053 3065 2993 3195
0 0 0 0 0 0 0 0 0 0 1 0 0 4 12 87 22 17 41 114 20 0 0 0 0 0 2 445 558 517 646 670 847 1246 1843 2437 3315 3392 2984 2570 2378 2315 1803 1585
0 0 0 0 0 0 0 0 0 0 0 0 0 0 66 0 0 74 38 0 0 0 0 0 0 0 0 40 546 390 645 650 655 946 1592 2041 2494 2980 2560 1816 2043 2050 2077 2122
0 0 0 0 0 0 0 0 0 0 0 0 9 9 0 0 0 14 24 1 0 0 0 0 0 0 0 0 295 467 304 621 687 639 926 1343 1881 2431 2875 2729 2752 2385 2067 2425
0 0 0 0 0 0 0 0 0 0 0 0 0 0 0 0 0 0 0 0 0 47 0 0 0 0 0 0 0 48 237 508 715 653 519 955 1480 1590 1760 1819 1666 1654 1659 1329
7 0 0 0 0 0 0 0 0 0 0 0 0 0 0 0 0 0 0 0 0 0 0 0 0 0 0 0 11 294 536 563 592 621 509 423 610 723 702 610 576 567 499 403
20 0 0 0 0 0 0 0 0 0 0 0 0 0 0 23 1 4 6 1 0 0 0 0 0 1 0 23 331 380 262 409 483 540 494 446 488 383 183 141 126 79 13 0
27 27 0 0 0 0 0 0 0 0 0 0 0 1 2 9 15 19 12 2 0 0 0 0 0 0 0 0 6 8 5 42 171 425 327 381 378 403 54 140 74 55 22 0
17 20 22 1 0 0 0 0 0 0 0 0 0 0 0 2 4 6 0 5 3 1 0 1 0 0 0 0 1 3 4 16 73 333 147 165 237 99 89 51 26 16 27 14
4 20 20 21 7 7 0 0 0 1 0 0 0 0 0 0 0 0 0 7 6 2 2 5 0 0 0 0 0 1 4 36 81 109 109 138 44 72 54 7 20 15 2 1
0 0 6 5 0 0 0 0 0 0 0 0 0 0 0 0 0 0 0 0 0 0 0 0 0 3 3 9 16 14 1 3 2 28 14 48 15 67 34 17 36 26 2 0
0 0 0 0 0 0 0 0 0 0 0 0 0 0 0 0 0 0 0 0 0 0 0 0 0 0 0 3 0 0 8 6 4 0 5 2 0 0 6 6 5 5 5 0
0 0 0 0 0 0 0 0 0 0 0 0 0 0 0 0 0 0 0 0 0 0 0 0 0 0 0 0 0 0 0 0 0 0 0 0 0 0 0 0 0 0 0 0

GFSNGP_con_mucape_051.txt.gz
CAPE
0 0 0 0 3 0 0 0 0 0 0 0 0 0 0 0 0 5 1 0 166 517 936 1083 1471 1472 1483 1462 1346 1070 1240 1224 1322 1465 1533 1624 1760 1860 1745 1853 1860 1913 1686 1698
0 0 19 0 0 0 0 0 0 0 0 0 0 6 0 76 97 148 202 233 79 5 670 899 1136 1421 1374 1516 1476 1412 1440 1451 1579 1708 1748 1815 1917 2037 2122 1916 1880 2212 2004 1807
0 0 43 2 1 0 0 0 0 0 0 0 1 203 2 0 0 0 63 136 483 313 3 908 823 1364 1328 1523 1584 1593 1607 1712 1926 1965 1944 1981 2063 2225 2349 2318 1986 2177 1857 1859
0 1 0 4 1 12 0 0 0 0 0 0 67 211 189 34 0 0 1 22 292 693 48 242 540 733 1249 1394 1726 1708 1748 1828 2053 2135 2092 2142 2158 2215 2351 2201 2504 2314 2099 2301
0 46 12 75 1 4 0 0 0 0 0 7 265 367 345 348 352 195 121 240 530 967 215 418 1039 1321 1483 1695 1793 1788 1837 1917 2009 2154 2224 2304 2311 2302 2160 1958 1984 2247 2243 2354
0 0 149 27 13 1 0 1 3 1 1 311 347 613 146 611 726 786 471 571 954 624 253 803 1388 1362 1505 1460 1855 1934 1967 2040 2061 2124 2293 2457 2539 2643 2674 2358 2247 1798 1894 2485
0 0 9 19 42 7 16 16 101 79 166 400 188 55 315 1074 1208 913 577 645 1305 839 1146 1556 1574 1313 1773 1813 2119 1873 1802 1782 2126 2425 2515 2649 2875 3017 2688 2599 2724 2538 2430 2746
0 0 35 1 37 27 10 6 131 121 354 247 184 250 852 1311 1393 1491 849 665 875 1305 920 1142 1472 1737 2030 2160 2377 2584 2672 2625 2825 2869 2278 2219 3045 2884 2766 3030 2989 3026 2914 2802
0 0 0 0 39 34 31 18 99 213 314 186 344 574 1038 1221 1458 1619 1370 1011 895 1247 1429 1694 1360 1469 1692 1918 2180 2566 2985 3177 3008 2944 2842 3300 3003 3052 2689 3046 2767 2879 2899 2931
0 0 0 0 8 8 24 27 25 55 306 221 497 848 967 1112 1411 1639 1490 1452 1213 1283 1389 1571 1958 2198 2478 2530 2124 2157 2521 2855 2945 2868 2970 3134 2812 2861 2879 2933 2945 2940 3064 3096
0 0 1 0 0 1 0 5 11 69 80 295 315 670 885 942 1026 1137 1377 1478 1405 1462 1476 1562 1739 1853 1959 2080 2750 2460 2246 2161 2354 2406 2478 2872 3045 2748 2941 3404 2985 3146 3216 3287
0 0 0 0 0 0 0 0 10 28 171 236 342 567 670 637 710 587 901 975 1181 1345 1502 1595 1671 1697 1650 1644 1731 1968 2285 2575 2470 2253 1721 2201 2884 2287 2547 2617 2621 2734 2841 3024
0 0 0 0 0 0 4 6 3 12 65 256 346 419 487 426 570 588 670 807 840 938 1021 1124 1209 1207 1003 779 857 935 918 1240 1529 2590 3559 2880 2923 2281 2277 2245 2421 2477 2508 2622
0 0 0 0 0 0 0 0 0 0 3 54 59 368 308 465 290 422 324 427 621 614 582 533 503 457 588 430 314 584 892 859 1236 1569 2413 2752 2626 2378 2435 2260 2361 2429 2465 2723
0 0 0 0 0 0 0 0 0 3 8 34 43 22 231 225 321 240 301 220 268 394 372 336 236 99 61 385 408 251 789 966 1388 1796 1775 2511 2481 2780 2759 2501 2343 2425 2552 2628
0 0 0 0 0 0 0 0 0 0 0 0 9 10 20 44 166 188 318 337 172 166 172 202 125 29 0 2 365 415 500 491 540 1576 1481 2311 2916 3443 3591 3341 3145 2997 2983 3044
0 0 0 0 0 0 0 0 0 0 0 0 0 0 0 15 237 337 131 235 291 188 122 79 50 0 0 0 4 395 321 786 515 1122 1329 1655 2364 3277 3618 3017 2800 2702 2652 2110
0 0 0 0 0 0 0 0 0 0 0 0 0 0 2 1 2 0 12 120 171 227 106 0 0 0 0 0 0 1 312 332 715 840 894 922 1483 2080 2517 2369 1943 1696 1570 1581
0 0 0 0 0 0 0 0 0 0 0 0 0 0 0 0 0 1 2 0 3 72 137 3 0 0 0 0 0 1 0 278 483 539 656 636 923 1195 1528 2080 2002 2116 2284 1933
4 0 0 0 0 0 0 0 0 0 0 0 0 0 0 0 0 0 0 0 18 10 2 0 0 0 0 0 0 0 4 115 328 350 670 709 736 742 893 1048 1389 1701 1361 1351
20 7 11 16 19 16 8 0 0 0 0 0 0 0 0 0 0 0 0 0 0 0 0 0 2 1 1 0 0 0 1 241 501 549 627 686 645 761 738 786 775 763 578 482
81 53 18 18 25 34 47 58 6 0 0 0 0 0 0 0 0 3 1 0 0 0 0 0 0 0 0 0 0 0 0 187 217 118 320 550 580 528 542 481 367 217 129 64
65 110 89 69 60 59 44 41 35 39 5 0 0 0 0 0 0 0 0 1 8 0 0 0 0 0 0 0 0 0 0 50 91 49 7 29 310 335 240 236 236 145 2 14
64 92 90 93 85 41 3 5 7 12 8 6 0 0 0 0 0 0 0 0 2 3 0 0 0 0 0 0 3 10 30 1 1 17 71 16 17 48 63 84 57 13 1 12
27 27 40 45 1 0 0 0 0 0 0 0 0 0 0 0 0 0 0 0 1 0 0 0 0 0 0 1 5 19 16 8 10 41 3 0 8 26 9 15 4 1 12 11
4 0 7 0 0 0 0 0 0 0 0 0 0 0 3 1 1 6 25 0 0 0 0 0 0 0 0 0 2 0 18 26 4 2 7 8 9 0 30 16 10 2 5 6
9 3 0 0 0 0 0 0 0 0 0 0 6 13 12 18 9 3 2 23 29 23 0 0 0 0 0 0 0 0 0 0 0 0 2 3 10 0 10 10 9 3 10 2

GFSNGP_con_mucape_054.txt.gz
CAPE
0 0 0 0 0 0 0 1 7 29 55 58 0 0 0 0 0 0 0 0 33 247 713 1587 1819 2328 2183 1470 1650 1424 2007 1303 1918 2499 2357 2522 2832 2882 2522 2678 2403 2339 2330 2297
0 0 0 0 0 0 0 0 0 0 0 49 0 0 0 0 9 56 35 126 72 38 512 945 1337 2046 2346 2486 2094 1913 2480 2211 2497 3033 2958 3031 3195 3335 3357 2964 2859 2836 2331 2397
0 0 0 0 0 0 0 0 0 0 0 24 0 0 219 175 157 146 136 242 343 526 361 221 1049 1546 1992 2805 2228 2427 2809 2718 2937 3208 3248 3326 3356 3522 3447 3442 3020 3289 2516 2573
0 15 0 0 0 4 2 0 0 0 0 42 0 86 537 75 45 110 67 72 346 609 768 1072 249 743 1511 1902 2900 2961 3160 3001 3131 3359 3374 3521 3561 3626 3740 3143 3331 3155 2852 3299
61 48 0 26 204 125 158 92 59 12 0 0 0 311 931 74 81 70 53 103 263 525 917 1251 1373 461 1208 1656 2416 2828 3176 3210 3310 3397 3423 3277 3350 3426 3186 3262 3093 3081 2910 3235
122 2 0 53 27 9 16 146 0 0 0 0 19 183 184 18 355 343 317 344 548 1007 1426 1491 1592 379 772 1518 1976 2939 3039 3133 3308 3343 3499 3483 3479 3748 3763 3138 3210 2819 2876 3260
172 79 41 26 50 59 146 88 5 0 0 1 179 62 0 499 633 701 641 582 1167 1832 1733 1365 1150 419 1883 2113 2437 2639 2292 2351 2985 3432 3705 3670 3983 3942 3829 3220 3314 3397 3102 3539
151 22 1 0 0 15 50 32 74 31 31 0 0 51 301 720 817 1115 817 1004 1662 1681 1485 970 1069 1292 2620 2924 2327 2708 2867 2823 3442 3586 2796 2714 4029 3548 3412 3586 3676 3872 3580 3206
104 39 5 0 0 4 39 85 182 89 111 2 102 190 403 730 1027 1265 1175 1325 1397 1765 1715 1476 1453 1650 2000 3232 2931 3068 3171 3473 2887 2912 2864 3698 3727 3437 3262 3497 3266 3189 3171 3116
0 39 0 0 0 0 29 9 153 197 180 300 256 299 483 708 969 1144 1140 1233 1188 1583 1693 2163 2468 2098 2214 2508 2594 2775 2905 3008 3071 3149 3081 2913 3033 3190 3109 3102 3157 3055 3163 3149
0 0 0 0 0 0 0 0 120 214 222 322 380 309 456 732 949 1265 1256 1246 1076 1193 1166 1290 1500 1749 2170 2533 2616 2750 2934 3012 3213 3234 3162 3345 3454 2947 3242 3627 2804 3294 3203 3361
0 0 0 0 0 0 0 0 17 140 238 301 403 417 519 559 784 1086 1116 991 1213 1226 1173 1334 1171 1253 1524 1990 2313 2945 2673 2684 2762 2834 3128 3204 3381 2772 2555 2690 2745 2787 2880 3033
0 0 0 0 0 0 0 0 0 134 160 307 294 351 425 537 721 468 622 831 676 891 985 1084 1464 1491 1528 1632 1802 1983 2345 3043 3058 2539 2824 3095 2837 2927 1970 1811 2109 2676 2726 2889
0 0 0 0 0 0 0 0 0 1 5 71 131 190 164 480 588 276 257 346 477 457 513 802 839 1066 1300 1404 1524 1555 1440 1430 2470 2130 1488 1337 1252 1122 1091 1259 3023 3042 2453 2599
0 0 0 0 0 0 0 0 1 7 55 34 19 90 47 393 475 462 212 145 211 260 392 502 593 663 752 753 821 939 1227 1362 1899 1708 1423 1813 2480 2199 1392 2514 3271 3206 2421 2350
0 0 0 0 0 0 0 0 0 2 20 85 5 7 41 179 242 262 322 179 96 218 195 184 256 355 285 325 359 472 623 524 1027 1890 1914 2073 2182 2250 2693 3483 3493 2813 2062 1974
0 0 0 0 0 0 0 0 0 0 0 0 0 7 0 3 127 41 34 121 204 148 95 146 186 60 23 15 43 163 85 507 561 1258 1719 1746 2090 1969 2314 2527 3140 2917 2315 2741
12 8 3 0 0 0 0 0 0 0 0 0 0 0 1 0 3 4 18 30 11 12 62 4 0 0 0 0 0 0 83 94 565 873 1252 1220 1184 2140 2708 2890 2499 2179 2342 2643
43 21 35 26 26 25 0 0 0 0 0 0 0 0 0 0 0 1 0 0 29 59 31 0 6 0 0 0 0 0 0 0 76 490 1050 699 799 728 1543 2358 2228 1906 1900 1684
64 52 42 51 42 45 49 2 0 0 0 0 0 0 0 0 0 0 0 4 0 11 0 1 0 4 1 0 0 0 0 4 153 329 343 513 613 391 377 786 1735 1456 1474 1488
47 71 47 0 36 40 38 50 38 2 0 0 0 0 0 0 0 0 0 0 0 0 0 0 0 0 0 0 0 0 0 11 6 120 149 161 349 507 497 425 550 829 979 983
25 35 47 28 0 0 23 22 32 43 35 0 0 0 0 0 0 0 0 0 0 0 0 0 0 0 0 0 0 0 0 0 0 0 70 239 346 404 436 421 442 528 604 477
38 34 21 23 22 14 2 7 14 19 25 32 31 0 0 0 0 0 0 0 0 0 0 0 0 0 0 0 0 0 0 0 0 0 0 2 108 211 262 181 454 436 411 216
56 66 58 30 16 7 0 9 6 10 16 19 27 28 23 0 0 0 0 0 0 0 0 0 0 0 0 0 1 0 0 0 0 0 0 0 6 29 21 31 148 61 27 83
57 57 78 39 22 15 5 3 10 15 18 19 19 31 35 47 31 5 1 0 0 0 0 0 0 0 0 0 5 5 6 1 3 1 0 0 0 18 23 14 53 40 59 58
59 60 72 28 16 15 16 23 24 15 26 27 30 34 34 33 29 21 24 19 0 0 0 4 0 0 0 0 0 2 1 6 2 10 9 10 5 5 1 4 3 6 1 23
38 12 52 41 39 30 18 7 39 34 21 38 32 43 43 30 21 26 5 23 17 0 0 0 0 0 0 0 0 0 0 0 0 3 9 10 2 17 10 0 1 6 6 12

GFSNGP_con_mucape_057.txt.gz
CAPE
0 0 0 0 0 15 95 89 86 40 47 82 76 30 52 0 0 0 18 75 229 286 1409 2517 2394 2865 2606 1828 2042 1629 1932 1835 2149 2670 2840 3074 2873 3348 3317 3566 3654 3841 3954 3817
0 0 0 0 0 0 0 0 0 0 4 8 6 112 104 17 26 22 0 0 1 187 499 896 1539 2831 2983 2661 2455 2083 2424 2123 2277 2927 3115 3084 3043 3317 3600 3703 3842 3976 3885 3911
0 9 0 0 0 0 0 0 0 0 0 0 7 11 93 139 167 135 144 104 144 190 122 382 933 1810 2494 3013 2566 2773 2865 2842 2791 3099 3214 3232 3276 3531 3730 3837 3964 4176 4061 3980
159 60 0 1 0 0 0 0 0 0 8 8 6 4 40 807 433 327 318 316 388 476 507 541 503 900 1398 2121 3235 3147 3121 3526 3074 3532 3438 3563 3711 3764 3952 3985 4002 4124 4168 4208
216 130 57 18 82 142 13 0 38 31 0 1 38 1 11 90 444 562 602 657 638 599 584 793 974 779 870 1833 3317 3256 3697 3393 3606 3494 3839 3903 3903 3970 4098 4127 4138 4095 4170 4312
234 142 8 42 162 14 39 52 129 256 16 13 24 85 41 228 195 203 338 660 931 1036 1060 1186 1366 1367 1309 946 2392 3500 3627 3525 3828 3732 4025 4052 4123 4240 4279 4208 4179 3612 3926 4310
278 223 120 318 86 0 17 49 59 68 116 158 189 358 165 1 1 94 164 470 747 1614 1727 1897 2086 1774 2103 1525 2155 3165 3509 3738 4120 4036 4173 4293 4450 4439 4451 4387 3724 4296 4167 4267
356 220 149 278 91 6 1 39 25 3 3 18 65 0 0 0 251 425 606 627 1105 1849 2356 2247 2208 2309 3111 2770 2327 3459 3695 3892 4138 4295 3696 3648 4488 4483 4478 4474 4495 4703 4540 4367
227 210 385 121 34 53 0 1 11 0 0 12 0 0 2 66 461 626 890 1081 1367 1642 2975 2903 2223 1840 2996 2749 3727 3917 4059 4115 4171 4252 4226 4238 4424 4590 4076 4442 3503 3546 3409 3165
75 87 7 0 7 0 0 0 1 0 0 3 2 3 33 165 439 766 912 1285 1376 1706 1664 1874 2032 2537 2980 3024 3833 4185 4219 4253 4288 4192 4197 4189 3790 3755 3442 3258 3264 3111 3051 2922
0 0 0 0 0 0 0 0 11 9 88 110 67 13 104 269 527 660 800 1021 1240 1458 1517 1494 1828 1851 1905 2158 3693 3207 3992 3807 3934 3504 3436 3948 3774 3369 3344 3638 2899 3200 2716 2450
0 0 0 0 0 0 0 0 0 26 114 106 99 83 84 345 513 562 769 1040 1308 1396 1291 1231 1287 1349 1511 1786 2259 3306 3222 3394 3136 3077 3471 3469 3429 2569 2650 2648 2494 2411 2504 2487
0 0 0 0 0 0 0 0 0 0 0 3 11 98 281 337 444 517 629 793 1050 1422 1251 1143 1154 1082 1587 1913 2015 2755 3351 3409 3407 2844 3433 3890 3759 3110 2717 2599 2648 2589 2575 2642
0 0 0 0 0 0 0 0 0 0 0 0 0 0 14 112 326 534 588 583 765 966 1127 990 899 886 1066 1738 1896 2024 2450 2714 3512 3247 3195 3551 3523 3451 3191 2826 2261 2634 2185 2243
0 0 0 0 0 0 0 0 0 0 0 0 0 0 1 22 61 208 429 500 627 733 826 751 902 1031 1165 1484 1638 1915 2073 2154 2323 2727 2857 2832 2833 2216 1140 1098 1482 1360 1625 1830
36 0 0 0 0 0 0 0 0 0 0 1 0 0 0 0 3 3 12 76 248 309 361 307 262 299 497 704 886 1220 1236 1765 1714 1856 1297 1418 1253 1374 1013 1059 836 381 363 1319
28 0 0 0 0 0 0 0 0 0 0 0 0 0 0 0 0 0 0 0 0 11 6 40 55 12 17 41 186 391 378 708 913 1680 2082 1310 1595 1137 1429 1958 2252 2611 2287 1388
19 24 30 39 43 7 0 0 0 0 0 0 0 0 0 0 0 0 0 0 1 4 0 0 0 0 0 0 0 0 0 64 325 1295 1235 1644 1696 1638 1930 2237 2299 1958 2233 2386
14 2 19 15 20 29 37 0 0 0 0 0 0 0 0 0 0 0 1 0 3 5 0 0 0 0 0 0 0 0 0 0 0 629 986 804 1037 1006 1397 1644 1747 1713 1927 1905
40 14 19 21 14 20 31 24 9 0 0 0 0 0 0 0 0 0 0 0 0 2 0 0 0 0 0 0 3 0 0 0 6 288 467 402 473 508 849 1744 1703 1744 1775 1867
44 32 6 24 23 29 21 19 26 18 14 0 0 0 0 0 0 0 0 0 0 0 0 0 0 0 0 0 0 0 0 14 1 33 16 5 201 269 169 198 893 1591 1106 1625
51 49 17 6 30 20 25 25 29 37 26 18 6 0 0 0 0 0 0 0 0 0 0 0 0 0 0 0 0 0 0 0 0 0 0 2 2 16 134 295 257 223 840 1276
71 71 45 21 26 33 32 32 30 37 39 43 32 32 24 0 0 0 0 0 0 0 0 0 0 0 0 0 0 1 0 0 0 0 1 1 10 69 134 206 271 245 270 441
43 83 67 65 28 37 44 41 26 33 31 30 40 53 33 20 33 0 0 0 0 0 0 0 0 0 0 0 0 4 5 6 3 0 0 0 0 4 7 66 170 218 75 45
134 87 80 55 51 32 34 29 30 35 37 32 37 39 40 34 44 40 31 0 0 0 0 0 0 0 0 0 0 0 0 5 1 7 5 1 0 0 12 18 11 22 73 83
159 103 48 42 24 32 44 35 32 36 38 49 40 47 31 41 49 39 35 39 17 0 0 0 0 0 0 0 0 0 0 3 0 1 1 1 1 6 8 11 9 11 25 18
127 19 115 64 31 32 19 2 41 35 13 21 46 68 37 52 46 33 10 33 20 15 0 0 0 0 0 0 0 0 0 0 0 0 0 0 0 0 2 1 7 16 18 17

GFSNGP_con_mucape_060.txt.gz
CAPE
0 0 0 0 0 0 0 0 21 0 7 0 63 95 60 112 116 49 36 280 167 672 924 1490 1742 1770 1707 1612 1395 1413 1591 1783 2111 2264 2075 2108 1857 1966 1281 2039 2489 2755 2854 3078
0 0 0 0 0 0 0 0 0 13 0 0 0 41 12 61 165 466 198 74 231 373 909 1048 2040 2178 2054 1867 1791 1665 1669 1763 1937 2275 2242 2317 1987 2223 2267 2157 2438 2815 2966 3054
0 15 7 0 0 0 0 0 0 0 0 0 0 0 46 87 108 364 875 506 732 756 819 606 719 1316 2489 2407 2075 2047 2094 1962 2022 2384 2457 2291 2524 2126 2735 2436 2731 2795 2941 3109
100 64 0 0 0 0 0 0 0 0 0 0 0 0 0 0 131 127 577 772 703 346 537 470 13 211 2570 2693 2765 2748 2262 2513 2305 2277 2391 2554 2496 2715 2457 2852 2717 2958 3006 3074
79 92 10 2 25 98 135 1 0 22 3 0 0 0 1 231 394 188 281 271 615 525 635 1241 1337 1422 1895 2837 2742 2474 3015 2458 2803 2248 2564 2558 2653 2583 2704 2742 2945 2952 3081 3206
177 71 3 1 93 36 26 0 87 0 0 0 8 35 45 80 19 10 9 32 340 640 764 1192 1393 1379 1390 1603 3295 2706 2424 3063 2681 2724 2625 2773 2722 2769 2829 2910 2938 3050 3044 3185
214 173 90 213 129 55 13 6 15 0 1 0 12 49 40 75 0 0 0 6 17 91 619 1359 2415 2006 1698 1725 1802 3350 2836 2560 3400 3444 2813 3201 3127 3108 3190 3234 3200 3356 3338 3358
266 152 74 291 131 101 133 21 12 0 0 0 12 22 0 0 0 0 1 75 317 457 983 2323 3124 2947 2350 2368 2104 2717 3600 3117 3451 3384 3382 3176 3669 3645 3527 3513 3571 3596 3603 3695
26 117 312 127 60 33 7 11 0 0 0 0 0 8 8 0 0 4 0 261 710 814 1337 2040 2167 1981 3400 3328 3177 2810 4018 3528 3675 3860 3759 3404 3807 3770 3849 3849 3714 3613 3655 3643
1 81 3 10 10 10 5 11 8 3 0 0 1 0 0 0 0 23 44 137 469 818 982 1508 1672 1559 1769 2391 3439 3692 2828 3991 3842 4015 3851 3597 3789 3814 3898 3873 3851 3743 3421 3789
0 0 0 7 0 0 0 0 0 0 0 5 3 0 0 0 13 40 133 230 389 646 597 815 1154 1559 1704 2115 2696 3368 3972 4013 3951 3905 3448 3811 3461 3816 3803 3729 3635 3624 3593 3280
0 0 0 0 0 0 0 0 0 0 2 2 2 0 0 0 12 13 46 118 340 501 563 676 1150 1437 1944 2166 2243 2881 4200 4065 3784 3719 3685 3739 3352 3202 3305 3442 3220 3247 3116 3104
0 0 0 0 0 0 0 0 0 0 9 3 2 0 2 5 9 22 0 18 266 439 552 621 1196 1387 1593 1847 2122 2123 2359 3967 3492 3006 3287 3445 3380 2979 2883 3124 2944 2668 2718 2564
2 0 0 0 0 0 0 0 0 0 0 0 1 3 6 11 30 12 14 203 260 422 608 741 905 1248 1225 1100 1419 1805 2032 2272 3070 3028 2681 3078 3404 3217 2741 2766 2703 2591 2483 2449
12 11 0 0 0 0 0 0 0 0 0 0 0 0 3 1 2 57 33 34 125 275 462 591 753 843 892 913 921 1290 1387 1881 2008 2170 2481 2491 3153 3301 3016 3038 3033 2902 2523 2369
18 25 24 15 0 0 0 0 0 0 0 0 0 0 1 0 0 0 0 21 212 307 358 475 574 601 656 723 509 358 927 1316 1683 1583 1648 1695 1991 2068 2579 2548 2916 2310 1880 1450
0 22 6 21 55 0 0 0 0 0 0 0 0 0 0 0 0 0 0 0 0 36 93 332 367 391 278 600 595 604 26 810 907 1110 1317 1235 1467 1480 1452 1343 907 640 819 777
3 37 4 11 27 43 5 0 0 0 0 0 0 0 0 0 0 0 0 0 6 0 1 0 3 58 166 178 369 560 481 429 550 809 688 1157 1203 1578 1883 1408 1043 773 811 545
23 11 9 24 13 30 70 25 0 0 0 0 0 0 0 0 0 0 0 0 0 0 1 1 0 0 0 0 0 6 195 378 554 422 449 458 572 365 770 591 654 896 766 1360
65 51 50 24 20 34 32 58 40 44 6 0 0 0 0 0 0 0 0 0 0 0 0 0 0 0 0 0 0 0 1 115 71 86 131 243 323 338 326 389 161 628 425 525
46 70 69 67 34 22 32 78 43 38 38 32 41 3 0 0 0 0 0 0 0 0 0 1 7 0 0 0 0 0 0 0 0 0 0 25 20 85 131 127 606 749 797 980
76 43 38 57 42 43 26 30 29 78 42 34 44 75 61 0 0 0 0 0 0 0 0 0 0 0 0 0 0 0 0 0 0 0 0 0 0 2 19 61 170 172 249 590
126 125 44 61 42 46 43 31 19 17 37 51 50 52 22 7 3 0 0 0 0 0 0 0 0 0 0 0 0 0 1 0 0 0 0 0 0 0 1 4 12 74 121 80
187 130 162 37 41 52 48 56 38 34 123 180 65 89 37 37 2 1 0 0 2 6 0 0 0 0 0 0 1 9 4 6 0 0 0 0 1 8 8 6 15 52 101 107
68 134 122 100 56 95 57 47 55 107 54 174 21 59 33 16 5 9 12 0 0 0 0 0 0 0 0 0 0 0 1 5 5 6 6 0 0 0 11 15 12 43 78 51
233 115 129 100 27 27 32 19 46 14 24 66 46 47 43 18 34 44 56 26 13 2 0 0 0 0 0 0 0 0 0 2 1 2 3 3 8 6 0 0 9 8 10 18
321 53 140 73 38 32 2 8 41 41 10 37 57 48 61 33 19 17 11 17 7 9 8 9 8 3 0 0 0 0 0 0 0 0 0 0 0 4 5 5 7 6 2 4

GFSNGP_con_mucape_066.txt.gz
CAPE
0 0 0 0 0 0 0 0 0 0 0 0 0 76 195 137 65 206 256 153 101 160 111 125 120 355 433 450 502 674 578 664 512 703 747 450 197 17 150 266 457 301 1066 1662
0 0 0 0 0 0 0 0 0 0 0 0 0 0 0 9 2 75 158 182 214 142 134 156 89 63 337 383 475 794 832 802 913 650 862 852 671 506 194 9 178 539 920 1130
0 0 0 0 0 0 0 0 0 0 0 0 0 0 0 0 0 27 89 119 89 130 75 48 87 58 61 100 475 495 1097 1126 1157 1237 1017 943 928 870 763 532 81 280 593 1217
0 0 0 0 0 0 0 0 0 0 0 0 0 0 0 0 0 0 0 160 121 34 176 38 87 227 188 281 319 684 751 1394 1559 1497 1439 1355 1153 1020 990 896 748 409 549 540
0 0 0 0 0 0 0 0 0 0 0 0 0 10 0 0 0 0 0 4 174 18 49 92 122 304 421 431 377 597 1024 993 1164 1672 1595 1518 1433 1300 1187 1132 1043 982 580 1036
0 0 0 0 0 4 0 0 0 0 0 0 0 0 0 0 0 0 0 0 0 1 1 43 31 397 502 642 241 157 965 1056 1065 1099 1510 1610 1509 1452 1364 1311 1217 1138 1046 857
0 2 1 0 0 68 32 0 0 0 0 0 0 0 0 0 0 0 0 0 0 0 0 4 28 129 478 433 412 545 475 846 1085 976 1241 1479 1506 1476 1438 1394 1309 1240 1186 1066
0 0 1 0 0 10 0 0 0 0 0 0 0 0 0 0 0 0 0 0 0 0 0 7 0 0 10 274 327 416 551 461 581 1495 1602 1735 1504 1542 1465 1407 1400 1308 1350 1429
0 9 2 0 0 0 0 0 0 0 0 0 0 0 0 0 0 0 0 0 0 0 0 0 0 0 3 1 106 92 85 218 341 1000 1887 1745 1852 1686 1583 1466 1481 1523 1335 1269
0 0 0 0 0 0 0 0 0 0 0 0 0 0 0 0 0 0 0 0 0 0 0 0 0 0 0 0 34 108 354 146 324 856 1833 2035 1946 1935 1805 1667 1525 1524 1660 1587
0 0 0 0 0 0 0 0 0 0 0 0 0 0 0 0 0 0 0 0 0 0 2 0 0 1 0 2 27 75 231 557 847 1252 1890 2210 2060 2104 2026 1922 1751 1656 1615 1620
0 0 0 0 0 0 0 0 0 0 0 0 0 0 0 0 3 3 0 9 1 0 2 0 0 4 2 0 2 18 83 330 1104 1431 2065 2436 2432 2290 2221 2155 2038 1903 1758 1737
0 0 0 0 0 0 0 0 0 0 0 0 0 0 0 2 14 12 29 22 12 17 0 0 0 0 0 0 3 5 145 148 837 1554 2384 2640 2537 2563 2426 2398 2283 2121 2022 1968
0 0 0 0 0 1 0 0 0 0 0 0 0 0 0 6 12 28 19 37 16 8 0 0 0 0 0 0 0 14 82 272 530 836 1703 2516 2973 2827 2638 2508 2636 2558 2529 2411
0 0 0 0 0 0 8 0 0 0 0 0 0 0 4 6 13 23 36 24 15 7 0 0 0 0 0 0 0 0 20 308 565 731 956 1524 2496 2988 2895 2717 2474 2557 2705 2824
0 0 0 0 0 0 0 0 0 0 0 0 0 0 0 0 2 27 22 26 18 19 5 0 0 0 0 0 1 8 64 331 259 389 474 803 1313 1690 2024 2332 2464 2371 2239 2471
0 0 0 0 0 0 0 0 2 0 0 0 0 0 0 0 0 2 0 17 12 20 18 1 0 0 0 0 0 91 230 364 470 430 512 781 557 804 1552 1846 1865 1898 1845 1673
0 0 0 0 0 2 0 9 3 17 3 0 0 0 0 0 0 0 0 15 0 8 11 16 9 0 0 0 0 53 246 197 272 199 282 435 576 643 883 1244 1348 1423 1532 1525
3 0 0 0 0 5 0 17 6 18 12 12 8 0 0 0 0 0 0 0 0 0 0 4 10 11 0 0 0 1 53 199 196 304 341 477 598 632 555 577 956 1036 1125 1262
20 34 20 0 0 3 14 9 2 5 7 17 28 10 0 0 0 0 0 0 0 0 0 0 1 9 8 0 0 7 11 203 141 89 282 441 303 168 201 87 124 379 882 934
27 27 64 52 11 4 1 0 0 0 1 4 9 1 0 1 0 0 0 0 0 0 0 0 0 0 0 1 1 10 41 58 182 178 98 284 86 46 117 141 236 243 386 518
31 50 11 6 5 0 0 0 0 0 0 3 0 0 0 7 0 0 0 0 0 0 0 0 0 0 0 0 0 1 1 2 187 75 2 19 37 3 9 45 124 127 57 49
26 12 0 1 6 14 3 0 0 0 0 0 1 0 0 0 0 0 0 0 0 0 0 0 0 0 0 1 0 0 1 3 6 24 0 0 3 28 26 72 78 90 41 75
12 16 24 14 24 7 1 0 3 0 2 11 3 0 0 0 2 3 0 0 0 0 0 0 0 0 0 0 0 0 0 0 0 0 0 0 22 0 0 6 59 114 150 49
79 24 17 22 40 6 1 1 0 0 0 0 9 0 0 0 7 6 10 10 8 19 33 9 0 0 0 0 0 0 0 0 0 4 0 2 0 0 9 11 2 1 0 7
69 34 0 0 8 0 1 2 7 16 12 0 0 0 0 0 0 0 2 2 1 2 3 5 0 0 0 0 0 0 0 0 0 0 0 0 0 0 8 7 18 10 2 5
0 0 13 0 0 0 0 0 12 29 30 3 0 9 3 3 0 4 6 1 0 0 0 0 0 0 0 0 0 0 0 0 0 0 0 0 0 0 0 1 7 8 7 9

GFSNGP_con_mucape_069.txt.gz
CAPE
0 0 0 0 0 0 0 0 0 0 0 0 0 0 0 0 252 297 466 381 292 233 313 197 283 284 196 162 209 223 191 244 336 290 219 135 72 36 34 199 284 352 328 1119
0 0 0 0 0 0 0 0 0 0 0 0 0 0 0 0 0 16 262 312 259 349 245 189 79 43 53 253 342 374 420 340 339 343 354 310 251 128 62 19 38 119 200 254
0 0 0 0 0 0 0 0 0 0 0 0 0 0 0 0 0 0 0 79 176 227 167 193 108 128 258 184 186 429 521 433 404 412 452 541 426 352 224 147 120 25 24 139
0 0 0 0 0 0 0 0 0 0 0 0 0 0 0 0 0 0 0 20 76 105 84 119 155 237 550 468 326 298 516 608 554 585 544 571 677 552 486 416 351 268 233 103
0 0 0 0 0 0 0 0 0 0 0 0 0 0 0 0 0 0 0 0 0 82 50 146 86 133 538 994 409 242 461 737 930 845 952 841 798 767 714 672 675 664 604 508
0 0 0 0 0 0 0 0 0 0 0 0 0 0 0 0 0 0 0 0 0 0 120 50 84 116 96 305 434 316 207 547 946 1308 1454 1347 1265 1239 1156 1041 991 968 922 836
0 0 0 0 0 0 0 0 0 0 0 0 0 0 0 0 0 0 0 0 0 0 0 5 0 55 94 155 199 261 289 339 580 916 834 864 1317 1451 1441 1380 1240 1201 1155 1064
0 0 0 0 0 0 0 0 0 0 0 0 0 0 0 0 0 0 0 0 0 0 0 0 0 1 0 14 86 159 207 193 177 443 664 864 1393 1362 1384 1398 1359 1271 1250 1188
0 0 0 0 0 0 0 0 0 0 0 0 0 0 0 0 0 0 0 0 0 0 0 0 0 0 0 92 0 1 135 70 129 102 250 342 1212 1569 1398 1371 1509 1460 1308 1266
0 0 0 0 0 0 0 0 0 0 0 0 0 0 0 0 0 0 0 0 0 0 0 0 0 0 0 0 0 0 0 100 102 107 191 186 825 1522 1525 1482 1478 1470 1375 1311
0 0 0 0 0 0 0 0 0 0 0 0 0 0 0 0 0 0 0 0 0 4 15 5 0 0 0 0 0 0 0 26 145 112 26 336 517 1367 1662 1703 1630 1579 1539 1456
0 0 0 0 0 0 0 0 0 0 0 0 0 0 0 0 0 0 0 0 0 2 9 4 2 0 0 0 0 0 0 2 79 96 35 58 612 1018 1851 2058 1826 1619 1685 1722
0 0 0 0 0 0 0 0 0 0 0 0 0 0 0 0 0 20 19 4 42 42 4 4 1 0 0 0 0 0 0 0 0 0 11 58 254 966 1554 2073 2116 2025 1895 1897
0 0 0 0 0 0 0 8 0 0 0 0 0 0 0 0 3 0 32 17 38 21 13 1 0 0 0 0 0 0 0 0 0 0 0 0 39 615 1384 2076 2257 2271 2161 2095
0 0 0 0 0 0 0 0 0 0 0 0 0 0 0 0 0 11 9 23 20 19 34 13 0 0 0 0 0 0 0 0 0 0 0 0 25 331 732 1792 2292 2374 2439 2332
0 0 0 0 0 0 2 0 0 0 0 0 0 0 0 0 0 0 0 12 12 16 22 3 1 0 0 0 0 0 0 0 0 0 0 0 58 146 257 384 1185 2437 2486 2395
0 0 0 0 0 1 13 14 10 1 0 11 0 0 0 0 0 0 0 0 8 5 4 22 7 0 0 0 0 0 0 0 0 0 11 36 48 281 240 525 913 1462 1871 2175
0 0 0 0 0 1 25 27 12 4 2 2 4 10 0 0 0 0 0 0 0 0 10 11 4 1 1 0 0 0 0 0 0 0 25 112 207 124 140 265 789 780 1385 1647
12 10 9 1 0 0 6 14 17 7 2 0 3 10 0 0 0 0 0 0 0 0 0 0 0 1 12 6 0 0 0 0 0 0 11 208 116 189 181 262 319 666 900 950
14 24 22 4 0 2 13 6 13 16 8 11 13 4 0 0 0 0 0 0 0 0 0 0 0 0 1 6 10 1 0 0 0 0 10 80 215 327 335 371 286 477 639 653
35 25 23 28 37 42 2 7 0 9 10 14 14 3 0 0 0 0 0 0 0 0 0 0 0 0 0 2 15 11 1 0 0 0 42 141 208 225 313 378 255 470 569 451
50 47 62 39 3 31 4 0 0 3 8 21 11 3 0 0 0 0 0 0 0 0 0 0 1 3 3 0 5 11 8 4 0 0 27 13 69 196 339 500 423 429 412 462
37 48 75 33 0 10 14 0 1 0 17 25 4 0 0 0 0 0 0 0 0 0 0 0 0 1 6 10 16 5 15 10 2 6 12 3 46 87 71 242 264 335 237 177
15 23 16 4 9 19 1 4 5 11 14 23 7 4 0 0 0 4 8 9 11 11 34 0 0 0 0 2 12 11 0 3 1 4 2 0 1 1 0 7 15 8 32 64
16 6 2 0 11 11 1 1 9 18 0 0 10 16 28 9 2 5 10 6 0 6 9 39 0 0 0 0 0 0 0 0 0 0 0 0 25 12 2 3 10 15 1 3
34 39 59 11 13 3 7 4 8 2 0 4 4 10 19 18 17 13 0 0 0 0 5 17 0 0 0 0 0 0 0 0 0 0 1 0 0 0 5 9 7 4 4 4
1 6 31 11 7 0 1 12 9 14 6 4 8 10 9 7 14 16 7 6 4 0 0 3 5 0 0 0 0 0 0 0 0 0 0 1 0 0 0 0 0 5 3 0

GFSNGP_con_mucape_072.txt.gz
CAPE
0 0 0 0 0 0 0 0 0 0 0 0 0 0 0 0 27 41 524 663 418 300 304 316 320 315 296 198 262 284 295 260 225 229 156 84 0 0 8 17 21 91 206 597
0 0 0 0 0 0 0 0 0 0 0 0 0 0 0 0 0 0 0 267 698 605 386 251 191 194 195 296 335 306 275 275 302 260 247 170 126 36 0 0 36 0 36 323
0 0 0 0 0 0 0 0 0 0 0 0 0 0 0 0 0 0 0 15 73 262 493 395 320 170 242 277 192 169 278 307 301 300 313 306 261 165 79 67 37 9 5 28
0 0 0 0 0 0 0 0 0 0 0 0 0 0 0 0 0 0 0 0 0 0 21 142 186 198 474 505 500 254 225 386 322 290 355 401 374 321 276 247 218 175 109 69
0 0 0 0 0 0 0 0 0 0 0 0 0 0 0 0 0 0 0 0 0 0 0 40 138 106 124 684 679 304 199 363 517 466 436 462 510 559 448 495 522 440 352 298
0 0 0 0 0 0 0 0 0 0 0 0 0 0 0 0 0 0 0 0 0 0 0 0 6 53 93 88 116 229 296 184 689 744 765 806 659 664 597 601 633 732 751 732
0 0 0 0 0 0 0 0 0 0 0 0 0 0 0 0 0 0 0 0 0 0 0 0 0 0 19 58 48 20 82 197 208 706 1079 1421 1157 1133 929 873 875 1111 1152 1149
0 0 0 0 0 0 0 0 0 0 0 0 0 0 0 0 0 0 0 0 0 0 0 0 0 0 1 2 0 29 48 65 152 189 307 705 1114 1226 996 1290 1150 1043 1069 1167
0 0 0 0 0 0 0 0 0 0 0 0 0 0 0 0 0 0 0 0 0 0 0 0 0 0 0 0 0 0 0 38 65 87 128 165 285 328 767 1168 1391 1341 1295 1170
0 0 0 0 0 0 0 0 0 0 0 0 0 0 0 0 0 0 0 0 0 0 0 0 0 0 0 0 0 0 0 2 0 0 85 123 78 113 233 1183 1325 1449 1515 1400
0 0 0 0 0 0 0 0 0 0 0 0 0 0 0 0 0 0 0 0 0 0 0 0 4 0 0 0 0 0 0 0 0 0 0 0 5 48 123 491 1385 1421 1495 1478
0 0 0 0 0 0 0 0 0 0 0 0 0 0 0 0 0 0 0 0 0 0 0 0 15 10 0 0 0 0 0 0 0 1 0 4 0 27 10 131 702 1576 1461 1366
0 0 0 0 0 0 0 0 0 0 0 0 0 0 0 0 0 0 0 0 28 7 0 1 8 9 2 0 0 0 0 0 0 0 0 0 0 0 9 0 197 866 1863 1836
0 0 0 0 0 0 0 0 0 0 1 0 0 0 0 0 0 0 0 0 0 15 3 20 10 5 8 1 0 0 0 0 0 0 0 0 0 0 0 0 10 441 861 1555
0 0 0 0 0 0 0 0 0 0 0 5 0 0 0 0 0 0 0 0 0 0 8 7 4 1 0 1 0 0 0 0 0 0 0 0 0 0 0 0 0 151 463 1182
0 0 0 0 0 0 0 1 0 0 0 12 0 0 0 0 0 0 0 0 0 0 1 0 8 14 0 1 0 0 0 0 0 0 0 0 0 0 0 0 0 30 144 676
0 0 0 0 0 0 0 2 0 0 0 0 6 5 5 0 0 0 0 0 0 0 0 0 3 1 2 0 0 0 0 0 0 0 0 0 0 0 0 0 1 114 163 393
0 0 0 0 0 0 0 0 7 0 0 0 0 5 9 0 0 0 0 0 0 0 0 0 2 0 7 1 0 0 0 0 0 0 0 0 0 0 0 0 11 104 89 396
3 0 5 2 2 0 0 0 4 7 0 2 0 4 12 0 0 0 0 0 0 0 0 0 0 0 0 10 3 3 0 0 0 0 0 0 0 0 0 0 0 31 42 113
23 14 9 14 23 11 8 9 10 5 3 1 1 5 5 0 0 0 0 0 0 0 0 0 0 0 0 0 2 5 6 4 1 0 0 0 0 0 0 0 0 5 59 485
7 22 28 29 18 24 23 19 0 0 0 1 0 9 0 0 0 0 0 0 0 0 0 0 0 0 0 0 0 0 10 17 10 13 28 30 19 0 0 0 0 4 260 256
0 0 2 31 37 28 28 19 0 1 0 3 0 12 0 0 0 0 0 3 16 9 0 0 0 0 0 0 0 0 7 12 24 57 47 60 20 12 11 16 53 48 113 269
16 15 34 39 23 6 0 4 1 0 4 20 8 2 0 0 0 0 0 1 15 27 54 0 0 0 0 0 1 0 0 13 15 41 37 31 10 21 9 27 92 115 194 308
15 6 16 11 5 4 12 19 0 0 14 19 6 1 1 0 0 6 10 3 0 20 28 34 0 0 0 0 0 0 1 2 2 29 54 37 9 3 4 20 53 171 329 580
10 1 25 13 4 0 1 0 2 6 18 29 27 17 15 16 5 9 3 0 2 18 21 22 4 0 0 0 0 0 0 0 13 0 11 22 14 5 1 0 1 4 16 20
3 18 53 48 9 0 14 6 0 13 15 16 17 13 14 13 3 4 0 4 2 9 35 33 0 0 0 0 0 0 0 0 0 0 0 4 2 7 7 4 6 2 9 9
4 7 24 16 9 5 3 7 0 21 17 16 5 14 6 2 6 6 3 0 1 0 4 11 1 0 1 0 0 0 0 0 0 0 0 0 0 0 0 9 1 0 0 6

GFSNGP_con_mucape_075.txt.gz
CAPE
0 0 0 0 0 0 0 0 0 0 0 0 0 0 0 0 0 2 222 301 323 478 457 366 320 421 394 353 353 386 560 529 613 809 477 325 876 1336 1106 1098 1070 1172 1341 1473
0 0 0 0 0 0 0 0 0 0 0 0 0 0 0 0 0 0 0 0 112 149 269 279 263 270 291 266 309 317 383 713 945 965 1067 1066 1175 1274 1270 1090 1079 1124 1026 1372
0 0 0 0 0 0 0 0 0 0 0 0 0 0 0 0 0 0 0 0 0 12 96 123 119 166 197 246 344 475 575 624 730 1092 1067 1230 980 1022 1119 1268 1146 1169 1027 1024
0 0 0 0 0 0 0 0 0 0 0 0 0 0 0 0 0 0 0 0 0 0 7 40 84 258 416 428 418 498 832 679 862 854 901 1082 1116 1062 1215 912 1086 1043 984 1178
0 0 0 0 0 0 0 0 0 0 0 0 0 0 0 0 0 0 0 0 0 0 0 1 1 3 94 265 504 409 430 267 264 712 1157 1049 1124 1196 1184 977 845 799 841 984
0 0 0 0 0 0 0 0 0 0 0 0 0 0 0 0 0 0 0 0 0 0 0 0 0 6 8 38 74 141 330 318 268 396 552 1225 1282 1370 1359 1378 1118 960 839 860
0 0 0 0 0 0 0 0 0 0 0 0 0 0 0 0 0 0 0 0 0 0 0 0 0 0 0 0 23 62 67 128 211 202 478 695 1043 1748 1531 1693 1658 1578 1492 1392
0 0 0 0 0 0 0 0 0 0 0 0 0 0 0 0 0 0 0 0 0 0 0 0 0 0 0 0 0 0 16 17 54 96 212 267 578 793 1075 1211 1431 1702 1758 1832
0 0 0 0 0 0 0 0 0 0 0 0 0 0 0 0 0 0 0 0 0 0 0 0 0 0 0 0 18 0 0 0 29 52 45 66 103 123 465 555 1000 1584 1763 1757
0 0 0 0 0 0 0 0 0 0 0 0 0 0 0 0 0 0 0 0 0 0 0 0 0 0 0 12 29 0 0 0 0 0 0 0 0 10 30 103 498 774 1577 2015
0 0 0 0 0 0 0 0 0 0 0 0 0 0 0 0 0 0 0 0 0 0 0 0 0 0 0 3 32 1 0 0 0 0 0 0 0 0 7 27 87 577 1150 1531
0 0 0 0 0 0 0 0 0 0 0 0 0 0 0 0 0 0 0 0 0 0 13 8 25 30 13 17 18 1 0 0 0 0 0 0 0 0 0 0 0 21 147 503
0 0 0 0 0 0 0 0 0 0 0 0 0 0 0 0 0 0 0 0 0 0 0 0 0 6 9 9 10 0 0 0 0 0 0 0 0 0 0 0 0 0 0 2
0 0 0 0 0 0 0 0 0 5 5 8 12 2 0 0 0 0 0 0 0 0 0 0 0 7 6 8 12 4 0 0 0 0 0 0 0 0 0 0 0 0 0 0
0 0 0 0 0 0 0 0 0 6 6 5 5 1 8 10 0 0 0 0 0 0 0 0 0 0 6 2 0 0 0 0 0 0 0 0 0 0 0 0 0 0 0 0
0 0 0 0 0 0 0 0 0 6 0 0 0 1 10 15 0 0 0 0 0 0 0 0 0 0 0 6 0 0 0 0 0 0 0 0 0 0 0 0 0 0 0 3
0 0 0 0 0 0 0 3 0 13 19 4 7 12 23 24 9 0 0 0 0 0 0 0 0 0 0 1 4 0 0 0 0 0 0 0 0 0 0 0 0 0 0 12
0 0 0 4 14 0 0 0 0 0 7 22 19 9 16 7 11 3 0 0 0 0 0 0 0 0 0 0 0 0 0 0 0 0 0 0 0 0 0 0 0 0 0 0
1 0 0 0 0 4 3 0 0 11 20 3 8 18 23 0 1 0 0 0 0 0 0 0 0 0 0 0 0 0 0 0 0 0 0 0 0 0 0 0 0 0 0 0
78 73 59 22 6 20 24 7 11 25 14 3 0 31 18 9 0 3 18 4 8 51 0 62 0 0 0 0 0 0 0 0 0 1 4 0 0 0 0 0 0 0 0 0
70 83 93 125 193 126 23 36 65 81 45 17 55 87 78 9 0 1 52 96 33 26 41 7 29 0 0 0 0 0 0 0 0 1 7 1 2 0 0 8 6 0 0 0
68 59 54 51 111 204 167 101 40 60 78 80 104 109 71 22 7 6 37 59 67 46 117 72 74 0 0 0 0 0 0 0 0 0 4 21 11 9 12 16 6 9 1 2
43 57 118 108 39 95 46 33 15 15 88 136 181 126 29 0 5 18 58 82 93 103 119 70 14 0 0 0 0 0 0 1 0 9 12 33 54 57 36 22 25 24 22 5
56 47 21 13 12 18 70 88 0 0 34 143 190 101 3 0 9 59 78 50 12 27 84 73 1 0 0 0 0 0 0 0 0 8 19 36 49 62 74 74 45 63 68 10
8 22 113 52 44 45 7 2 0 0 2 134 116 48 1 20 48 58 95 62 4 24 57 20 0 0 2 0 0 0 0 0 0 0 0 12 10 17 4 30 60 62 50 138
61 72 48 88 27 0 7 7 0 0 27 67 67 33 16 46 57 61 10 3 34 28 72 72 30 58 52 6 0 0 0 0 0 0 0 0 0 0 0 31 52 41 3 13
69 17 105 87 19 0 11 20 62 6 31 59 52 16 5 27 29 11 4 6 8 22 26 50 67 59 58 28 3 0 0 0 0 0 0 0 0 0 0 2 0 0 1 2

GFSNGP_con_mucape_078.txt.gz
CAPE
0 0 0 0 0 0 0 0 1 0 2 5 8 3 2 1 0 10 63 132 309 497 337 351 352 173 244 324 390 1112 1012 1012 1119 1304 1221 1175 1010 1344 1569 1744 1783 1792 1622 1735
0 0 0 0 0 0 0 0 0 0 0 4 3 0 0 0 0 0 0 2 83 64 108 138 151 189 284 242 328 556 1085 1131 1348 1323 1428 1536 1371 913 1540 1710 1871 1904 1837 1567
0 0 0 0 0 0 0 0 0 0 0 0 0 0 0 0 0 0 0 0 0 0 8 21 79 87 188 248 243 508 725 1292 1071 1228 1556 1589 1630 1713 1629 1616 1827 2012 1881 1821
0 0 0 0 0 0 0 0 0 0 0 0 0 0 0 0 0 0 0 0 0 0 0 0 0 82 275 400 408 511 506 579 734 818 1255 1785 1875 1919 1810 1760 1743 1767 1803 2166
0 0 0 0 0 0 0 0 0 0 0 0 0 0 0 0 0 0 0 0 0 0 0 0 0 0 19 114 84 183 294 342 224 163 212 901 1664 1784 2092 2052 1948 1756 1710 1868
0 0 0 0 0 0 0 0 0 0 0 0 0 0 3 0 0 0 0 0 0 0 0 0 0 0 0 0 31 88 59 133 227 170 172 198 415 1382 1805 2011 1708 1780 1731 1766
0 0 0 0 0 0 0 0 0 0 0 0 0 0 0 0 0 0 0 0 0 0 0 0 0 0 0 0 0 9 15 13 26 147 130 108 165 531 1172 2150 2633 2414 1956 2210
4 0 0 0 0 0 0 0 0 0 0 0 0 0 0 0 0 0 0 0 0 0 0 0 0 0 0 0 0 0 0 17 12 11 127 192 166 319 796 670 1117 2030 2298 2789
0 18 0 0 2 0 0 0 0 0 0 0 0 0 0 0 0 0 0 0 0 0 0 0 0 0 0 0 0 1 5 0 0 0 0 6 66 80 93 225 614 1339 1834 1775
0 0 0 0 0 0 0 0 0 0 0 0 0 0 0 0 0 0 0 1 8 11 8 10 8 7 9 3 1 1 6 9 1 0 0 0 0 10 20 40 71 157 528 1684
0 0 0 0 0 0 0 0 0 0 0 0 0 0 3 0 4 7 7 8 0 0 0 0 0 14 24 37 31 6 6 8 2 0 0 0 0 0 0 0 3 8 24 152
0 0 0 0 0 0 0 0 0 0 0 0 3 0 1 0 0 0 0 13 9 0 0 0 0 0 6 10 9 29 39 7 0 0 0 0 0 0 0 0 0 0 0 0
0 0 0 0 0 0 0 0 0 0 3 0 2 9 9 9 0 0 0 0 0 0 0 0 0 0 0 0 0 0 2 34 15 3 2 0 0 0 0 0 0 0 0 0
0 0 0 0 0 0 0 0 0 0 2 8 14 19 16 14 3 0 0 0 0 0 0 0 0 0 0 0 0 0 0 0 15 21 8 2 1 0 0 0 0 0 0 0
0 0 0 0 0 0 0 0 4 3 28 26 33 26 29 27 30 0 0 20 0 0 0 0 0 0 0 0 0 0 0 0 7 22 22 9 3 1 0 0 0 0 0 0
0 0 1 0 0 0 0 3 12 27 27 28 28 31 26 22 22 15 11 23 0 0 0 0 0 0 0 0 0 0 0 0 0 0 3 17 16 0 0 0 0 0 0 0
2 0 0 0 0 0 12 15 16 21 13 16 17 25 31 29 24 15 0 15 8 26 30 0 0 0 0 0 0 0 0 0 0 0 0 0 0 0 0 0 0 0 0 0
0 0 0 0 0 0 91 62 46 37 17 14 13 29 43 34 11 4 4 11 19 18 23 29 24 0 0 0 0 0 0 0 0 0 0 0 0 0 0 0 0 0 0 0
0 10 31 46 67 81 82 74 64 44 41 47 37 37 42 53 6 5 4 9 14 21 33 17 9 0 0 0 0 0 0 0 0 0 0 0 0 0 0 0 0 0 0 0
88 83 74 76 76 92 80 66 31 55 51 57 50 68 89 90 18 21 29 32 46 42 41 42 48 42 0 0 0 0 0 0 0 0 0 0 0 0 0 0 0 0 0 0
135 124 118 161 195 226 150 211 158 165 126 111 95 104 116 99 20 28 47 72 55 50 49 45 41 29 29 0 0 0 0 0 0 0 0 0 0 0 0 0 0 0 0 0
178 155 167 163 167 195 245 301 304 270 257 145 152 148 183 125 49 57 73 86 100 26 41 61 27 2 7 0 0 0 0 0 0 0 0 0 0 0 0 1 0 0 0 0
171 94 126 186 183 191 188 274 365 313 99 148 211 216 272 67 76 76 71 85 48 23 23 58 7 0 0 22 0 0 0 0 0 0 5 4 0 0 0 5 5 4 5 1
62 70 78 113 191 46 15 3 7 75 126 205 292 244 204 69 51 52 46 37 9 0 17 62 17 0 0 44 0 0 0 0 0 0 0 0 3 0 0 6 4 27 68 65
67 102 144 198 109 29 0 0 0 0 105 176 191 211 96 61 43 28 56 46 11 2 65 29 0 0 39 60 30 0 0 0 0 0 0 0 0 0 1 4 4 26 34 163
101 199 192 203 195 19 58 2 1 0 53 49 99 102 120 115 116 50 52 37 41 18 46 46 89 117 67 76 80 2 0 0 0 0 0 0 0 0 0 0 0 0 89 117
66 15 145 250 305 167 31 1 2 0 28 68 73 98 57 53 55 24 20 28 26 32 30 31 43 26 40 42 45 64 61 49 0 0 0 0 0 0 0 0 0 0 0 0

GFSNGP_con_mucape_081.txt.gz
CAPE
0 0 0 2 0 0 0 0 65 445 252 148 68 35 16 10 53 124 168 181 164 111 80 39 140 341 433 578 676 801 1396 1406 1882 1773 1640 1765 1918 2267 2403 2868 2848 2890 2917 2651
0 0 0 0 0 0 0 0 12 175 119 57 17 4 1 0 0 0 19 47 90 154 105 108 141 115 143 283 305 330 584 703 901 1836 1882 2080 1989 1944 1997 2245 3283 3553 3048 2995
1 0 0 0 0 0 0 0 0 208 143 16 8 0 0 0 0 0 0 0 0 26 78 59 76 78 204 196 145 204 424 567 729 793 1129 1610 2234 2571 2341 1971 2571 3442 3320 3139
7 0 0 0 0 0 0 0 0 17 16 1 2 0 1 0 0 0 0 0 0 0 0 0 7 30 96 135 267 403 592 271 738 916 671 815 1282 1913 2304 2547 2657 2824 3144 3482
0 0 0 0 0 0 0 0 0 0 0 0 0 0 1 0 0 0 0 0 0 0 0 0 0 0 8 48 330 74 33 308 623 602 268 318 575 1059 1603 2422 2272 2185 2262 2947
0 0 0 0 0 0 0 0 0 0 0 0 0 0 1 0 0 0 0 0 0 0 0 0 0 0 0 0 0 0 0 25 13 92 130 131 129 214 441 1518 2017 2735 2017 2555
0 0 9 0 0 0 0 0 0 0 1 0 0 0 0 0 0 0 0 0 0 0 0 0 0 0 0 0 0 0 0 1 2 0 0 58 103 102 156 219 678 1729 2186 2603
4 16 2 0 0 0 0 0 0 0 0 0 0 0 0 0 0 0 0 0 0 0 0 0 0 0 0 0 0 0 0 0 0 0 0 0 2 59 74 96 147 655 1662 2097
15 113 11 0 1 0 0 3 0 0 0 0 0 0 0 0 0 0 0 4 1 2 2 1 4 3 1 2 3 1 0 0 0 0 0 0 0 0 6 104 377 383 488 1308
0 7 1 0 0 0 0 0 0 0 0 0 0 0 0 0 0 0 3 5 0 5 7 7 12 11 8 7 6 7 13 3 0 0 0 0 0 0 0 2 9 17 86 359
0 5 0 1 0 0 0 0 0 0 0 0 0 0 0 0 5 1 0 0 0 0 0 0 10 8 0 20 21 17 8 4 2 0 0 0 1 0 0 0 0 0 3 3
8 17 10 4 4 0 0 0 0 0 0 0 0 3 2 8 7 5 7 7 8 8 8 1 0 0 0 0 0 0 8 5 0 0 0 0 0 0 0 0 0 0 0 0
27 14 6 6 0 0 0 0 0 0 0 0 1 2 2 6 10 0 0 1 8 10 8 0 0 0 0 0 0 0 0 0 0 3 3 3 0 0 0 0 0 0 0 0
20 12 8 2 3 2 2 4 0 0 3 3 2 3 4 2 0 6 2 5 5 1 0 0 0 0 0 0 0 0 0 0 0 0 1 9 8 1 0 0 0 0 0 0
22 18 20 4 9 26 19 19 6 1 5 8 10 7 7 6 5 0 5 7 11 1 0 0 0 0 7 0 0 0 0 0 0 0 0 0 5 14 7 2 0 0 0 0
33 28 36 2 0 0 0 0 24 23 19 20 13 11 8 27 11 13 6 1 0 0 0 0 0 26 0 0 0 0 0 0 0 0 0 0 0 5 25 21 13 3 0 0
37 34 14 0 0 6 0 0 33 32 42 39 38 33 25 16 23 30 21 19 20 4 1 16 24 21 21 18 0 0 0 0 0 0 0 0 0 0 0 34 29 17 6 1
16 0 1 0 0 2 0 0 0 32 45 29 37 49 42 53 46 36 24 23 24 17 22 27 16 16 19 17 0 0 0 0 0 0 0 0 0 0 0 0 0 0 24 13
14 17 14 3 5 24 33 14 21 72 151 130 47 49 54 48 68 35 32 31 33 36 29 19 3 16 18 11 0 0 0 0 0 0 0 0 0 0 0 0 0 0 0 18
79 134 95 98 124 73 79 158 81 95 88 119 108 69 54 47 49 53 47 38 25 14 29 25 33 23 19 0 0 0 0 0 0 0 0 0 0 0 0 0 0 0 0 0
184 255 188 258 249 362 193 359 159 124 132 158 130 240 322 245 114 66 39 45 85 62 34 5 24 23 11 0 0 0 0 0 0 0 0 0 0 0 0 0 0 0 0 0
246 229 167 193 245 214 226 349 519 331 342 282 137 224 267 162 137 83 46 39 41 16 20 34 38 4 0 0 13 0 0 0 0 0 0 0 0 0 0 0 0 0 0 0
108 94 81 99 149 231 231 249 312 344 526 738 553 182 367 151 134 69 52 63 51 12 11 28 9 0 0 1 28 5 0 0 0 0 0 0 0 0 0 0 0 0 0 0
42 55 68 94 156 194 241 122 28 57 173 147 294 243 232 234 109 53 71 21 2 5 19 18 8 0 0 20 59 0 0 0 0 0 0 0 0 0 0 0 0 0 0 0
41 49 90 135 302 311 267 239 128 60 1 3 82 158 222 226 34 10 62 45 5 10 59 31 6 9 11 70 123 88 64 0 0 0 0 0 0 0 0 0 0 2 0 0
39 39 54 99 337 344 303 44 5 32 59 55 63 172 102 53 58 58 47 36 86 43 65 77 44 101 86 58 66 85 79 19 0 0 0 0 0 0 0 0 0 0 0 5
24 1 29 43 223 260 199 67 5 0 0 0 0 75 80 65 46 27 12 68 58 33 63 61 61 22 42 45 66 69 49 71 2 2 0 0 0 0 0 0 0 0 0 0

GFSNGP_con_mucape_084.txt.gz
CAPE
0 0 3 0 0 0 0 0 444 523 263 257 164 90 24 24 56 74 94 67 60 18 36 55 64 59 120 131 206 367 464 558 890 1187 2231 2825 2865 2631 3169 3130 3096 3255 3189 2911
0 0 0 0 0 0 0 0 117 231 320 89 21 19 11 2 0 0 25 68 98 90 95 87 40 0 21 69 72 79 234 377 461 567 937 1618 2326 2454 2651 2998 3259 3275 3035 3130
0 0 0 0 0 0 0 0 485 509 128 30 1 0 3 0 0 0 0 0 0 0 19 43 25 8 11 12 5 14 117 148 151 352 656 996 962 1925 2310 2393 2374 2893 2991 3129
1 1 0 0 0 0 0 0 339 486 207 19 1 0 1 0 0 0 0 0 0 0 0 4 24 29 27 15 77 26 44 143 125 258 318 393 596 941 1072 1124 2252 2247 2422 2818
0 0 5 0 0 0 0 1 135 328 136 15 0 0 0 0 0 0 0 0 0 0 0 0 0 0 17 48 50 67 74 120 143 256 191 352 369 412 907 854 944 1459 2127 2287
15 0 0 22 0 0 0 28 8 22 70 17 0 0 0 0 0 0 0 0 0 0 0 0 0 0 0 0 0 0 0 0 0 0 0 56 98 77 144 543 739 691 1074 2012
29 0 44 1 0 0 0 73 9 8 1 1 2 0 0 0 0 0 0 0 0 0 0 0 0 0 0 0 0 0 0 0 0 5 0 6 8 0 38 69 238 323 711 1554
4 41 17 0 0 0 43 5 0 0 2 7 0 0 0 0 0 0 0 0 0 0 0 0 0 0 0 6 9 12 13 4 0 1 3 0 0 0 0 0 102 296 396 807
110 178 13 6 8 4 0 8 1 0 0 0 0 0 0 0 0 0 0 0 0 0 0 0 0 0 0 6 11 14 7 5 23 8 0 3 8 0 0 0 9 210 220 256
14 97 14 6 0 0 0 0 0 0 0 0 0 0 0 0 0 2 4 0 0 0 0 3 1 3 0 3 17 10 15 16 5 0 0 0 0 0 0 0 0 0 0 0
0 5 1 0 0 0 0 0 0 0 0 0 0 0 0 0 2 1 3 5 3 0 0 0 0 0 0 2 9 0 0 2 1 0 0 0 2 5 1 0 0 0 0 0
26 21 30 24 23 8 0 0 0 0 0 0 0 1 0 1 0 3 4 0 0 0 0 1 0 0 0 0 0 0 0 0 0 0 0 0 0 0 0 0 0 0 0 0
47 25 15 0 0 1 1 0 0 0 0 0 0 0 0 3 3 0 1 0 1 0 5 11 12 0 0 0 0 0 0 0 0 0 0 0 3 2 0 0 0 0 0 0
73 63 31 3 2 0 0 1 0 0 1 0 4 1 0 10 0 5 0 0 1 1 2 0 0 0 0 0 0 0 0 0 0 0 0 0 0 0 0 0 0 0 0 0
23 9 29 10 18 34 11 7 0 0 3 7 5 2 6 13 13 4 1 0 0 1 0 0 0 0 7 0 0 0 0 0 0 0 0 0 0 0 0 3 2 0 1 0
6 14 20 20 58 7 13 30 17 0 10 15 19 15 0 9 21 15 9 0 0 3 0 0 0 20 0 0 0 0 0 0 0 0 0 0 0 0 0 0 1 8 3 2
35 57 38 20 34 47 17 12 7 16 47 45 59 68 8 10 16 8 14 9 5 7 5 7 11 0 16 0 0 0 0 0 0 0 0 0 0 0 0 0 0 0 0 0
7 8 12 16 41 50 17 7 6 21 59 22 46 81 49 19 20 43 38 10 7 15 21 36 24 4 1 7 0 0 0 0 0 0 0 0 0 0 0 0 0 0 0 0
18 18 17 6 16 9 1 4 0 0 18 110 119 102 116 62 61 52 65 21 29 15 29 45 6 4 5 1 0 0 0 0 0 0 0 0 0 0 0 0 0 0 0 0
100 110 82 57 13 10 34 36 84 75 64 107 204 158 148 158 125 56 48 46 38 40 48 31 10 8 22 4 0 0 0 0 0 0 0 0 0 0 0 0 0 0 0 0
263 397 177 156 173 158 73 255 30 72 75 110 74 152 291 337 206 157 41 24 37 69 28 26 10 0 3 0 0 1 0 0 0 0 0 0 0 0 0 0 0 0 0 0
52 137 160 221 199 241 166 34 50 122 265 42 153 157 427 270 296 239 47 109 74 16 21 11 21 15 4 0 0 0 4 0 0 0 0 0 0 0 0 0 0 0 0 0
23 25 41 55 43 123 74 262 242 190 85 196 162 525 588 495 6 27 122 214 37 28 21 43 51 13 0 0 0 6 15 0 0 0 0 0 0 0 0 0 0 0 0 0
28 45 48 29 36 63 177 369 242 161 121 65 226 398 344 199 30 0 62 17 34 3 10 4 23 11 0 0 13 26 22 0 0 0 0 0 0 0 0 0 0 0 0 0
25 49 49 21 28 94 237 345 214 223 236 134 165 153 236 11 16 0 41 33 3 0 19 16 23 11 6 24 71 149 179 72 17 3 0 0 0 0 0 0 0 0 0 0
21 3 15 37 80 161 297 276 17 20 98 169 44 114 26 40 18 19 61 62 99 11 27 31 27 38 59 61 76 12 78 64 9 0 13 12 0 0 0 0 0 0 0 0
7 0 16 13 23 10 26 0 4 3 2 10 13 23 7 48 54 35 20 30 56 45 42 39 34 16 52 23 21 30 38 94 6 11 2 6 0 0 0 0 0 0 0 0

GFSNGP_con_mucape_087.txt.gz
CAPE
8 3 0 0 0 13 27 370 454 371 198 202 67 34 134 191 167 125 103 208 178 179 128 91 46 96 78 55 107 48 198 627 240 302 475 1030 1509 2165 1970 2080 2133 2044 1923 1983
40 1 0 0 0 0 24 294 365 371 298 153 7 112 19 2 189 172 92 128 135 99 70 102 92 88 58 75 42 112 152 89 96 104 335 584 910 1330 1440 1424 1499 1978 2126 2112
4 11 3 0 2 19 179 573 499 363 312 264 52 0 4 0 13 65 105 113 104 97 66 20 18 2 0 0 21 34 18 32 66 114 288 393 474 738 848 999 1322 1381 1414 1552
0 26 22 0 0 0 5 699 290 307 280 122 6 13 0 0 0 0 3 2 0 29 87 96 83 71 27 0 0 0 1 28 20 58 118 203 221 465 826 770 807 934 1198 1379
0 0 0 1 0 0 289 673 384 240 163 73 17 1 3 0 0 0 0 0 0 0 0 17 46 38 34 33 18 20 37 48 40 81 79 80 105 115 308 474 608 773 800 873
0 1 0 0 0 0 36 445 371 239 120 32 18 5 0 0 0 0 0 0 0 0 0 0 0 0 0 8 15 37 40 9 48 60 17 28 30 65 68 88 220 385 451 651
0 0 2 0 0 0 0 33 355 225 156 54 0 2 0 0 0 0 0 0 0 0 0 0 0 0 0 0 0 0 0 0 0 0 0 0 0 0 0 0 17 49 71 126
0 0 0 0 0 6 70 24 37 62 31 0 0 0 0 0 0 0 0 0 0 0 0 0 0 0 0 0 0 0 0 0 0 0 0 0 0 0 0 0 0 0 1 60
131 9 0 0 0 1 7 40 24 40 30 4 0 0 0 0 0 0 0 0 0 0 0 0 0 0 0 0 0 0 0 0 0 0 0 0 0 0 0 0 0 0 0 0
88 82 1 0 0 0 15 29 17 13 14 9 0 0 0 0 0 0 0 0 0 0 0 0 0 0 0 0 0 0 0 0 0 0 0 0 0 0 0 0 0 0 0 0
4 16 0 0 0 0 0 0 0 0 0 0 0 0 0 0 0 0 0 0 0 0 0 0 0 0 0 0 0 0 0 0 0 0 0 0 0 0 0 0 0 0 0 0
0 34 28 36 0 0 0 0 0 0 0 0 0 0 0 0 0 0 0 0 0 0 0 0 0 0 0 0 0 0 0 0 0 0 0 0 0 0 0 0 0 0 0 0
32 15 4 2 1 16 0 0 0 0 0 0 0 0 0 0 0 0 0 0 0 0 0 0 0 0 0 0 0 0 0 0 0 0 0 0 0 0 0 0 0 0 0 0
6 16 33 20 0 0 0 0 0 0 0 0 0 0 0 0 0 0 0 0 0 0 0 0 0 0 0 0 0 0 0 0 0 0 0 0 0 0 0 0 0 0 0 0
21 16 22 2 1 0 4 0 0 0 0 0 0 0 0 0 0 0 0 0 0 0 0 0 0 0 0 0 0 0 0 0 0 0 0 0 0 0 0 0 0 0 0 0
5 3 0 8 7 10 24 13 5 0 0 0 0 0 0 1 1 0 0 0 0 0 0 0 0 0 0 0 0 0 0 0 0 0 0 0 0 0 0 0 0 0 0 0
0 3 3 5 10 11 25 23 21 12 4 1 2 0 0 0 0 0 0 0 0 0 0 0 0 0 0 0 0 0 0 0 0 0 0 0 0 0 0 0 0 0 0 0
2 0 0 0 3 8 6 21 33 17 19 14 60 23 1 0 0 0 0 0 0 0 0 0 0 0 0 0 0 0 0 0 0 0 0 0 0 0 0 0 0 0 0 0
130 47 27 43 0 0 0 16 20 13 37 10 13 5 0 0 0 3 0 0 0 0 0 0 6 0 0 0 0 0 0 0 0 0 0 0 0 0 0 0 0 0 0 0
342 153 108 149 71 13 8 0 20 6 11 3 0 2 45 29 25 44 33 0 0 0 0 0 0 0 0 0 0 0 0 0 0 0 0 0 0 0 0 0 0 0 0 0
42 113 139 205 76 60 92 57 48 36 50 36 16 27 14 72 38 45 50 5 0 1 0 1 0 0 0 0 0 0 0 0 0 0 0 0 0 0 0 0 0 0 0 0
0 0 6 28 36 56 79 77 78 77 79 53 15 12 11 21 67 46 26 8 0 13 4 2 4 7 0 6 0 0 0 0 0 0 0 0 0 0 0 0 0 0 0 0
2 14 11 6 1 3 6 14 50 97 152 65 36 2 3 3 36 0 8 21 3 17 7 3 5 50 35 0 0 0 0 0 0 0 0 0 0 0 0 0 0 0 0 0
4 12 39 13 2 0 0 0 44 79 43 64 83 57 68 77 75 40 39 18 11 4 0 19 16 46 9 1 0 0 0 0 0 0 0 0 0 0 0 0 0 0 0 0
0 14 0 0 0 0 6 14 0 0 56 168 108 93 65 114 98 52 72 34 12 0 0 7 42 9 0 0 0 1 11 0 0 0 0 0 0 0 0 0 0 0 0 0
0 0 0 3 0 0 0 0 0 0 1 110 74 13 41 33 54 39 8 0 0 0 0 9 24 7 2 3 1 31 17 20 27 3 0 0 0 0 0 0 0 0 0 0
0 0 0 4 0 0 0 0 0 0 0 12 4 1 0 1 0 1 4 3 0 15 14 10 20 6 16 10 30 18 7 6 1 0 0 0 0 0 0 0 0 0 0 0

GFSNGP_con_mucape_090.txt.gz
CAPE
37 34 4 6 0 5 5 6 48 202 67 61 46 0 1 19 105 24 218 200 227 281 161 144 121 80 76 125 177 94 63 167 167 196 401 666 1067 1365 1619 1413 1336 1430 1349 1419
60 56 19 0 0 9 88 292 432 270 172 111 16 5 1 1 6 71 395 322 189 229 175 85 98 119 125 117 164 80 90 70 91 101 247 249 561 820 1006 1197 1318 1408 1473 1397
46 60 15 2 4 51 303 560 524 281 91 20 29 30 39 43 102 160 67 124 161 192 112 84 41 19 64 136 145 129 77 80 58 77 95 64 133 207 413 640 905 1031 1191 1310
5 58 41 0 23 503 615 436 387 259 65 48 28 7 4 25 127 119 152 122 135 77 43 60 136 89 25 0 18 72 75 80 37 33 42 65 107 146 182 188 388 789 966 939
21 1 1 21 0 54 240 436 458 268 136 71 97 8 1 0 1 85 141 164 144 128 118 100 72 86 79 34 0 0 16 0 1 48 85 47 39 82 141 94 128 224 467 604
2 10 1 0 0 32 291 160 295 253 210 124 103 35 4 0 0 0 0 0 0 0 0 9 51 68 61 77 79 89 82 71 62 46 64 97 108 116 108 105 92 108 152 301
0 0 0 0 0 5 14 59 173 163 234 219 107 34 12 0 0 0 0 0 0 0 0 0 0 0 0 0 0 13 19 0 0 0 0 6 15 17 3 14 38 72 75 95
0 0 0 0 0 0 0 57 174 107 147 168 123 34 61 16 8 0 0 0 0 0 0 0 0 0 0 0 0 0 0 0 0 0 0 0 0 0 0 0 0 1 0 39
13 0 0 0 0 10 110 283 234 128 74 100 109 122 101 30 2 0 0 0 0 0 0 0 0 0 0 0 0 0 0 0 0 0 0 0 0 0 0 0 0 0 0 0
0 1 0 0 1 5 1 0 53 85 68 84 50 32 3 0 0 0 0 0 0 0 0 0 0 0 0 0 0 0 0 0 0 0 0 0 0 0 0 0 0 0 0 0
0 0 4 1 4 10 9 1 0 0 0 4 24 26 14 0 0 0 0 0 0 0 0 0 0 0 0 0 0 0 0 0 0 0 0 0 0 0 0 0 0 0 0 0
0 0 0 0 4 10 10 24 28 1 0 0 0 0 0 0 0 0 0 0 0 0 0 0 0 0 0 0 0 0 0 0 0 0 0 0 0 0 0 0 0 0 0 0
0 0 0 0 0 0 0 0 0 0 0 0 0 0 0 0 0 0 0 0 0 0 0 0 0 0 0 0 0 0 0 0 0 0 0 0 0 0 0 0 0 0 0 0
16 12 5 6 3 0 0 0 0 0 0 0 0 0 0 0 0 0 0 0 0 0 0 0 0 0 0 0 0 0 0 0 0 0 0 0 0 0 0 0 0 0 0 0
0 0 3 14 15 12 2 0 0 0 0 0 0 0 0 0 0 0 0 0 0 0 0 0 0 0 0 0 0 0 0 0 0 0 0 0 0 0 0 0 0 0 0 0
0 0 0 0 2 13 17 0 0 0 0 0 0 0 0 0 0 0 0 0 0 0 0 0 0 0 0 0 0 0 0 0 0 0 0 0 0 0 0 0 0 0 0 0
0 0 0 0 0 0 0 5 3 3 5 16 3 1 0 0 0 0 0 0 0 0 0 0 0 0 0 0 0 0 0 0 0 0 0 0 0 0 0 0 0 0 0 0
2 0 0 0 0 0 0 0 6 31 13 23 11 3 0 0 0 0 0 0 0 0 0 0 0 0 0 0 0 0 0 0 0 0 0 0 0 0 0 0 0 0 0 0
14 12 2 3 1 0 0 0 0 16 38 21 13 11 4 11 13 4 11 2 0 0 0 0 0 0 0 0 0 0 0 0 0 0 0 0 0 0 0 0 0 0 0 0
12 31 11 15 6 7 5 8 0 0 1 20 16 13 9 12 7 2 0 0 0 0 0 0 0 0 0 0 0 0 0 0 0 0 0 0 0 0 0 0 0 0 0 0
0 2 14 19 23 23 17 14 6 3 16 8 10 14 5 91 0 2 0 0 2 0 0 0 0 0 0 0 0 0 0 0 0 0 0 0 0 0 0 0 0 0 0 0
0 0 0 0 0 0 2 7 12 19 32 30 27 28 37 39 9 2 10 14 12 6 11 1 0 0 0 0 0 0 0 0 0 0 0 0 0 0 0 0 0 0 0 0
0 0 0 0 0 0 0 0 0 0 0 11 16 21 26 8 1 2 6 14 24 21 2 3 1 4 4 0 0 0 0 0 0 0 0 0 0 0 0 0 0 0 0 0
0 0 0 0 0 0 0 0 0 0 0 0 0 3 45 83 38 0 0 2 5 13 0 0 2 1 28 5 2 0 0 0 0 0 0 0 0 0 0 0 0 0 0 0
0 0 0 0 0 0 0 0 0 0 0 0 0 0 0 35 90 100 43 30 2 8 0 0 1 0 21 57 36 12 0 0 0 0 2 2 0 0 0 0 0 0 0 0
0 0 0 0 0 0 0 0 0 0 10 10 2 0 4 84 68 70 74 66 66 55 8 0 0 0 15 43 31 16 1 0 0 3 26 15 0 0 0 0 0 0 0 0
0 0 0 0 0 0 0 0 0 0 0 1 0 0 0 0 0 6 14 4 2 2 1 1 0 19 22 23 6 1 0 1 1 12 15 2 0 0 0 0 0 0 0 0

GFSNGP_con_mucape_093.txt.gz
CAPE
19 21 11 45 0 0 0 0 17 30 65 113 130 197 55 31 97 209 145 135 182 214 258 198 150 91 130 148 128 91 102 64 95 133 200 302 418 492 663 1074 1132 1214 1111 987
22 48 37 61 50 0 32 143 107 53 48 88 68 50 29 4 36 30 142 212 280 290 506 712 168 86 82 158 81 60 86 78 86 61 39 75 98 259 407 473 550 876 1082 1215
31 52 65 47 77 81 182 334 135 69 70 92 52 151 150 82 19 42 96 205 155 308 236 246 120 203 172 94 70 54 44 45 29 42 43 49 55 74 72 135 205 396 573 766
42 33 38 35 160 167 540 362 287 130 120 103 55 64 39 31 28 19 317 349 306 161 225 181 256 179 234 262 204 85 89 72 78 47 24 21 36 28 46 73 78 94 250 339
14 29 2 39 67 83 77 266 369 189 142 126 83 50 42 95 147 75 54 121 170 184 154 112 149 130 91 66 87 84 73 79 94 36 12 40 4 13 29 17 42 94 98 82
0 25 6 1 1 37 69 290 244 258 236 114 71 22 2 80 174 115 123 117 174 128 71 67 48 54 74 47 23 2 1 2 4 12 33 7 32 33 31 25 26 45 76 116
1 30 0 0 0 6 17 4 320 315 214 170 100 2 0 0 62 88 65 41 43 57 37 18 15 16 11 14 21 26 48 56 60 78 45 42 46 40 50 22 70 58 89 112
0 0 1 0 0 0 0 130 213 221 218 150 131 65 25 0 0 0 0 0 0 0 0 0 0 0 0 0 0 0 0 0 0 0 0 0 0 0 0 0 0 34 27 38
5 3 2 7 0 0 46 112 176 274 260 211 122 74 10 22 22 0 0 0 0 0 0 0 0 0 0 0 0 0 0 0 0 0 0 0 0 0 0 0 0 0 0 3
0 0 0 12 16 99 181 127 217 233 213 172 139 108 53 34 23 16 2 0 0 0 0 0 0 0 0 0 0 0 0 0 0 0 0 0 0 0 0 0 0 0 0 0
7 12 15 3 0 10 46 84 100 88 126 116 80 46 35 32 23 3 0 0 0 0 0 0 0 0 0 0 0 0 0 0 0 0 0 0 0 0 0 0 0 0 0 0
17 46 48 6 2 3 1 0 0 1 1 6 19 21 24 10 1 0 0 0 0 0 0 0 0 0 0 0 0 0 0 0 0 0 0 0 0 0 0 0 0 0 0 0
0 28 21 1 0 0 0 0 0 0 0 0 0 0 0 0 0 0 0 0 0 0 0 0 0 0 0 0 0 0 0 0 0 0 0 0 0 0 0 0 0 0 0 0
0 1 1 6 2 0 0 0 0 0 0 0 0 0 0 0 0 0 0 0 0 0 0 0 0 0 0 0 0 0 0 0 0 0 0 0 0 0 0 0 0 0 0 0
0 0 4 8 8 12 3 0 0 0 0 0 0 0 0 0 0 0 0 0 0 0 0 0 0 0 0 0 0 0 0 0 0 0 0 0 0 0 0 0 0 0 0 0
0 0 0 0 0 2 13 14 9 1 0 0 0 0 0 0 0 0 0 0 0 0 0 0 0 0 0 0 0 0 0 0 0 0 0 0 0 0 0 0 0 0 0 0
0 0 0 0 0 0 0 0 0 7 8 8 0 3 1 5 0 0 0 0 0 0 0 0 0 0 0 0 0 0 0 0 0 0 0 0 0 0 0 0 0 0 0 0
0 0 0 0 0 0 0 0 0 0 11 10 12 13 1 8 1 0 0 1 0 0 0 0 0 0 0 0 0 0 0 0 0 0 0 0 0 0 0 0 0 0 0 0
0 3 3 0 0 0 0 0 0 0 0 11 18 18 10 14 12 0 7 10 6 0 0 0 0 0 0 0 0 0 0 0 0 0 0 0 0 0 0 0 0 0 0 0
0 3 14 8 9 10 5 0 0 0 0 0 0 24 30 20 28 5 4 9 7 10 0 0 0 0 0 0 0 0 0 0 0 0 0 0 0 0 0 0 0 0 0 0
0 0 2 12 21 27 20 14 17 7 0 0 0 0 10 24 29 28 7 0 8 11 1 1 0 0 0 0 0 0 0 0 0 0 0 0 0 0 0 0 0 0 0 0
0 0 0 0 0 0 0 0 0 0 0 2 20 23 22 25 29 29 23 6 5 2 0 2 6 6 0 0 0 0 0 0 0 0 0 0 0 0 0 0 0 0 0 0
0 0 0 0 0 0 0 0 0 0 0 0 0 0 3 5 13 27 40 25 10 18 0 7 18 3 5 1 0 0 0 0 0 0 0 0 0 0 0 1 0 0 0 0
0 0 0 0 0 0 0 0 0 0 0 0 0 0 0 0 0 0 0 10 2 0 1 0 25 7 20 2 0 0 0 1 0 0 0 0 0 0 2 1 0 0 0 0
0 0 0 0 0 0 0 0 0 0 0 0 0 0 0 0 3 2 2 4 50 65 30 28 33 34 16 0 0 2 32 24 5 0 0 0 0 1 8 5 0 0 0 0
0 0 0 0 0 0 0 0 0 0 0 0 0 0 0 0 0 27 137 117 170 104 77 31 26 13 24 0 0 16 73 67 38 10 0 0 7 17 22 7 0 0 0 0
0 0 0 0 0 0 0 0 0 0 0 0 0 0 0 0 0 0 7 30 20 38 40 16 0 0 0 0 0 22 35 26 23 6 0 0 3 4 12 2 0 0 0 0

GFSNGP_con_mucape_096.txt.gz
CAPE
0 2 0 0 0 0 0 0 0 0 1 27 292 589 459 659 318 412 613 631 263 175 78 87 130 146 158 139 130 80 91 60 49 68 100 85 149 211 313 476 672 883 959 897
0 9 26 9 36 8 1 21 96 14 45 90 481 448 349 201 298 311 340 465 548 374 253 224 335 181 178 144 125 111 112 78 29 47 78 71 74 67 117 216 309 349 462 680
0 0 22 25 14 35 18 91 128 92 69 214 294 331 316 148 85 149 227 169 173 354 398 359 280 222 138 110 94 69 25 43 41 37 71 55 50 41 63 16 76 68 112 280
17 3 8 2 0 73 235 259 185 136 127 196 207 292 182 192 57 59 117 209 262 465 357 209 166 173 119 94 118 36 24 12 35 24 40 71 48 23 31 44 37 52 59 50
4 8 8 0 0 68 74 148 328 216 143 124 186 165 148 79 57 121 195 220 453 285 189 260 328 201 213 293 127 91 29 47 36 40 21 39 20 29 14 2 9 28 48 121
9 3 1 0 0 47 40 91 194 243 248 246 194 123 51 53 35 75 100 409 377 256 171 134 172 96 89 37 52 27 42 17 149 37 3 0 3 0 0 0 2 4 45 57
26 13 1 1 6 4 68 24 205 225 258 193 148 119 28 32 122 166 230 227 168 200 72 28 37 47 36 15 4 1 1 0 0 0 0 10 11 21 22 13 8 17 26 42
0 0 0 0 1 13 8 26 207 193 185 204 109 6 38 80 167 96 63 31 29 22 5 0 0 0 0 0 0 0 1 2 0 0 0 14 10 16 24 21 12 4 16 10
3 1 2 13 32 0 0 52 62 211 182 141 90 23 4 68 1 0 0 0 0 0 0 0 0 0 0 0 0 0 0 0 0 0 0 0 0 0 0 0 0 0 0 0
10 8 12 24 39 41 60 53 141 163 180 178 136 44 0 0 1 0 0 0 0 0 0 0 0 0 0 0 0 0 0 0 0 0 0 0 0 0 0 0 0 0 0 0
0 0 0 0 1 23 53 116 120 119 152 196 120 33 30 0 0 16 10 13 0 0 0 0 0 0 0 0 0 0 0 0 0 0 0 0 0 0 0 0 0 0 0 0
0 0 0 0 0 0 0 20 74 88 55 45 35 38 34 28 24 15 19 18 0 0 0 0 0 0 0 0 0 0 0 0 0 0 0 0 0 0 0 0 0 0 0 0
0 0 0 0 0 0 0 0 0 0 6 37 40 34 47 22 17 15 0 0 0 0 0 0 0 0 0 0 0 0 0 0 0 0 0 0 0 0 0 0 0 0 0 0
0 0 0 0 0 0 0 0 0 0 0 4 0 0 0 0 0 0 0 0 0 0 0 0 0 0 0 0 0 0 0 0 0 0 0 0 0 0 0 0 0 0 0 0
0 0 0 0 0 0 0 0 0 0 0 0 0 0 0 0 0 0 0 0 0 0 0 0 0 0 0 0 0 0 0 0 0 0 0 0 0 0 0 0 0 0 0 0
0 0 0 0 0 0 0 0 0 3 5 6 4 0 0 2 0 0 0 0 0 0 0 0 0 0 0 0 0 0 0 0 0 0 0 0 0 0 0 0 0 0 0 0
0 0 0 0 0 0 0 0 0 0 2 3 12 20 14 16 17 5 0 0 0 0 0 0 0 0 0 0 0 0 0 0 0 0 0 0 0 0 0 0 0 0 0 0
0 0 0 0 0 0 0 0 0 0 0 0 5 7 14 16 14 9 1 0 0 0 0 0 0 0 0 0 0 0 0 0 0 0 0 0 0 0 0 0 0 0 0 0
0 0 1 0 0 0 0 0 0 0 0 0 0 11 27 18 24 9 23 10 13 2 4 1 1 0 0 0 0 0 0 0 0 0 0 0 0 0 0 0 0 0 0 0
0 0 0 7 8 6 9 10 9 1 0 0 0 0 3 36 49 48 24 47 0 10 3 6 0 0 0 0 0 0 0 0 0 0 0 0 0 0 0 0 0 0 0 0
0 0 0 0 0 6 12 13 3 5 0 0 0 0 0 0 17 35 28 21 16 21 7 10 9 4 0 0 0 0 0 0 0 0 0 0 0 0 0 0 0 0 0 0
0 0 0 0 0 0 0 0 0 0 0 0 0 0 0 13 38 40 41 43 34 36 31 21 3 9 0 0 0 0 0 0 0 0 0 0 0 0 0 0 0 0 0 0
0 0 0 0 0 0 0 0 0 0 0 0 0 0 0 0 2 4 5 35 57 76 68 52 17 5 0 8 9 0 0 0 0 0 0 0 0 0 0 0 0 0 0 0
0 0 0 0 0 0 0 0 0 0 0 0 0 0 0 0 0 0 0 0 0 11 23 15 31 34 3 0 32 6 3 0 0 0 0 0 0 0 0 0 0 0 0 0
0 0 0 0 0 0 0 0 0 0 0 0 0 0 0 1 19 24 20 6 0 0 1 6 13 10 22 21 0 0 0 0 0 4 2 0 1 0 0 0 0 7 1 0
0 0 0 0 0 0 0 0 0 0 0 0 0 0 0 0 0 0 5 18 26 10 2 32 42 67 44 35 26 0 0 0 8 42 40 37 17 0 0 0 0 6 13 4
0 0 0 0 0 0 0 0 0 0 0 0 0 0 0 0 0 0 0 1 3 0 21 79 91 64 45 21 6 5 1 0 0 38 19 31 32 2 0 0 0 0 4 0

GFSNGP_con_mucape_099.txt.gz
CAPE
0 0 0 0 0 0 0 0 0 0 91 370 420 447 1008 597 419 439 423 416 422 473 502 529 587 540 292 211 97 59 40 56 71 197 324 542 694 740 708 1169 1339 1612 1631 1511
25 23 12 0 0 0 0 0 0 84 67 249 369 421 525 410 886 587 381 261 331 335 310 296 437 432 430 217 104 74 97 88 70 81 142 258 301 291 294 366 616 723 796 891
47 2 14 10 2 0 4 44 88 191 298 506 359 511 703 813 899 1000 731 550 598 594 294 257 234 210 186 187 140 94 140 119 121 85 37 30 82 126 135 181 207 256 325 460
160 19 34 1 0 0 48 401 393 336 274 321 285 366 605 642 579 624 820 723 438 364 304 443 329 231 290 273 246 133 118 65 51 26 14 9 56 73 55 57 47 117 334 33
189 77 3 0 0 1 2 94 359 289 280 574 666 748 316 351 205 289 424 394 303 313 292 300 390 662 259 156 179 113 84 53 25 10 7 6 29 43 57 34 4 218 19 22
238 157 61 0 0 0 0 226 389 452 425 665 684 378 200 442 236 119 409 308 249 565 430 493 160 206 68 113 141 145 81 46 68 99 46 12 1 40 17 2 15 6 22 53
198 182 53 0 0 0 76 55 336 331 448 699 433 259 160 174 105 141 210 317 232 260 249 307 372 203 122 213 157 82 12 11 28 92 11 0 0 0 0 0 0 2 10 16
3 49 32 9 13 7 7 7 117 158 292 172 136 96 88 79 64 85 138 245 244 169 200 182 173 127 94 67 29 3 0 0 0 0 0 0 0 0 0 4 8 6 10 0
33 72 16 40 37 40 1 7 34 94 113 147 59 90 109 83 174 129 129 135 92 97 70 17 5 13 9 1 0 1 1 0 0 0 0 0 0 0 0 0 0 0 0 0
46 18 21 23 14 55 133 14 30 38 109 199 77 67 71 198 141 5 0 0 0 0 0 0 0 0 0 0 0 0 0 0 0 0 0 0 0 0 0 0 0 0 0 0
16 12 8 4 6 16 72 110 113 110 111 129 95 63 10 17 10 1 0 0 0 0 0 0 0 0 0 0 0 0 0 0 0 0 0 0 0 0 0 0 0 0 0 0
207 0 7 1 5 4 42 85 80 78 95 74 40 4 0 9 6 0 2 8 5 0 0 0 0 0 0 0 0 0 0 0 0 0 0 0 0 0 0 0 0 0 0 0
0 0 0 0 0 0 0 7 1 29 58 80 25 14 0 0 0 32 10 5 0 0 0 0 0 0 0 0 0 0 0 0 0 0 0 0 0 0 0 0 0 0 0 0
0 0 0 0 0 0 0 0 0 0 0 0 81 80 40 59 63 20 20 11 0 0 0 0 0 0 0 0 0 0 0 0 0 0 0 0 0 0 0 0 0 0 0 0
0 0 0 0 0 0 0 0 0 0 0 0 0 16 26 30 8 2 0 2 0 0 0 0 0 0 0 0 0 0 0 0 0 0 0 0 0 0 0 0 0 0 0 0
0 0 0 0 0 0 0 0 0 0 0 1 1 0 0 0 11 0 0 0 0 0 0 0 0 0 0 0 0 0 0 0 0 0 0 0 0 0 0 0 0 0 0 0
0 0 0 0 0 0 0 0 0 0 0 3 4 6 6 7 7 6 0 0 0 0 0 0 0 0 0 0 0 0 0 0 0 0 0 0 0 0 0 0 0 0 0 0
0 0 0 0 0 0 0 0 0 0 0 0 0 0 1 7 10 11 21 15 3 0 0 0 0 0 0 0 0 0 0 0 0 0 0 0 0 0 0 0 0 0 0 0
0 0 0 0 0 0 0 0 0 0 0 0 0 0 0 0 1 17 24 7 2 0 6 7 1 0 0 0 0 0 0 0 0 0 0 0 0 0 0 0 0 0 0 0
0 0 0 0 0 0 0 0 0 2 0 5 0 0 0 0 0 1 5 13 14 15 17 4 3 7 6 2 0 0 0 0 0 0 0 0 0 0 0 0 0 0 0 0
0 3 1 0 0 0 0 3 6 4 0 0 8 16 22 15 6 10 10 10 11 9 9 20 29 19 3 0 0 0 0 0 0 0 0 0 0 0 0 0 0 0 0 0
0 0 0 0 0 0 0 0 0 0 0 0 0 0 0 7 28 55 71 61 84 28 34 36 30 25 18 14 1 0 0 0 0 0 0 0 0 0 0 0 0 0 0 0
0 0 0 0 0 0 0 0 0 0 0 0 0 1 2 5 9 10 7 63 132 100 100 61 43 53 53 26 16 0 0 0 0 0 0 0 0 0 0 0 0 0 0 0
0 0 0 0 0 0 0 0 0 0 0 0 1 1 1 7 4 9 22 8 0 1 6 139 101 82 80 56 18 1 0 1 0 0 0 0 0 0 0 0 0 0 0 0
0 0 0 0 0 0 0 0 0 0 0 0 0 0 0 3 20 16 33 43 22 17 11 2 32 36 80 51 29 35 37 29 0 0 0 49 40 41 36 21 2 1 2 0
0 0 0 0 0 0 0 0 0 0 0 0 0 0 0 0 4 16 43 21 38 14 39 65 47 149 288 231 96 38 17 33 9 0 0 0 46 66 62 44 37 20 7 2
0 0 0 0 0 0 0 0 0 0 0 0 0 0 0 14 28 7 0 59 39 48 28 13 0 3 23 156 260 66 43 13 13 1 1 0 9 93 69 45 33 32 19 22

GFSNGP_con_mucape_102.txt.gz
CAPE
48 14 5 53 41 0 0 0 6 7 1 6 665 975 1135 860 714 781 745 744 830 812 865 975 1025 678 403 145 61 90 231 258 623 970 1042 1236 1223 1438 1500 1588 1228 1940 1413 1768
82 64 64 38 4 0 0 0 0 2 20 341 798 975 995 824 924 711 832 781 905 853 870 914 954 887 643 540 324 229 68 38 59 143 373 764 1017 1206 1313 1528 1762 1808 1834 1794
102 129 110 88 63 15 17 38 29 17 137 624 1011 963 916 867 764 778 638 666 878 1028 972 1000 1150 990 913 586 373 295 75 40 41 124 154 185 284 618 836 1043 1134 1144 1185 1172
181 181 117 172 70 51 28 88 483 441 547 747 946 782 781 702 644 691 616 519 423 388 335 305 314 482 454 397 409 380 263 136 227 101 52 42 48 104 252 304 510 725 392 144
195 217 160 62 49 28 32 222 566 779 647 592 712 452 424 537 720 774 689 793 813 647 410 335 305 322 321 326 281 349 181 101 125 40 36 8 15 46 73 278 322 426 103 5
218 133 135 150 0 0 1 225 328 574 547 459 419 503 330 547 503 476 852 514 559 609 354 390 511 559 515 379 330 630 269 143 52 62 65 89 65 30 37 165 143 103 19 9
126 126 208 158 27 20 139 169 241 429 480 324 364 368 324 316 256 318 472 558 549 250 453 335 263 467 495 348 441 361 184 116 47 61 118 50 18 0 0 14 18 6 4 0
280 192 160 282 245 271 280 105 209 299 311 413 187 143 149 167 165 255 355 412 323 503 362 437 283 466 323 235 269 228 199 113 20 50 95 0 0 0 0 0 32 2 0 0
415 474 382 367 368 391 348 205 318 366 160 96 105 69 98 234 278 384 390 461 410 310 244 279 224 303 387 347 240 187 91 39 10 6 0 0 0 5 0 0 0 0 0 0
442 303 214 160 204 510 510 370 387 271 154 145 72 97 220 442 297 277 240 242 77 96 158 83 64 45 32 27 10 15 19 15 9 2 3 0 0 0 0 0 0 0 0 0
418 210 135 99 115 331 572 545 365 242 130 156 116 120 210 182 149 208 162 111 83 99 102 88 0 0 0 0 0 0 0 0 0 0 0 0 0 0 0 0 0 0 0 0
434 424 435 167 26 114 383 459 385 217 99 36 14 3 0 38 37 54 60 7 0 0 0 0 0 0 0 0 0 0 0 0 0 0 0 0 0 0 0 0 0 0 0 0
424 205 216 38 0 1 88 199 268 267 170 69 20 0 0 0 0 0 0 4 15 8 7 0 0 0 0 0 0 0 0 0 0 0 0 0 0 0 0 0 0 0 0 0
133 146 149 58 43 1 0 0 0 100 217 240 172 108 75 28 14 61 0 0 0 0 0 3 12 8 1 0 0 0 0 0 0 0 0 0 0 0 0 0 0 0 0 0
28 23 65 1 0 0 0 0 0 38 125 172 188 200 144 144 170 147 34 10 0 0 0 0 0 0 0 0 0 0 0 0 0 0 0 0 0 0 0 0 0 0 0 0
24 0 0 0 0 0 0 0 8 2 2 61 107 113 108 74 127 138 57 1 0 1 0 0 0 0 0 0 0 0 0 0 0 0 0 0 0 0 0 0 0 0 0 0
0 0 0 0 0 0 0 0 0 0 4 9 4 14 86 69 80 146 91 17 5 7 4 0 0 0 0 0 0 0 0 0 0 0 0 0 0 0 0 0 0 0 0 0
0 0 0 0 0 0 0 0 0 0 0 0 0 12 35 52 113 148 164 133 102 91 88 38 7 0 0 0 0 0 0 0 0 0 0 0 0 0 0 0 0 0 0 0
0 0 0 0 0 0 1 0 1 0 0 0 0 2 6 33 73 90 134 150 154 130 142 79 23 9 1 0 0 0 0 0 0 0 0 0 0 0 0 0 0 0 0 0
0 0 1 3 1 2 9 12 14 17 13 3 3 0 2 12 23 39 66 112 150 154 158 111 41 15 10 6 14 13 0 0 0 0 0 0 0 0 0 0 0 0 0 0
0 0 12 25 22 16 17 27 38 51 30 0 1 10 11 17 25 49 120 125 155 122 72 35 30 48 17 18 18 34 14 1 0 0 0 0 1 2 7 7 1 1 0 0
1 16 16 11 4 2 10 19 7 0 0 0 0 0 0 0 2 3 8 54 95 22 54 118 95 68 37 24 12 2 6 2 7 1 0 0 0 5 6 11 14 13 9 5
7 14 4 0 0 5 2 0 0 0 0 2 5 7 2 1 0 0 0 9 7 3 1 5 48 22 33 116 41 19 19 5 6 6 1 0 0 5 13 17 17 21 21 16
0 0 0 0 0 0 3 2 0 0 0 2 7 3 0 0 3 7 17 5 1 2 7 8 9 14 5 152 217 158 37 21 0 0 1 0 0 26 37 44 41 35 35 15
0 0 0 0 0 0 4 0 0 2 4 6 4 2 1 1 5 15 20 26 2 10 43 17 6 6 58 216 94 45 71 78 1 4 0 0 15 85 92 47 60 65 65 62
0 0 0 0 0 0 0 0 0 1 5 7 6 6 8 12 13 27 35 16 26 16 35 25 0 22 59 110 112 70 43 102 107 24 82 8 88 136 220 206 183 200 118 89
0 0 0 0 0 0 0 0 3 1 0 12 29 22 21 11 19 6 8 48 51 52 43 46 28 8 15 13 59 120 275 265 39 25 32 8 9 64 75 79 115 170 175 153

GFSNGP_con_mucape_105.txt.gz
CAPE
34 7 10 11 20 5 4 3 57 67 66 79 739 911 1389 1563 1453 1713 1489 1093 1068 1230 1447 1530 1249 1062 789 398 387 311 412 884 836 1885 1530 1413 1386 1611 946 1018 1141 1210 1217 2236
97 15 17 19 42 31 40 15 11 10 33 214 1057 1213 1568 1391 1124 1140 1110 1211 1318 1295 1278 1465 1460 1288 1141 779 637 387 364 515 951 1104 1189 1479 1413 1396 1416 1283 1257 1308 1337 1527
113 47 66 34 41 53 32 29 44 67 38 744 712 984 1302 1292 1043 954 1293 1085 1240 1078 1134 1204 1330 1303 1165 859 540 619 291 280 272 350 240 386 644 1095 1161 1186 1269 1431 1262 1300
194 74 96 134 102 118 56 90 88 212 102 690 812 1263 1178 1160 982 1164 887 1067 1115 964 876 924 1278 1472 1339 1184 1007 687 674 365 256 144 161 227 177 235 364 598 927 942 824 321
263 115 48 59 154 148 86 277 574 480 426 564 1230 1200 770 781 793 848 766 469 505 714 793 726 850 691 986 919 770 700 570 528 379 296 166 44 34 60 97 247 433 272 170 109
344 287 169 196 45 24 74 147 192 161 776 874 879 918 905 524 779 596 579 488 516 487 400 314 316 444 352 368 343 300 389 181 57 113 3 10 1 14 13 27 58 99 95 96
225 202 217 98 24 2 139 317 210 501 632 589 751 621 810 481 301 429 567 601 493 653 622 361 431 434 443 319 473 454 380 313 209 114 55 79 20 28 2 35 123 122 96 54
345 207 114 231 269 393 418 327 278 499 431 352 328 378 422 468 356 269 350 343 273 394 281 509 360 401 554 448 573 447 347 308 193 150 61 138 6 3 9 3 38 15 19 25
226 419 505 466 502 567 434 350 384 520 320 296 219 246 119 136 247 303 367 282 419 401 392 358 373 253 334 478 436 390 379 200 119 131 23 75 0 0 0 5 46 22 1 0
381 404 384 377 584 747 725 528 478 537 191 148 161 269 312 371 338 386 502 499 502 420 191 283 431 421 250 323 267 290 286 215 247 58 4 0 0 0 0 0 0 0 0 0
407 221 322 227 373 631 829 690 537 419 241 94 120 141 230 503 423 430 365 382 289 385 346 272 304 156 73 33 86 63 94 14 8 5 3 5 0 0 0 0 0 0 0 0
609 824 646 401 225 372 510 714 502 318 151 5 92 91 191 279 158 207 233 181 203 193 164 8 28 27 13 9 9 1 4 0 0 0 0 0 0 0 0 0 0 0 0 0
723 549 614 326 124 73 198 339 593 521 191 2 0 0 0 2 4 8 29 50 0 1 1 0 0 0 0 0 0 0 0 0 0 0 0 0 0 0 0 0 0 0 0 0
459 482 430 275 305 81 30 41 99 574 517 199 26 35 9 2 9 27 0 0 0 1 8 9 5 6 2 0 0 0 0 0 0 0 0 0 0 0 0 0 0 0 0 0
435 385 413 356 255 181 73 35 95 240 373 349 263 118 128 23 43 1 54 73 84 55 1 0 0 6 3 4 17 20 11 0 0 1 4 0 0 0 0 0 0 0 0 0
303 173 69 39 38 22 10 18 24 61 138 198 319 263 231 240 172 131 141 67 86 82 55 3 0 0 0 0 0 0 0 0 0 0 0 0 0 0 0 0 0 0 0 0
218 47 0 0 0 0 0 2 10 65 63 44 82 117 193 237 210 217 244 179 75 75 83 55 7 0 0 0 0 0 0 0 0 0 0 0 0 0 0 0 0 0 0 0
1 2 0 0 0 0 0 0 0 0 2 20 46 79 95 179 202 197 228 233 102 31 62 44 36 9 0 0 0 0 0 0 0 0 0 0 0 0 0 0 0 0 0 0
0 0 0 0 0 3 8 6 9 14 9 5 4 14 39 64 83 98 145 168 162 183 148 218 39 6 9 0 0 0 0 0 0 0 0 0 0 0 0 0 0 0 0 0
0 0 0 0 1 6 11 19 27 40 48 45 40 30 28 36 55 55 83 136 156 165 243 198 191 83 43 37 0 0 0 0 1 0 0 0 0 0 0 0 0 0 0 0
0 0 0 3 5 7 7 7 18 27 47 45 22 12 17 22 29 40 63 65 146 169 200 73 197 143 110 55 24 3 3 2 0 1 0 0 0 0 0 1 0 0 1 0
0 6 17 27 39 33 21 10 9 20 18 8 1 0 1 0 1 1 10 3 41 8 38 139 91 80 152 114 54 43 28 4 5 11 8 5 1 0 0 0 12 8 5 8
0 3 20 37 37 36 26 8 6 5 4 0 2 8 6 5 4 3 10 26 5 3 0 5 17 11 21 59 96 91 80 57 22 15 25 11 0 0 1 0 0 14 19 20
0 2 12 19 24 9 7 4 3 2 2 8 7 5 0 6 27 17 7 0 0 0 5 12 0 0 0 40 119 106 99 82 145 21 5 11 4 0 0 29 38 31 39 30
28 42 35 8 2 0 0 15 7 6 6 20 12 4 2 0 10 14 15 10 0 2 28 0 0 1 14 30 101 141 243 222 97 27 54 124 10 0 0 67 59 68 81 77
98 47 27 20 0 0 9 5 3 13 20 27 23 26 27 30 23 20 49 18 31 16 47 47 9 16 24 47 65 182 213 306 68 57 91 179 16 5 78 168 113 84 44 56
31 0 0 0 0 0 0 0 5 10 0 16 30 34 32 35 34 4 12 27 37 30 30 35 53 22 19 8 7 44 148 109 50 126 99 27 22 12 45 19 39 1 52 44

GFSNGP_con_mucape_108.txt.gz
CAPE
0 14 23 14 6 14 0 1 22 47 116 724 679 678 623 1212 1489 1590 1460 1197 1051 747 859 1490 452 491 874 821 800 1067 1065 1157 627 758 1283 1801 1541 2254 1695 2024 1594 1713 1910 2025
28 3 7 5 0 26 25 4 0 14 16 414 872 992 1029 1407 1821 1642 1225 1050 1348 1488 1230 1300 1277 934 690 711 741 591 421 467 707 816 773 631 783 1226 1603 1916 1754 1786 1643 1843
29 19 4 0 5 7 62 34 15 21 372 117 548 715 546 929 1228 1506 1430 1477 1644 1278 1284 1611 1532 1637 1248 1381 1251 950 610 648 843 1067 725 455 593 889 796 1067 1363 1497 1709 1565
126 96 80 105 113 95 22 47 239 478 474 287 587 184 0 579 1014 1078 1200 942 889 1115 1201 1236 1378 1212 1123 1376 1150 964 809 732 431 326 187 102 134 432 525 307 390 588 605 421
109 89 86 175 127 82 7 284 303 273 133 59 246 310 439 715 1122 831 995 828 996 771 681 824 760 847 1135 1260 1164 1085 960 561 329 276 74 93 53 72 80 128 150 128 149 100
427 118 229 213 106 29 13 173 351 385 408 42 287 225 371 527 631 622 576 1037 1003 710 645 746 771 723 635 577 549 419 498 409 407 355 159 25 0 11 17 57 75 72 60 20
238 238 384 145 67 0 14 324 236 255 398 628 657 284 443 508 337 351 329 351 727 450 274 323 641 662 644 459 565 410 367 307 260 138 43 1 5 97 11 3 3 13 15 21
264 138 133 28 309 137 337 405 219 341 320 471 563 201 364 336 506 222 271 264 336 560 350 371 195 400 442 293 448 349 331 368 332 304 73 19 6 31 15 8 10 35 56 82
112 254 249 384 500 439 273 376 498 430 497 330 302 183 93 205 121 168 220 498 444 217 121 194 323 238 347 518 477 347 522 543 475 251 78 164 19 55 4 1 7 22 108 1
552 168 69 332 486 650 669 657 636 496 130 131 120 314 265 169 200 369 304 378 298 323 133 241 460 382 280 333 402 381 442 435 488 393 263 177 98 109 0 0 0 9 9 0
337 481 472 312 541 634 782 656 667 379 192 105 0 26 102 208 535 297 391 529 344 297 254 138 137 305 236 283 108 278 276 281 171 205 258 173 47 30 1 0 0 0 0 0
518 425 903 499 303 374 886 770 583 353 109 5 0 0 94 135 235 216 298 328 240 141 202 312 259 107 108 83 64 95 183 154 134 91 82 92 32 9 1 0 0 0 0 0
783 585 491 443 139 132 222 953 685 439 238 21 4 0 1 60 12 9 127 81 201 61 113 31 47 107 17 3 0 1 43 90 86 13 5 6 0 0 17 0 0 0 0 0
574 408 362 111 136 37 27 165 679 450 141 15 2 1 2 1 0 0 0 0 0 0 0 1 0 0 0 0 0 0 0 0 0 0 0 0 0 0 0 0 0 0 0 0
228 171 180 147 270 105 74 38 176 628 408 238 65 8 6 28 32 20 15 10 0 1 0 0 0 0 0 1 0 1 1 1 0 0 0 0 0 0 0 0 1 0 0 0
234 161 103 212 85 75 45 59 37 402 532 387 351 263 187 103 51 53 58 56 16 0 7 5 2 0 0 0 0 0 0 0 0 0 0 0 0 0 2 4 0 0 0 0
232 130 18 1 5 10 9 11 32 62 95 588 547 304 390 398 272 249 232 158 161 115 74 58 41 29 0 0 0 0 0 0 0 0 0 0 0 0 0 0 0 0 0 0
139 37 5 0 0 0 0 0 0 0 20 30 185 191 92 334 159 270 264 329 255 247 207 208 88 41 0 0 0 0 0 0 0 0 0 0 0 0 0 0 0 0 0 0
0 0 0 0 0 0 1 0 1 5 0 0 0 0 3 80 291 471 394 237 268 276 352 311 134 90 46 9 0 0 0 0 0 0 0 0 0 0 0 0 0 0 0 0
0 0 0 0 0 0 1 2 3 12 31 25 29 15 2 2 16 43 62 117 246 198 367 268 95 226 110 91 20 0 0 2 0 0 0 0 0 0 0 0 0 0 0 0
0 0 0 0 0 2 4 6 13 20 24 34 25 3 1 29 26 45 46 18 66 49 192 161 223 179 276 192 54 26 13 8 15 15 7 0 0 0 0 0 0 0 1 2
0 0 0 0 5 12 22 16 12 16 30 43 2 0 0 2 0 2 49 49 16 2 6 68 42 17 81 73 192 57 39 21 8 23 36 19 7 0 0 0 0 0 0 9
0 1 3 7 24 32 22 9 0 2 9 2 4 7 9 5 14 11 64 7 11 0 0 0 0 0 0 0 15 97 47 50 61 37 9 24 0 2 6 2 0 0 51 41
254 291 104 43 21 47 44 1 0 15 1 1 5 11 7 0 8 5 0 0 0 0 0 0 0 0 0 0 0 40 166 236 160 159 105 6 11 24 23 31 0 14 54 59
514 436 190 174 194 65 98 21 6 1 1 2 16 4 0 0 39 14 37 0 0 1 14 0 0 0 0 15 26 39 221 231 288 304 320 110 34 14 9 34 8 11 8 0
888 64 80 114 17 14 7 0 17 4 10 28 10 0 6 4 0 0 18 25 32 11 52 62 27 11 2 0 0 26 147 288 193 276 255 332 313 117 28 29 98 9 8 1
466 52 47 40 43 59 28 0 0 0 1 42 28 29 31 22 49 21 6 40 28 39 35 38 24 14 6 5 17 10 15 96 42 133 211 98 76 273 265 267 142 19 20 31

GFSNGP_con_mucape_111.txt.gz
CAPE
3 4 4 0 3 3 5 0 0 202 475 223 74 266 178 343 594 528 368 345 335 293 278 245 159 114 48 1 114 368 525 663 605 617 796 755 952 499 1106 1139 930 774 808 834
7 5 1 6 16 0 0 12 3 469 329 207 9 166 350 733 763 873 750 598 614 519 267 187 212 212 71 15 1 453 346 378 383 379 389 476 461 489 542 517 483 468 595 559
7 32 5 4 14 16 32 357 369 727 502 459 153 22 43 75 107 32 646 823 964 1063 867 699 228 141 223 158 312 321 295 232 232 356 343 332 241 308 326 223 200 170 355 353
111 20 38 142 8 3 283 414 223 340 459 175 44 12 52 216 279 316 548 645 680 781 848 935 945 501 541 372 368 303 289 399 496 464 237 106 131 110 220 219 154 171 138 173
97 26 124 182 58 2 141 211 217 391 25 304 150 21 1 1 38 178 331 364 496 730 686 567 638 839 655 562 547 395 399 470 372 248 122 85 32 12 93 97 78 114 101 21
178 207 165 184 76 26 6 186 377 422 405 445 318 372 219 122 350 328 238 235 536 683 694 335 294 416 622 729 624 577 385 356 302 183 105 6 15 10 22 34 29 30 17 23
85 56 133 43 55 94 4 161 437 282 408 140 236 233 136 114 247 79 90 114 144 389 326 380 581 552 550 458 422 323 425 383 333 196 60 37 20 1 0 1 16 13 10 6
63 90 3 22 188 211 135 189 352 436 431 189 150 128 320 266 172 94 30 41 76 159 259 368 348 564 478 766 691 586 462 410 403 307 221 154 27 25 0 21 30 25 20 17
170 196 85 55 56 45 256 545 446 280 271 192 21 50 25 50 39 50 39 97 219 185 381 343 446 384 342 393 194 297 335 214 344 296 241 338 165 44 55 21 19 15 11 32
265 144 199 49 251 382 543 474 201 192 157 63 0 3 8 22 74 36 58 175 89 104 130 59 113 256 73 207 359 418 404 253 418 347 255 265 130 53 46 56 7 0 8 32
213 49 39 260 518 683 791 449 222 99 58 0 0 0 1 0 21 66 92 157 50 192 178 135 218 186 303 217 106 318 371 161 328 403 366 198 205 170 193 87 1 1 2 3
405 126 350 357 460 778 659 521 214 18 0 0 0 0 3 3 6 67 107 59 202 170 139 66 160 119 7 14 96 167 134 95 164 146 251 192 102 99 111 77 13 5 3 0
511 521 208 183 169 789 656 483 191 11 0 0 0 0 0 0 0 46 46 41 47 47 78 39 92 80 66 74 63 76 57 163 122 35 38 31 64 116 160 29 21 1 0 0
526 396 358 293 35 336 733 539 278 46 0 0 0 0 0 0 0 0 0 1 0 0 3 0 0 6 6 61 2 12 0 11 0 0 0 2 7 29 45 62 66 0 0 0
411 257 189 155 144 52 8 467 281 82 12 5 2 0 0 0 0 0 0 0 0 0 0 1 1 0 0 0 0 0 0 0 0 0 0 0 0 0 0 0 0 0 0 0
259 143 261 156 103 70 80 66 330 176 54 34 20 0 0 4 0 0 0 0 0 0 0 0 0 0 0 0 0 0 0 0 0 0 0 0 0 0 0 0 0 0 0 0
191 98 0 4 8 4 0 0 30 337 288 111 53 20 8 18 15 26 40 35 41 32 21 22 0 0 0 0 0 0 0 0 0 0 0 0 0 0 0 0 0 0 0 0
299 201 0 0 0 0 0 0 0 1 144 15 279 382 267 154 32 45 78 77 84 76 50 52 37 5 0 0 0 0 0 0 0 0 0 0 0 0 0 0 0 0 0 0
127 15 0 0 0 0 0 0 0 0 0 0 2 5 11 1 15 149 179 143 83 44 43 52 63 35 20 4 0 0 0 0 0 0 0 0 0 0 0 0 0 0 0 0
0 0 0 0 0 0 0 0 0 0 0 0 0 0 0 0 0 4 18 24 27 48 63 65 56 59 32 41 14 4 8 2 0 0 0 0 0 0 0 0 0 0 0 0
0 0 0 0 0 0 0 4 1 2 25 14 1 0 0 0 0 0 0 1 0 7 38 110 100 65 62 64 29 36 48 5 2 5 0 2 1 0 0 0 0 0 0 0
0 0 0 0 0 0 0 0 0 0 21 17 7 0 0 0 0 0 0 6 0 0 8 17 23 32 56 44 41 26 17 22 40 35 5 12 9 5 7 4 4 0 5 2
0 0 0 0 0 0 1 5 0 0 6 0 0 0 0 0 0 0 1 0 0 0 0 0 0 0 0 0 0 3 22 25 30 44 56 29 31 8 7 8 6 14 5 2
0 0 0 0 0 7 2 0 0 0 0 0 0 0 0 0 0 0 2 3 0 1 0 0 0 0 0 0 0 0 0 2 17 43 44 42 31 27 17 9 14 21 15 6
52 12 1 0 1 0 0 0 1 9 2 0 0 0 0 0 0 1 4 2 0 0 0 0 0 0 0 0 0 0 0 4 10 16 16 34 38 35 32 27 26 22 22 11
489 128 12 0 3 4 3 1 5 14 15 0 0 0 0 0 0 6 15 5 0 0 27 0 0 0 0 0 0 0 0 0 2 11 9 15 31 40 39 15 3 7 17 48
927 332 83 47 20 7 16 11 15 14 9 0 0 0 0 0 0 0 11 17 2 2 18 47 20 3 6 1 5 6 4 9 0 12 7 0 0 0 0 0 14 28 2 14

GFSNGP_con_mucape_114.txt.gz
CAPE
2 0 3 10 0 10 33 25 0 5 219 115 307 275 275 436 330 204 165 188 144 100 86 101 111 185 319 517 396 275 363 455 670 508 441 549 479 365 441 387 375 646 614 723
0 0 4 2 27 317 278 336 565 455 342 119 162 113 164 149 147 91 132 239 277 262 187 129 117 203 235 312 374 244 219 236 487 364 455 423 311 353 319 296 298 424 393 560
1 2 7 41 332 341 273 462 510 214 171 162 15 69 164 50 46 94 72 60 234 252 262 223 179 128 117 57 51 53 97 197 283 235 197 166 266 219 300 217 140 219 198 223
27 14 3 35 292 287 298 237 270 287 52 34 65 137 112 91 36 11 2 82 207 241 235 248 186 149 116 79 52 175 141 166 225 189 163 131 160 214 275 177 175 136 70 100
56 44 114 119 37 67 102 251 415 375 287 95 45 65 1 1 90 134 237 219 188 261 350 618 203 187 151 113 185 214 156 175 204 180 128 94 63 106 106 146 104 81 78 66
44 56 33 51 48 31 22 121 312 224 158 237 202 155 57 67 29 60 184 147 271 338 349 291 399 432 220 281 301 206 206 213 210 151 110 105 101 87 68 71 85 80 54 29
112 21 47 79 57 51 12 6 338 222 105 44 161 24 0 20 123 100 76 151 200 146 261 292 501 319 217 304 267 260 167 289 209 170 113 96 60 45 76 56 63 51 23 8
6 15 2 13 59 101 134 248 493 281 53 36 146 179 159 70 43 50 30 57 113 152 142 172 231 365 365 330 444 318 162 309 190 161 236 79 58 38 66 70 72 83 41 10
0 14 5 0 4 227 514 427 284 188 147 31 11 0 0 0 0 0 0 11 81 100 71 90 132 238 303 432 321 399 406 447 366 318 215 262 175 279 122 29 55 78 52 24
139 32 65 48 252 430 448 213 97 119 39 1 0 0 0 0 0 0 0 0 12 12 35 77 41 111 159 225 267 202 236 317 325 278 143 126 136 188 178 45 37 31 13 30
120 175 146 186 510 482 221 101 96 64 0 0 0 0 0 0 0 1 3 0 22 1 3 5 11 26 42 104 36 151 219 233 308 148 262 260 156 91 106 116 145 91 43 19
132 184 49 312 517 441 170 46 4 0 0 0 0 0 0 5 4 5 15 19 11 5 28 10 1 2 26 38 30 86 86 47 142 58 99 101 52 52 55 95 69 91 16 6
229 91 211 434 621 555 239 52 1 0 0 0 0 0 0 0 0 6 4 0 3 4 19 22 17 15 6 12 9 2 4 11 31 24 66 79 72 17 58 108 36 15 12 40
356 305 155 341 520 533 337 132 4 0 0 0 0 0 0 0 0 0 0 0 0 0 0 2 9 9 3 2 6 24 60 18 6 6 19 14 7 20 20 38 24 29 0 1
326 223 134 69 666 600 465 290 81 2 0 0 0 0 0 0 0 0 0 0 0 0 0 0 0 0 0 1 1 0 0 0 0 0 0 0 0 0 0 0 0 0 0 0
309 222 153 69 658 631 481 370 182 20 7 0 0 0 0 0 0 0 0 0 0 0 0 0 0 0 0 0 0 0 0 1 0 0 0 0 0 0 0 0 0 0 0 0
43 28 126 83 72 32 289 349 201 118 11 0 0 0 0 0 0 0 0 0 0 0 0 0 0 0 0 0 0 0 0 0 0 0 0 0 0 0 0 0 0 0 0 0
0 1 4 9 10 0 0 18 174 182 125 58 60 72 23 9 6 0 0 0 7 13 29 17 9 10 6 0 0 0 0 0 0 0 0 0 0 0 0 0 0 0 0 0
0 0 0 0 0 0 0 0 1 52 166 120 30 41 40 35 25 20 10 10 22 37 45 44 23 22 30 32 23 0 0 0 0 0 0 0 0 0 0 0 0 0 0 0
0 0 0 0 0 0 0 0 0 0 0 0 0 4 4 3 20 32 42 51 44 36 32 35 32 50 80 55 41 19 4 1 0 0 1 0 0 0 0 0 0 0 0 0
0 0 0 0 0 0 0 0 0 0 0 0 0 0 0 0 0 0 0 0 0 4 25 57 64 57 56 84 78 60 49 37 18 4 1 0 5 1 0 0 0 0 0 0
0 0 0 0 0 0 0 0 0 0 0 0 0 0 0 0 0 0 0 0 0 0 1 16 31 45 66 70 98 86 70 51 41 36 34 27 6 21 5 0 0 0 1 1
0 0 0 0 0 0 0 0 0 0 0 0 0 0 0 0 0 0 0 0 0 0 0 0 0 0 0 0 0 3 7 2 11 14 16 41 54 43 31 15 15 1 5 1
0 0 0 0 0 0 0 0 0 0 0 0 0 0 0 0 0 0 0 0 0 0 0 0 0 0 0 0 0 0 0 0 0 4 20 53 55 31 39 40 10 13 16 15
0 0 0 0 0 0 0 0 0 0 3 9 14 7 0 0 0 0 0 0 0 0 0 0 0 0 0 0 0 0 0 0 0 0 0 0 1 40 30 21 22 18 21 16
0 0 0 0 0 0 4 11 10 7 4 6 5 10 1 0 0 0 0 0 0 0 0 0 0 0 0 0 0 0 0 0 0 0 0 0 0 0 0 0 0 0 0 0
285 211 127 38 15 4 17 24 13 15 9 1 2 1 0 0 0 0 0 0 0 0 0 12 10 0 0 0 4 0 0 0 0 0 0 0 0 0 0 0 0 0 0 2

GFSNGP_con_mucape_117.txt.gz
CAPE
36 9 30 8 226 221 139 88 0 101 306 296 282 175 221 223 281 273 236 188 139 66 78 173 240 336 540 606 561 495 423 441 495 591 565 387 486 489 334 293 284 167 235 405
0 9 1 344 239 165 226 412 424 337 224 176 294 264 164 151 113 32 53 143 264 170 153 177 218 246 388 526 522 584 539 472 511 584 653 554 503 484 447 323 237 251 271 494
0 7 5 0 190 225 277 329 218 186 191 459 302 277 121 155 144 89 93 156 199 173 160 116 148 193 226 422 493 487 488 347 334 521 513 333 293 346 283 218 134 139 131 221
0 24 0 1 251 279 251 189 208 91 245 434 107 63 186 21 7 9 41 20 23 45 101 124 144 108 126 151 269 380 373 171 203 264 252 212 175 234 202 156 128 156 80 87
5 29 28 120 44 14 60 220 348 260 125 139 31 80 4 67 113 92 78 57 36 79 172 243 186 137 105 104 103 130 85 125 167 169 195 198 141 133 131 170 163 154 108 41
22 26 39 56 33 32 145 233 271 206 247 305 209 35 32 12 44 56 77 106 110 136 192 232 202 201 178 85 183 133 120 137 172 166 168 150 126 140 80 90 132 146 126 75
6 17 15 88 78 33 38 57 367 229 54 8 98 78 10 33 54 35 7 49 80 84 122 138 286 381 256 61 200 21 192 204 184 201 146 112 98 85 80 151 190 173 142 87
10 33 23 56 51 69 10 238 512 268 30 0 6 44 69 81 52 6 2 16 157 101 109 280 421 454 262 61 33 109 272 206 142 203 78 39 86 85 109 170 159 152 95 32
1 0 19 3 8 118 226 388 562 240 55 69 42 3 5 1 1 0 2 10 91 60 114 90 138 318 511 435 378 362 210 57 163 208 113 92 92 117 131 139 162 141 133 100
82 32 66 92 170 451 478 359 302 170 107 24 0 0 0 0 0 0 0 3 4 19 7 41 49 186 251 349 378 359 254 276 241 218 190 183 171 126 136 166 124 107 109 113
55 74 14 144 133 428 347 139 192 86 2 0 0 0 1 0 1 0 0 5 6 4 6 5 6 13 9 95 61 42 171 88 154 172 177 203 222 134 157 136 91 167 127 26
111 125 43 55 492 342 84 42 17 0 0 0 0 0 0 0 1 4 4 10 2 1 2 6 5 1 2 28 36 68 111 40 105 192 172 161 107 168 86 77 89 62 83 84
252 133 82 367 531 264 17 0 0 0 0 0 0 0 0 0 0 3 10 13 15 5 5 20 4 0 3 0 0 0 6 3 18 19 35 23 50 94 99 15 5 20 57 67
335 197 257 456 500 326 32 0 0 0 0 0 0 0 0 0 0 0 0 0 0 0 0 0 0 0 0 11 23 3 3 1 14 24 10 7 1 7 12 17 11 27 38 27
251 145 343 551 568 381 100 1 0 0 0 0 0 0 0 0 0 0 0 0 0 0 0 0 0 0 5 3 5 1 0 2 0 0 0 0 0 0 0 0 0 1 0 0
266 290 191 396 443 341 179 36 0 0 0 0 0 0 0 0 0 0 0 0 0 0 0 0 0 0 0 0 0 0 0 0 0 0 0 0 0 0 0 0 0 0 0 0
291 273 164 455 548 498 333 142 54 0 0 0 0 0 0 0 0 0 0 0 0 0 0 0 0 0 0 0 0 0 0 0 0 0 0 0 0 0 0 0 0 0 0 0
192 113 78 191 573 499 438 286 168 82 17 9 5 2 0 0 0 0 0 0 0 0 2 8 4 0 0 0 0 0 0 0 0 0 0 0 0 0 0 0 0 0 0 0
7 0 0 5 156 126 165 196 177 169 107 53 12 18 38 25 19 30 48 33 16 19 41 31 34 39 36 38 27 9 0 0 0 0 0 0 0 0 0 0 0 0 0 0
0 0 0 0 0 0 0 0 0 16 10 16 47 36 23 19 22 21 27 40 56 57 51 58 63 40 48 62 54 35 13 2 0 0 0 0 0 0 0 0 0 0 0 0
0 0 0 0 0 0 0 0 0 0 0 0 0 7 21 29 10 13 25 3 0 0 1 21 26 30 44 61 56 54 47 37 32 18 11 1 0 0 0 0 0 0 0 0
0 0 0 0 0 0 0 0 0 0 0 0 0 0 0 0 0 0 0 0 0 0 4 13 20 11 16 34 51 60 63 46 42 38 32 25 28 34 39 9 6 12 4 0
0 0 0 0 0 0 0 0 0 0 0 0 0 0 0 0 0 0 0 0 0 0 0 0 0 0 0 0 0 0 0 0 1 4 10 18 22 20 34 38 53 43 18 0
0 0 0 0 0 0 0 0 0 0 0 0 0 0 0 0 0 0 0 0 0 0 0 0 0 0 0 0 0 0 0 0 0 0 0 4 10 19 27 24 32 37 32 35
0 0 0 0 0 0 0 0 0 0 0 1 2 0 5 4 3 3 0 0 0 0 0 0 0 0 0 0 0 0 0 0 0 0 0 0 0 0 8 5 20 4 6 0
0 0 0 0 0 0 0 3 1 2 1 9 14 14 14 4 1 0 0 0 0 0 0 0 0 0 0 0 0 0 0 0 0 0 0 0 0 0 0 0 0 0 0 0
67 72 56 23 26 18 9 26 19 20 13 9 11 5 1 1 1 0 0 0 0 0 0 0 0 0 0 0 0 0 0 0 0 0 0 0 0 0 0 0 0 0 0 0

GFSNGP_con_mucape_120.txt.gz
CAPE
61 33 21 13 258 404 249 68 0 68 217 186 211 244 337 275 229 161 94 102 56 65 79 109 148 137 167 221 402 307 271 299 285 256 263 301 298 274 318 253 271 170 87 63
0 11 194 369 233 195 457 439 508 420 299 260 152 110 122 122 94 184 226 170 182 94 155 158 210 236 373 540 559 437 282 328 321 255 250 323 455 410 305 368 358 262 231 192
0 15 44 1 58 223 189 242 224 230 271 332 146 84 85 83 114 172 304 290 249 121 118 181 165 248 245 296 383 375 437 393 390 315 329 312 360 479 370 472 459 137 50 108
2 0 0 0 257 341 311 273 125 288 316 149 469 170 92 39 64 24 83 134 201 192 195 172 185 157 125 157 156 206 248 321 275 241 278 188 211 270 269 265 238 126 71 97
0 0 0 214 278 258 253 266 347 251 402 174 150 158 107 97 124 114 123 92 155 76 117 191 166 151 143 147 101 90 167 186 158 155 73 116 148 149 136 163 141 144 70 73
1 0 36 72 274 223 109 185 313 367 244 279 314 91 41 76 111 132 88 125 152 160 125 165 167 125 174 203 124 102 64 26 35 100 121 94 149 150 104 124 109 72 78 75
6 0 0 42 109 94 148 15 311 164 24 37 108 43 43 56 78 70 43 55 35 49 53 136 246 337 237 157 67 126 30 47 91 150 95 67 99 91 84 84 72 63 89 96
24 7 0 89 66 70 55 247 427 237 15 10 0 0 4 16 46 33 30 23 97 85 108 164 271 389 385 232 29 6 3 106 142 94 103 107 86 41 52 51 77 102 99 129
0 0 19 6 41 45 190 511 556 181 22 0 0 13 3 0 3 1 1 28 71 79 114 120 146 204 257 314 219 227 134 187 89 69 77 78 27 27 75 87 113 120 125 116
65 11 87 62 26 319 327 542 456 105 64 16 0 0 0 0 1 1 0 4 5 8 12 37 13 29 263 262 262 251 215 141 44 160 52 67 55 67 100 72 98 125 86 119
115 54 109 101 205 462 387 237 178 118 8 0 0 0 0 0 0 0 0 1 2 5 7 6 13 7 8 108 180 124 154 177 178 136 130 80 70 89 88 148 140 185 115 110
108 63 92 62 132 501 230 198 143 15 0 0 0 0 0 0 0 0 0 5 11 6 5 4 7 2 3 12 73 50 53 82 105 156 177 137 92 108 106 138 165 120 115 64
235 219 154 95 660 403 123 65 3 0 0 0 0 0 0 0 0 0 5 9 1 5 5 7 15 2 0 0 3 28 46 62 79 68 131 103 76 32 54 96 44 29 10 44
373 311 297 630 545 307 81 9 0 0 0 0 0 0 0 0 0 0 0 0 2 1 0 0 0 0 0 0 4 3 1 2 17 3 0 16 38 28 1 1 14 13 25 8
240 156 244 509 641 310 37 0 0 0 0 0 0 0 0 0 0 0 0 0 0 0 0 0 0 0 0 0 0 3 3 2 0 0 0 1 0 0 2 0 2 1 0 0
21 100 342 559 595 346 44 0 0 0 0 0 0 0 0 0 0 0 0 0 0 0 0 0 0 0 0 0 0 0 0 0 0 0 0 0 0 0 0 0 0 0 0 0
262 150 376 566 549 372 164 9 0 2 0 0 0 0 0 0 0 0 0 0 0 0 0 0 0 0 0 0 0 0 0 0 0 0 0 0 0 0 0 0 0 0 0 0
138 112 200 376 381 350 257 63 8 0 0 5 0 0 0 0 0 0 0 0 0 0 0 8 11 6 4 2 2 0 0 0 0 0 0 0 0 0 0 0 0 0 0 0
0 65 77 47 170 302 343 184 77 38 5 8 9 0 2 2 0 0 0 2 10 8 20 12 22 26 37 42 39 36 24 11 0 0 0 0 0 0 0 0 0 0 0 0
0 1 27 0 0 76 239 112 113 60 40 17 15 8 4 13 15 11 12 14 16 13 17 33 35 46 48 18 40 57 59 49 15 1 0 0 0 0 0 0 0 0 0 0
0 0 0 0 0 0 86 6 0 0 0 0 0 0 5 20 14 20 22 16 3 0 0 0 0 4 6 24 38 58 60 56 51 42 30 20 13 7 4 3 0 0 0 0
0 0 0 0 0 0 0 0 0 0 0 0 0 0 0 0 10 16 5 0 0 0 0 0 0 2 8 21 36 40 45 48 54 52 44 40 46 43 42 41 48 27 10 17
0 0 0 0 0 0 0 0 0 0 0 0 0 0 0 0 0 0 0 0 0 0 0 0 0 0 0 0 0 0 0 0 0 0 2 5 7 9 9 3 0 18 30 35
0 0 0 0 0 0 0 0 0 0 0 0 0 0 0 0 0 0 0 0 0 0 0 0 0 0 0 0 0 0 0 0 0 0 0 0 0 0 1 16 10 18 1 1
0 0 0 0 0 0 0 0 0 0 0 0 0 1 14 17 5 2 0 0 9 0 0 0 0 0 0 0 0 0 0 0 0 0 0 0 0 0 0 0 0 0 0 0
0 0 0 0 0 0 0 0 0 0 0 3 21 24 28 20 17 10 1 5 8 2 0 0 0 0 0 0 0 0 0 0 0 0 0 0 0 0 0 0 0 0 0 0
0 0 0 0 0 0 3 6 2 6 24 32 28 23 10 12 8 5 2 4 0 1 0 0 0 0 0 0 0 0 0 0 0 0 0 0 0 0 0 0 0 0 0 0